[[{"header":{"parameterUnit":"m.s-1","parameterCategory":1,"la1":31.0,"la2":29.5877,"lo1":-88.7671,"lo2":-86.6584,"dy":0.0162,"dx":0.0185,"nx":115,"ny":88,"refTime":"2023-04-02T06:00:00:Z","depth":0,"parameterNumber":2,"parameterNumberName":"U-component_of_WINDS"},"data":[0.0,0.0,0.0,0.0,0.0,0.0,0.0,0.0,0.0,0.0,0.0,0.0,0.0,0.0,0.0,0.0,0.0,0.0,0.0,0.0,0.0,0.0,0.0,0.0,0.0,0.0,0.0,0.0,0.0,0.0,0.0,0.0,0.0,0.0,0.0,0.0,0.0,0.0,0.0,0.0,0.0,0.0,0.0,0.0,0.0,0.0,0.0,0.0,0.0,0.0,0.0,0.0,0.0,0.0,0.0,0.0,0.0,0.0,0.0,0.0,0.0,0.0,0.0,0.0,0.0,0.0,0.0,0.0,0.0,0.0,0.0,0.0,0.0,0.0,0.0,0.0,0.0,0.0,0.0,0.0,0.0,0.0,0.0,0.0,0.0,0.0,0.0,0.0,0.0,0.0,0.0,0.0,0.0,0.0,0.0,0.0,0.0,0.0,0.0,0.0,0.0,0.0,0.0,0.0,0.0,0.0,0.0,0.0,0.0,0.0,0.0,0.0,0.0,0.0,0.0,0.0,0.0,0.0,0.0,0.0,0.0,0.0,0.0,0.0,0.0,0.0,0.0,0.0,0.0,0.0,0.0,0.0,0.0,0.0,0.0,0.0,0.0,0.0,0.0,0.0,0.0,0.0,0.0,0.0,0.0,0.0,0.0,0.0,0.0,0.0,0.0,0.0,0.0,0.0,0.0,0.0,0.0,0.0,0.0,0.0,0.0,0.0,0.0,0.0,0.0,0.0,0.0,0.0,0.0,0.0,0.0,0.0,0.0,0.0,0.0,0.0,0.0,0.0,0.0,0.0,0.0,0.0,0.0,0.0,0.0,0.0,0.0,0.0,0.0,0.0,0.0,0.0,0.0,0.0,0.0,0.0,0.0,0.0,0.0,0.0,0.0,0.0,0.0,0.0,0.0,0.0,0.0,0.0,0.0,0.0,0.0,0.0,0.0,0.0,0.0,0.0,0.0,0.0,0.0,0.0,0.0,0.0,0.0,0.0,0.0,0.0,0.0,0.0,0.0,0.0,0.0,0.0,0.0,0.0,0.0,0.0,0.0,0.0,0.0,0.0,0.0,0.0,0.0,0.0,0.0,0.0,0.0,0.0,0.0,0.0,0.0,0.0,0.0,0.0,0.0,0.0,0.0,0.0,0.0,0.0,0.0,0.0,0.0,0.0,0.0,0.0,0.0,0.0,0.0,0.0,0.0,0.0,0.0,0.0,0.0,0.0,0.0,0.0,0.0,0.0,0.0,0.0,0.0,0.0,0.0,0.0,0.0,0.0,0.0,0.0,0.0,0.0,0.0,0.0,0.0,0.0,0.0,0.0,0.0,0.0,0.0,0.0,0.0,0.0,0.0,0.0,0.0,0.0,0.0,0.0,0.0,0.0,0.0,0.0,0.0,0.0,0.0,0.0,0.0,0.0,0.0,0.0,0.0,0.0,0.0,0.0,0.0,0.0,0.0,0.0,0.0,0.0,0.0,0.0,0.0,0.0,0.0,0.0,0.0,0.0,0.0,0.0,0.0,0.0,0.0,0.0,0.0,0.0,0.0,0.0,0.0,0.0,0.0,0.0,0.0,0.0,0.0,0.0,0.0,0.0,0.0,0.0,0.0,0.0,0.0,0.0,0.0,0.0,0.0,0.0,0.0,0.0,0.0,0.0,0.0,0.0,0.0,0.0,0.0,0.0,0.0,0.0,0.0,0.0,0.0,0.0,0.0,0.0,0.0,0.0,0.0,0.0,0.0,0.0,0.0,0.0,0.0,0.0,0.0,0.0,0.0,0.0,0.0,0.0,0.0,0.0,0.0,0.0,0.0,0.0,0.0,0.0,0.0,0.0,0.0,0.0,0.0,0.0,0.0,0.0,0.0,0.0,0.0,0.0,0.0,0.0,0.0,0.0,0.0,0.0,0.0,0.0,0.0,0.0,0.0,0.0,0.0,0.0,0.0,0.0,0.0,0.0,0.0,0.0,0.0,0.0,0.0,0.0,0.0,0.0,0.0,0.0,0.0,0.0,0.0,0.0,0.0,0.0,0.0,0.0,0.0,0.0,0.0,0.0,0.0,0.0,0.0,0.0,0.0,0.0,0.0,0.0,0.0,0.0,0.0,0.0,0.0,0.0,0.0,0.0,0.0,0.0,0.0,0.0,0.0,0.0,0.0,0.0,0.0,0.0,0.0,0.0,0.0,0.0,0.0,0.0,0.0,0.0,0.0,0.0,0.0,0.0,0.0,0.0,0.0,0.0,0.0,0.0,0.0,0.0,0.0,0.0,0.0,0.0,0.0,0.0,0.0,0.0,0.0,0.0,0.0,0.0,0.0,0.0,0.0,0.0,0.0,0.0,0.0,0.0,0.0,0.0,0.0,0.0,0.0,0.0,0.0,0.0,0.0,0.0,0.0,0.0,0.0,0.0,0.0,0.0,0.0,0.0,0.0,0.0,0.0,0.0,0.0,0.0,0.0,0.0,0.0,0.0,0.0,0.0,0.0,0.0,0.0,0.0,0.0,0.0,0.0,0.0,0.0,0.0,0.0,0.0,0.0,0.0,0.0,0.0,0.0,0.0,0.0,0.0,0.0,0.0,0.0,0.0,0.0,0.0,0.0,0.0,0.0,0.0,0.0,0.0,0.0,0.0,0.0,0.0,0.0,0.0,0.0,0.0,0.0,0.0,0.0,0.0,0.0,0.0,0.0,0.0,0.0,0.0,0.0,0.0,0.0,0.0,0.0,0.0,0.0,0.0,0.0,0.0,0.0,0.0,0.0,0.0,0.0,0.0,0.0,0.0,0.0,0.0,0.0,0.0,0.0,0.0,0.0,0.0,0.0,0.0,0.0,0.0,0.0,0.0,0.0,0.0,0.0,0.0,0.0,0.0,0.0,0.0,0.0,0.0,0.0,0.0,0.0,0.0,0.0,0.0,0.0,0.0,0.0,0.0,0.0,0.0,0.0,0.0,0.0,0.0,0.0,0.0,0.0,0.0,0.0,0.0,0.0,0.0,0.0,0.0,0.0,0.0,0.0,0.0,0.0,0.0,0.0,0.0,0.0,0.0,0.0,0.0,0.0,0.0,0.0,0.0,0.0,0.0,0.0,0.0,0.0,0.0,0.0,0.0,0.0,0.0,0.0,0.0,0.0,0.0,0.0,0.0,0.0,0.0,0.0,0.0,0.0,0.0,0.0,0.0,0.0,0.0,0.0,0.0,0.0,0.0,0.0,0.0,0.0,0.0,0.0,0.0,0.0,0.0,0.0,0.0,0.0,0.0,0.0,0.0,0.0,0.0,0.0,0.0,0.0,0.0,0.0,0.0,0.0,0.0,0.0,0.0,0.0,0.0,0.0,0.0,0.0,0.0,0.0,0.0,0.0,0.0,0.0,0.0,0.0,0.0,0.0,0.0,0.0,0.0,0.0,0.0,0.0,0.0,0.0,0.0,0.0,0.0,0.0,0.0,0.0,0.0,0.0,0.0,0.0,0.0,0.0,0.0,0.0,0.0,0.0,0.0,0.0,0.0,0.0,0.0,0.0,0.0,0.0,0.0,0.0,0.0,0.0,0.0,0.0,0.0,0.0,0.0,0.0,0.0,0.0,0.0,0.0,0.0,0.0,0.0,0.0,0.0,0.0,0.0,0.0,0.0,0.0,0.0,0.0,0.0,0.0,0.0,0.0,0.0,0.0,0.0,0.0,0.0,0.0,0.0,0.0,0.0,0.0,0.0,0.0,0.0,0.0,0.0,0.0,0.0,0.0,0.0,0.0,0.0,0.0,0.0,0.0,0.0,0.0,0.0,0.0,0.0,0.0,0.0,0.0,0.0,0.0,0.0,0.0,0.0,0.0,0.0,0.0,0.0,0.0,0.0,0.0,0.0,0.0,0.0,0.0,0.0,0.0,0.0,0.0,0.0,0.0,0.0,0.0,0.0,0.0,0.0,0.0,0.0,0.0,0.0,0.0,0.0,0.0,0.0,0.0,0.0,0.0,0.0,0.0,0.0,0.0,0.0,0.0,0.0,0.0,0.0,0.0,0.0,0.0,0.0,0.0,0.0,0.0,0.0,0.0,0.0,0.0,0.0,0.0,0.0,0.0,0.0,0.0,0.0,0.0,0.0,0.0,0.0,0.0,0.0,0.0,0.0,0.0,0.0,0.0,0.0,0.0,0.0,0.0,0.0,0.0,0.0,0.0,0.0,0.0,0.0,0.0,0.0,0.0,0.0,0.0,0.0,0.0,0.0,0.0,0.0,0.0,0.0,0.0,0.0,0.0,0.0,0.0,0.0,0.0,0.0,3.5803,0.0,0.0,0.0,0.0,0.0,0.0,0.0,0.0,0.0,0.0,0.0,0.0,0.0,0.0,0.0,0.0,0.0,0.0,0.0,0.0,0.0,0.0,0.0,0.0,0.0,0.0,0.0,0.0,0.0,0.0,0.0,0.0,0.0,0.0,0.0,0.0,0.0,0.0,0.0,0.0,0.0,0.0,0.0,0.0,0.0,0.0,0.0,0.0,0.0,0.0,0.0,0.0,0.0,0.0,0.0,0.0,0.0,0.0,0.0,0.0,0.0,0.0,0.0,0.0,0.0,0.0,0.0,0.0,0.0,0.0,0.0,0.0,0.0,0.0,0.0,0.0,0.0,0.0,0.0,0.0,0.0,0.0,0.0,0.0,0.0,0.0,0.0,0.0,0.0,0.0,0.0,0.0,0.0,0.0,0.0,0.0,0.0,0.0,0.0,0.0,0.0,0.0,0.0,0.0,0.0,0.0,0.0,0.0,0.0,0.0,3.7403,3.77,3.7456,3.6975,3.623,0.0,0.0,0.0,0.0,0.0,0.0,0.0,0.0,0.0,0.0,0.0,0.0,0.0,0.0,0.0,0.0,0.0,0.0,0.0,0.0,0.0,0.0,0.0,0.0,0.0,0.0,0.0,0.0,0.0,0.0,0.0,0.0,0.0,0.0,0.0,0.0,0.0,0.0,0.0,0.0,0.0,0.0,0.0,0.0,0.0,0.0,0.0,0.0,0.0,0.0,0.0,0.0,0.0,0.0,0.0,0.0,0.0,0.0,0.0,0.0,0.0,0.0,0.0,0.0,0.0,0.0,0.0,0.0,0.0,0.0,0.0,0.0,0.0,0.0,0.0,0.0,0.0,0.0,0.0,0.0,0.0,0.0,0.0,0.0,0.0,0.0,0.0,0.0,0.0,0.0,0.0,0.0,0.0,0.0,0.0,0.0,0.0,0.0,0.0,0.0,0.0,0.0,0.0,0.0,0.0,0.0,0.0,0.0,0.0,0.0,0.0,0.0,3.7539,3.7128,3.6184,0.0,0.0,0.0,0.0,0.0,0.0,0.0,0.0,0.0,0.0,0.0,0.0,0.0,0.0,0.0,0.0,0.0,0.0,0.0,0.0,0.0,0.0,0.0,0.0,0.0,0.0,0.0,0.0,0.0,0.0,0.0,0.0,0.0,0.0,0.0,0.0,0.0,0.0,0.0,0.0,0.0,0.0,0.0,0.0,0.0,0.0,0.0,0.0,0.0,0.0,0.0,0.0,0.0,0.0,0.0,0.0,0.0,0.0,0.0,0.0,0.0,0.0,0.0,0.0,0.0,0.0,0.0,0.0,0.0,0.0,0.0,0.0,0.0,0.0,0.0,0.0,0.0,0.0,0.0,0.0,0.0,0.0,0.0,0.0,0.0,0.0,0.0,0.0,0.0,0.0,0.0,0.0,0.0,0.0,0.0,0.0,0.0,0.0,0.0,0.0,0.0,0.0,0.0,0.0,0.0,0.0,0.0,0.0,0.0,0.0,3.6846,3.703,3.7076,0.0,3.4936,0.0,0.0,0.0,0.0,0.0,0.0,0.0,0.0,0.0,0.0,0.0,0.0,0.0,0.0,0.0,0.0,0.0,0.0,0.0,0.0,0.0,0.0,0.0,0.0,0.0,0.0,0.0,0.0,0.0,0.0,0.0,0.0,0.0,0.0,0.0,0.0,0.0,0.0,0.0,0.0,0.0,0.0,0.0,0.0,0.0,0.0,0.0,0.0,0.0,0.0,0.0,0.0,0.0,0.0,0.0,0.0,0.0,0.0,0.0,0.0,0.0,0.0,0.0,0.0,0.0,0.0,0.0,0.0,0.0,0.0,0.0,0.0,0.0,0.0,0.0,0.0,0.0,0.0,0.0,0.0,0.0,0.0,0.0,0.0,0.0,0.0,0.0,0.0,0.0,0.0,0.0,0.0,0.0,0.0,0.0,0.0,0.0,0.0,0.0,0.0,0.0,0.0,0.0,0.0,0.0,0.0,0.0,0.0,0.0,0.0,3.68,3.6999,3.68,3.6043,0.0,0.0,0.0,0.0,0.0,0.0,0.0,0.0,0.0,0.0,0.0,0.0,0.0,0.0,0.0,0.0,0.0,0.0,0.0,0.0,0.0,0.0,0.0,0.0,0.0,0.0,0.0,0.0,0.0,0.0,0.0,0.0,0.0,0.0,0.0,0.0,0.0,0.0,0.0,0.0,0.0,0.0,0.0,0.0,0.0,0.0,0.0,0.0,0.0,0.0,0.0,0.0,0.0,0.0,0.0,0.0,0.0,0.0,0.0,0.0,0.0,0.0,0.0,0.0,0.0,0.0,0.0,0.0,0.0,0.0,0.0,0.0,0.0,0.0,0.0,0.0,0.0,0.0,0.0,0.0,0.0,0.0,0.0,0.0,0.0,0.0,0.0,0.0,0.0,0.0,0.0,0.0,0.0,0.0,0.0,0.0,0.0,0.0,0.0,0.0,0.0,0.0,0.0,0.0,0.0,0.0,0.0,0.0,0.0,0.0,3.6445,3.6585,3.6724,3.6492,3.5707,3.4285,0.0,0.0,0.0,0.0,0.0,0.0,0.0,0.0,0.0,0.0,0.0,0.0,0.0,0.0,0.0,0.0,0.0,0.0,0.0,0.0,0.0,0.0,0.0,0.0,0.0,0.0,0.0,0.0,0.0,0.0,0.0,0.0,0.0,0.0,0.0,0.0,0.0,0.0,0.0,0.0,0.0,0.0,0.0,0.0,0.0,0.0,0.0,0.0,0.0,0.0,0.0,0.0,0.0,0.0,0.0,0.0,0.0,0.0,0.0,0.0,0.0,0.0,0.0,0.0,0.0,0.0,0.0,0.0,0.0,0.0,0.0,0.0,0.0,0.0,0.0,0.0,0.0,0.0,0.0,0.0,0.0,0.0,0.0,0.0,0.0,0.0,0.0,0.0,0.0,0.0,0.0,0.0,0.0,0.0,0.0,0.0,0.0,0.0,0.0,0.0,0.0,0.0,0.0,0.0,0.0,0.0,0.0,0.0,3.6005,3.6037,3.6052,3.6037,3.6037,3.5242,0.0,0.0,0.0,0.0,0.0,0.0,0.0,0.0,0.0,0.0,0.0,0.0,0.0,0.0,0.0,0.0,0.0,0.0,0.0,0.0,0.0,0.0,0.0,0.0,0.0,0.0,0.0,0.0,0.0,0.0,0.0,0.0,0.0,0.0,0.0,0.0,0.0,0.0,0.0,0.0,0.0,0.0,0.0,0.0,0.0,0.0,0.0,0.0,0.0,0.0,0.0,0.0,0.0,0.0,0.0,0.0,0.0,0.0,0.0,0.0,0.0,0.0,0.0,0.0,0.0,0.0,0.0,0.0,0.0,0.0,0.0,0.0,0.0,0.0,0.0,0.0,0.0,0.0,0.0,0.0,0.0,0.0,0.0,0.0,0.0,0.0,0.0,0.0,0.0,0.0,0.0,0.0,0.0,0.0,0.0,0.0,0.0,0.0,0.0,0.0,0.0,0.0,0.0,0.0,0.0,0.0,0.0,0.0,0.0,3.5651,3.5735,3.5831,3.5784,3.5621,3.4735,0.0,0.0,0.0,0.0,0.0,0.0,0.0,0.0,0.0,0.0,0.0,0.0,0.0,0.0,0.0,0.0,0.0,0.0,0.0,0.0,0.0,0.0,0.0,0.0,0.0,0.0,0.0,0.0,0.0,0.0,0.0,0.0,0.0,0.0,0.0,0.0,0.0,0.0,0.0,0.0,0.0,0.0,0.0,0.0,0.0,0.0,0.0,0.0,0.0,0.0,0.0,0.0,0.0,0.0,0.0,0.0,0.0,0.0,0.0,0.0,0.0,0.0,0.0,0.0,0.0,0.0,0.0,0.0,0.0,0.0,0.0,0.0,0.0,0.0,0.0,0.0,0.0,0.0,0.0,0.0,0.0,0.0,0.0,0.0,0.0,0.0,0.0,0.0,0.0,0.0,0.0,0.0,0.0,0.0,0.0,0.0,0.0,0.0,0.0,0.0,0.0,0.0,0.0,0.0,0.0,0.0,0.0,0.0,0.0,3.5294,0.0,3.5494,3.5429,3.5166,3.4363,0.0,0.0,0.0,0.0,0.0,0.0,0.0,0.0,0.0,0.0,0.0,0.0,0.0,0.0,0.0,0.0,0.0,0.0,0.0,0.0,0.0,0.0,0.0,0.0,0.0,0.0,0.0,0.0,0.0,0.0,0.0,0.0,0.0,0.0,0.0,0.0,0.0,0.0,0.0,0.0,0.0,0.0,0.0,0.0,0.0,0.0,0.0,0.0,0.0,0.0,0.0,0.0,0.0,0.0,0.0,0.0,0.0,0.0,0.0,0.0,0.0,0.0,0.0,0.0,0.0,0.0,0.0,0.0,0.0,0.0,0.0,0.0,0.0,0.0,0.0,0.0,0.0,0.0,0.0,0.0,0.0,0.0,0.0,0.0,0.0,0.0,0.0,0.0,0.0,0.0,0.0,0.0,0.0,0.0,0.0,0.0,0.0,0.0,0.0,0.0,0.0,0.0,0.0,0.0,0.0,0.0,0.0,0.0,3.4534,3.4902,3.5082,3.5082,3.4902,3.475,3.3984,0.0,0.0,0.0,0.0,0.0,0.0,0.0,0.0,0.0,0.0,0.0,0.0,0.0,0.0,0.0,0.0,0.0,0.0,0.0,0.0,0.0,0.0,0.0,0.0,0.0,0.0,0.0,0.0,0.0,0.0,0.0,0.0,0.0,0.0,0.0,0.0,0.0,0.0,0.0,0.0,0.0,0.0,0.0,0.0,0.0,0.0,0.0,0.0,0.0,0.0,0.0,0.0,0.0,0.0,0.0,0.0,0.0,0.0,0.0,0.0,0.0,0.0,0.0,0.0,0.0,0.0,0.0,0.0,0.0,0.0,0.0,0.0,0.0,0.0,0.0,0.0,0.0,0.0,0.0,0.0,0.0,0.0,0.0,0.0,0.0,0.0,0.0,0.0,0.0,0.0,0.0,0.0,0.0,0.0,0.0,0.0,0.0,0.0,0.0,0.0,0.0,0.0,0.0,0.0,0.0,0.0,0.0,0.0,0.0,3.4534,3.4501,3.4385,3.4366,3.4074,3.3282,0.0,0.0,0.0,0.0,0.0,0.0,0.0,0.0,0.0,0.0,0.0,0.0,0.0,0.0,0.0,0.0,0.0,0.0,0.0,0.0,0.0,0.0,0.0,0.0,0.0,0.0,0.0,0.0,0.0,0.0,0.0,0.0,0.0,0.0,0.0,0.0,0.0,0.0,0.0,0.0,0.0,0.0,0.0,0.0,0.0,0.0,0.0,0.0,0.0,0.0,0.0,0.0,0.0,0.0,0.0,0.0,0.0,0.0,0.0,0.0,0.0,0.0,0.0,0.0,0.0,0.0,0.0,0.0,0.0,0.0,0.0,0.0,0.0,0.0,0.0,0.0,0.0,0.0,0.0,0.0,0.0,0.0,0.0,0.0,0.0,0.0,0.0,0.0,0.0,0.0,0.0,0.0,0.0,0.0,0.0,0.0,0.0,0.0,0.0,0.0,0.0,0.0,0.0,0.0,0.0,0.0,0.0,0.0,0.0,3.3874,3.3888,3.3902,3.3888,3.3472,3.2638,3.1333,0.0,0.0,0.0,0.0,0.0,0.0,0.0,0.0,0.0,0.0,0.0,0.0,0.0,0.0,0.0,0.0,0.0,0.0,0.0,0.0,0.0,0.0,0.0,0.0,0.0,0.0,0.0,0.0,0.0,0.0,0.0,0.0,0.0,0.0,0.0,0.0,0.0,0.0,0.0,0.0,0.0,0.0,0.0,0.0,0.0,0.0,0.0,0.0,0.0,0.0,0.0,0.0,0.0,0.0,0.0,0.0,0.0,0.0,0.0,0.0,0.0,0.0,0.0,0.0,0.0,0.0,0.0,0.0,0.0,0.0,0.0,0.0,0.0,0.0,0.0,0.0,0.0,0.0,0.0,0.0,0.0,0.0,0.0,0.0,0.0,0.0,0.0,0.0,0.0,0.0,0.0,0.0,0.0,0.0,0.0,0.0,0.0,0.0,0.0,0.0,0.0,0.0,0.0,0.0,0.0,0.0,0.0,0.0,3.2988,3.3333,3.3536,3.3521,3.2931,3.2067,0.0,0.0,0.0,0.0,0.0,0.0,0.0,0.0,0.0,0.0,0.0,0.0,0.0,0.0,0.0,0.0,0.0,0.0,0.0,0.0,0.0,0.0,0.0,0.0,0.0,0.0,0.0,0.0,0.0,0.0,0.0,0.0,0.0,0.0,0.0,0.0,0.0,0.0,0.0,0.0,0.0,0.0,0.0,0.0,0.0,0.0,0.0,0.0,0.0,0.0,0.0,0.0,0.0,0.0,0.0,0.0,0.0,0.0,0.0,0.0,0.0,0.0,0.0,0.0,0.0,0.0,0.0,0.0,0.0,0.0,0.0,0.0,0.0,0.0,0.0,0.0,0.0,0.0,0.0,0.0,0.0,0.0,0.0,0.0,0.0,0.0,0.0,0.0,0.0,0.0,0.0,0.0,0.0,0.0,0.0,0.0,0.0,0.0,0.0,0.0,0.0,0.0,0.0,0.0,0.0,0.0,0.0,0.0,0.0,3.2596,3.2552,3.2602,3.2717,3.2178,3.1308,0.0,0.0,0.0,0.0,0.0,0.0,0.0,0.0,0.0,0.0,0.0,0.0,0.0,0.0,0.0,0.0,0.0,0.0,0.0,0.0,0.0,0.0,0.0,0.0,0.0,0.0,0.0,0.0,0.0,0.0,0.0,0.0,0.0,0.0,0.0,0.0,0.0,0.0,0.0,0.0,0.0,0.0,0.0,0.0,0.0,0.0,0.0,0.0,0.0,0.0,0.0,0.0,0.0,0.0,0.0,0.0,0.0,0.0,0.0,0.0,0.0,0.0,0.0,0.0,0.0,0.0,0.0,0.0,0.0,0.0,0.0,0.0,0.0,0.0,0.0,0.0,0.0,0.0,0.0,0.0,0.0,0.0,0.0,0.0,0.0,0.0,0.0,0.0,0.0,0.0,0.0,0.0,0.0,0.0,0.0,0.0,0.0,0.0,0.0,0.0,0.0,0.0,0.0,0.0,0.0,0.0,0.0,0.0,3.2431,3.2322,3.1913,3.168,3.1666,3.1482,3.0705,0.0,0.0,0.0,0.0,0.0,0.0,0.0,0.0,0.0,0.0,0.0,0.0,0.0,0.0,0.0,0.0,0.0,0.0,0.0,0.0,0.0,0.0,0.0,0.0,0.0,0.0,0.0,0.0,0.0,0.0,0.0,0.0,0.0,0.0,0.0,0.0,0.0,0.0,0.0,0.0,0.0,0.0,0.0,0.0,0.0,0.0,0.0,0.0,0.0,0.0,0.0,0.0,0.0,0.0,0.0,0.0,0.0,0.0,0.0,0.0,0.0,0.0,0.0,0.0,0.0,0.0,0.0,0.0,0.0,0.0,0.0,0.0,0.0,0.0,0.0,0.0,0.0,0.0,0.0,0.0,0.0,0.0,0.0,0.0,0.0,0.0,0.0,0.0,0.0,0.0,0.0,0.0,0.0,0.0,0.0,0.0,0.0,0.0,0.0,0.0,0.0,0.0,0.0,0.0,0.0,0.0,0.0,0.0,3.2109,3.2073,3.136,3.0836,3.0622,3.0746,3.0101,0.0,0.0,0.0,0.0,0.0,0.0,0.0,0.0,0.0,0.0,0.0,0.0,0.0,0.0,0.0,0.0,0.0,0.0,0.0,0.0,0.0,0.0,0.0,0.0,0.0,0.0,0.0,0.0,0.0,0.0,0.0,0.0,0.0,0.0,0.0,0.0,0.0,0.0,0.0,0.0,0.0,0.0,0.0,0.0,0.0,0.0,0.0,0.0,0.0,0.0,0.0,0.0,0.0,0.0,0.0,0.0,0.0,0.0,0.0,0.0,0.0,0.0,0.0,0.0,0.0,0.0,0.0,0.0,0.0,0.0,0.0,0.0,0.0,0.0,0.0,0.0,0.0,0.0,0.0,0.0,0.0,0.0,0.0,0.0,0.0,0.0,0.0,0.0,0.0,0.0,0.0,0.0,0.0,0.0,0.0,0.0,0.0,0.0,0.0,0.0,0.0,0.0,0.0,0.0,0.0,0.0,0.0,0.0,3.1572,3.1248,3.0949,3.0508,3.0011,2.9606,2.8887,0.0,0.0,0.0,0.0,0.0,0.0,0.0,0.0,0.0,0.0,0.0,0.0,0.0,0.0,0.0,0.0,0.0,0.0,0.0,0.0,0.0,0.0,0.0,0.0,0.0,0.0,0.0,0.0,0.0,0.0,0.0,0.0,0.0,0.0,0.0,0.0,0.0,0.0,0.0,0.0,0.0,0.0,0.0,0.0,0.0,0.0,0.0,0.0,0.9519,0.0,0.0,0.0,0.0,0.0,0.0,0.0,0.0,0.0,0.0,0.0,0.0,0.0,0.0,0.0,0.0,0.0,0.0,0.0,0.0,0.0,0.0,0.0,0.0,0.0,0.0,0.0,0.0,0.0,0.0,0.0,0.0,0.0,0.0,0.0,0.0,0.0,0.0,0.0,0.0,0.0,0.0,0.0,0.0,0.0,0.0,0.0,0.0,0.0,0.0,0.0,0.0,0.0,0.0,0.0,0.0,0.0,0.0,0.0,3.1224,3.0986,3.0533,3.0011,2.947,2.8547,2.7753,0.0,0.0,0.0,0.0,0.0,0.0,0.0,0.0,0.0,0.0,0.0,0.0,0.0,0.0,0.0,0.0,0.0,0.0,0.0,0.0,0.0,0.0,0.0,0.0,0.0,0.0,0.0,0.0,0.0,0.0,0.0,0.0,0.0,0.0,0.0,0.0,0.0,0.0,0.0,0.0,0.0,0.0,0.0,0.0,0.0,0.0,0.0,0.0,0.0,0.0,0.0,0.0,0.0,0.0,0.0,0.0,0.0,0.0,0.0,0.0,0.0,0.0,0.0,0.0,0.0,0.0,0.0,0.0,0.0,0.0,0.0,0.0,0.0,0.0,0.0,0.0,0.0,0.0,0.0,0.0,0.0,0.0,0.0,0.0,0.0,0.0,0.0,0.0,0.0,0.0,0.0,0.0,0.0,0.0,0.0,0.0,0.0,0.0,0.0,0.0,0.0,0.0,0.0,0.0,0.0,0.0,0.0,3.1112,3.0911,3.0798,3.0088,2.9457,2.8866,2.7481,2.6588,2.6316,0.0,0.0,0.0,0.0,0.0,0.0,0.0,0.0,0.0,0.0,0.0,0.0,0.0,0.0,0.0,0.0,0.0,0.0,0.0,0.0,0.0,0.0,0.0,0.0,0.0,0.0,0.0,0.0,0.0,0.0,0.0,0.0,0.0,0.0,0.0,0.0,0.0,0.0,1.0745,1.0342,0.0,0.0,0.0,0.0,0.0,0.0,0.0,0.0,0.9994,0.0,0.0,0.0,0.0,0.0,0.0,0.0,0.0,0.0,0.0,0.0,0.0,0.0,0.0,0.0,0.0,0.0,0.0,0.0,0.0,0.0,0.0,0.0,0.0,0.0,0.0,0.0,0.0,0.0,0.0,0.0,0.0,0.0,0.0,0.0,0.0,0.0,0.0,0.0,0.0,0.0,0.0,0.0,0.0,0.0,0.0,0.0,0.0,0.0,0.0,0.0,0.0,0.0,0.0,0.0,0.0,3.0596,3.0685,3.0508,3.0023,2.9495,2.8792,2.7929,2.66,2.5551,2.4808,0.0,0.0,0.0,0.0,0.0,0.0,0.0,0.0,0.0,0.0,0.0,0.0,0.0,0.0,0.0,0.0,0.0,0.0,0.0,0.0,0.0,0.0,0.0,0.0,0.0,0.0,0.0,0.0,0.0,0.0,0.0,0.0,0.0,0.0,0.0,0.0,0.0,0.0,0.0,1.0559,1.025,0.0,0.0,0.0,0.0,0.0,0.0,0.0,0.0,0.9907,0.0,0.0,0.0,0.0,0.0,0.0,0.0,0.0,0.0,0.0,0.0,0.0,0.0,0.0,0.0,0.0,0.0,0.0,0.0,0.0,0.0,0.0,0.0,0.0,0.0,0.0,0.0,0.0,0.0,0.0,0.0,0.0,0.0,0.0,0.0,0.0,0.0,0.0,0.0,0.0,0.0,0.0,0.0,0.0,0.0,0.0,0.0,0.0,0.0,0.0,0.0,0.0,0.0,0.0,0.0,3.0394,3.0495,3.0318,2.9792,2.9248,2.8509,2.7538,2.636,2.5249,0.0,0.0,0.0,0.0,0.0,0.0,0.0,0.0,0.0,0.0,0.0,0.0,0.0,0.0,0.0,0.0,0.0,0.0,0.0,0.0,0.0,0.0,0.0,0.0,0.0,0.0,0.0,0.0,0.0,0.0,0.0,0.0,0.0,0.0,0.0,0.0,0.0,0.0,0.0,0.0,1.0944,1.0684,1.0337,0.0,0.0,0.0,0.0,0.0,0.0,0.9994,0.9907,0.0,0.0,0.0,0.0,0.0,0.0,0.0,0.0,0.0,0.0,0.0,0.0,0.0,0.0,0.0,0.0,0.0,0.0,0.0,0.0,0.0,0.0,0.0,0.0,0.0,0.0,0.0,0.0,0.0,0.0,0.0,0.0,0.0,0.0,0.0,0.0,0.0,0.0,0.0,0.0,0.0,0.0,0.0,0.0,0.0,0.0,0.0,0.0,0.0,0.0,0.0,0.0,0.0,0.0,0.0,3.0305,3.0267,3.0075,2.9675,2.9013,2.8234,2.7367,2.6178,2.5095,0.0,0.0,0.0,0.0,0.0,0.0,0.0,0.0,0.0,0.0,0.0,0.0,0.0,0.0,0.0,0.0,0.0,0.0,0.0,0.0,0.0,0.0,0.0,0.0,0.0,0.0,0.0,0.0,0.0,0.0,0.0,0.0,0.0,0.0,0.0,0.0,0.0,0.0,0.0,0.0,0.0,1.1111,1.0598,1.0424,0.0,0.0,0.0,0.0,0.9994,0.9994,0.0,0.0,0.0,0.0,0.0,0.0,0.0,0.0,0.0,0.0,0.0,0.0,0.0,0.0,0.0,0.0,0.0,0.0,0.0,0.0,0.0,0.0,0.0,0.0,0.0,0.0,0.0,0.0,0.0,0.0,0.0,0.0,0.0,0.0,0.0,0.0,0.0,0.0,0.0,0.0,0.0,0.0,0.0,0.0,0.0,0.0,0.0,0.0,0.0,0.0,0.0,0.0,0.0,0.0,0.0,0.0,2.9869,2.9856,2.965,2.9182,2.8566,2.7917,2.716,2.584,2.477,0.0,0.0,0.0,0.0,0.0,0.0,0.0,0.0,0.0,0.0,0.0,0.0,0.0,0.0,0.0,0.0,0.0,0.0,0.0,0.0,0.0,0.0,0.0,0.0,0.0,0.0,0.0,0.0,0.0,0.0,0.0,0.0,0.0,0.0,0.0,0.0,0.0,0.0,0.0,0.0,0.0,1.1284,1.1198,1.0901,1.0554,0.0,0.0,1.0207,1.0038,0.9994,0.0,0.0,0.0,0.0,0.0,0.0,0.0,0.0,0.0,0.0,0.0,0.0,0.0,0.0,0.0,0.0,0.0,0.0,0.0,0.0,0.0,0.0,0.0,0.0,0.0,0.0,0.0,0.0,0.0,0.0,0.0,0.0,0.0,0.0,0.0,0.0,0.0,0.0,0.0,0.0,0.0,0.0,0.0,0.0,0.0,0.0,0.0,0.0,0.0,0.0,0.0,0.0,0.0,0.0,0.0,2.9998,2.9792,2.9779,2.9573,2.9091,2.8498,2.785,2.7121,2.58,2.4681,0.0,0.0,0.0,0.0,0.0,0.0,0.0,0.0,0.0,0.0,0.0,0.0,0.0,0.0,0.0,0.0,0.0,0.0,0.0,0.0,0.0,0.0,0.0,0.0,0.0,0.0,0.0,0.0,0.0,0.0,0.0,0.0,0.0,0.0,0.0,0.0,0.0,0.0,0.0,0.0,0.0,0.0,1.1327,1.1073,0.0,0.0,0.0,1.0516,1.0424,0.0,0.0,0.0,0.0,0.0,0.0,0.0,0.0,0.0,0.0,0.0,0.0,0.0,0.0,0.0,0.0,0.0,0.0,0.0,0.0,0.0,0.0,0.0,0.0,0.0,0.0,0.0,0.0,0.0,0.0,0.0,0.0,0.0,0.0,0.0,0.0,0.0,0.0,0.0,0.0,0.0,0.0,0.0,0.0,0.0,0.0,0.0,0.0,0.0,0.0,0.0,0.0,0.0,0.0,0.0,0.0,0.0,2.9792,2.9663,2.9456,2.9091,2.8459,2.7869,2.7281,2.5869,0.0,0.0,0.0,0.0,0.0,0.0,0.0,0.0,0.0,0.0,0.0,0.0,0.0,0.0,0.0,0.0,0.0,0.0,0.0,0.0,0.0,0.0,0.0,0.0,0.0,0.0,0.0,1.4208,0.0,0.0,0.0,0.0,0.0,0.0,0.0,0.0,0.0,0.0,0.0,0.0,0.0,0.0,1.1989,1.1628,1.1343,1.1089,0.0,0.0,1.0733,1.0733,1.0733,1.0603,0.0,0.0,0.0,0.0,0.0,0.0,0.0,0.0,0.0,0.0,0.0,0.0,0.0,0.0,0.0,0.0,0.0,0.0,0.0,0.0,0.0,0.0,0.0,0.0,0.0,0.0,0.0,0.0,0.0,0.0,0.0,0.0,0.0,0.0,0.0,0.0,0.0,0.0,0.0,0.0,0.0,0.0,0.0,0.0,0.0,0.0,0.0,0.0,0.0,0.0,0.0,0.0,0.0,0.0,0.0,2.9792,2.9378,2.9131,2.9052,2.8351,2.7909,2.781,2.6052,2.4904,0.0,0.0,0.0,0.0,0.0,0.0,0.0,0.0,0.0,0.0,0.0,0.0,0.0,0.0,0.0,0.0,0.0,0.0,0.0,0.0,0.0,0.0,0.0,0.0,0.0,0.0,0.0,0.0,0.0,0.0,0.0,0.0,0.0,0.0,0.0,0.0,0.0,0.0,0.0,0.0,0.0,1.2363,1.232,1.1946,1.1564,0.0,0.0,1.0916,1.0733,1.0733,1.0603,1.0337,0.0,0.0,0.0,0.0,0.0,0.0,0.0,0.0,0.0,0.0,0.0,0.0,0.0,0.0,0.0,0.0,0.0,0.0,0.0,0.0,0.0,0.0,0.0,0.0,0.0,0.0,0.0,0.0,0.0,0.0,0.0,0.0,0.0,0.0,0.0,0.0,0.0,0.0,0.0,0.0,0.0,0.0,0.0,0.0,0.0,0.0,0.0,0.0,0.0,0.0,0.0,0.0,0.0,2.9702,2.956,2.9248,2.8973,2.8709,2.8203,2.7841,2.7655,2.6291,2.5343,0.0,0.0,0.0,0.0,0.0,0.0,0.0,0.0,0.0,0.0,0.0,0.0,0.0,0.0,0.0,0.0,0.0,0.0,0.0,0.0,0.0,0.0,0.0,0.0,0.0,0.0,0.0,0.0,1.5068,1.5276,1.5673,0.0,0.0,0.0,0.0,0.0,0.0,0.0,0.0,0.0,0.0,1.2534,1.2406,1.2118,0.0,0.0,1.1564,1.1392,1.1348,1.117,1.1003,1.0781,1.0429,0.0,0.0,0.0,0.0,0.0,0.0,0.0,0.0,0.0,0.0,0.0,0.0,0.0,0.0,0.0,0.0,0.0,0.0,0.0,0.0,0.0,0.0,0.0,0.0,0.0,0.0,0.0,0.0,0.0,0.0,0.0,0.0,0.0,0.0,0.0,0.0,0.0,0.0,0.0,0.0,0.0,0.0,0.0,0.0,0.0,0.0,0.0,0.0,0.0,0.0,0.0,0.0,2.965,2.938,2.9197,2.8895,2.851,2.8122,2.78,2.751,2.6404,2.5621,0.0,0.0,0.0,0.0,0.0,0.0,0.0,0.0,0.0,0.0,0.0,0.0,0.0,0.0,0.0,0.0,0.0,0.0,0.0,0.0,0.0,0.0,0.0,0.0,0.0,0.0,0.0,0.0,1.5533,1.5816,1.617,0.0,0.0,0.0,0.0,0.0,0.0,0.0,0.0,0.0,0.0,1.2839,1.2625,1.2375,1.216,1.2123,1.1914,1.1785,1.1785,1.1656,1.1435,1.1127,0.0,0.0,0.0,0.0,0.0,0.0,0.0,0.0,0.0,0.0,0.0,0.0,0.0,0.0,0.0,0.0,0.0,0.0,0.0,0.0,0.0,0.0,0.0,0.0,0.0,0.0,0.0,0.0,0.0,0.0,1.9242,0.0,0.0,0.0,0.0,0.0,0.0,0.0,0.0,0.0,0.0,0.0,0.0,0.0,0.0,0.0,0.0,0.0,0.0,0.0,0.0,0.0,0.0,2.9663,2.938,2.9209,2.8895,2.8498,2.8082,2.776,2.747,2.6392,2.5632,2.5185,0.0,0.0,0.0,0.0,0.0,0.0,0.0,0.0,0.0,0.0,0.0,0.0,0.0,0.0,0.0,0.0,0.0,0.0,0.0,0.0,0.0,0.0,0.0,0.0,0.0,0.0,1.565,1.6105,1.6353,0.0,0.0,0.0,0.0,0.0,0.0,0.0,0.0,0.0,0.0,1.3695,1.3313,1.3143,1.2875,1.2619,1.2406,1.2166,1.2,1.2,1.1952,1.1817,0.0,0.0,0.0,0.0,0.0,0.0,0.0,0.0,0.0,0.0,0.0,0.0,0.0,0.0,0.0,0.0,0.0,0.0,0.0,0.0,0.0,0.0,0.0,0.0,0.0,0.0,0.0,1.828,1.8365,0.0,0.0,0.0,0.0,0.0,0.0,0.0,0.0,0.0,0.0,0.0,2.1633,2.2344,0.0,0.0,0.0,0.0,0.0,0.0,0.0,0.0,0.0,0.0,0.0,0.0,2.926,2.9,2.8922,2.8657,2.8122,2.7962,2.7719,2.729,2.668,2.5892,2.5008,0.0,0.0,0.0,0.0,0.0,0.0,0.0,0.0,0.0,0.0,0.0,0.0,0.0,0.0,0.0,0.0,0.0,0.0,0.0,0.0,0.0,0.0,0.0,0.0,0.0,1.5741,0.0,0.0,0.0,0.0,0.0,0.0,0.0,0.0,0.0,0.0,0.0,1.4741,1.4166,1.3955,1.3737,1.3355,1.3222,1.3094,0.0,0.0,0.0,0.0,0.0,0.0,0.0,0.0,0.0,0.0,0.0,0.0,0.0,0.0,0.214,0.141,0.0363,-0.0669,-0.1546,0.0,0.0,0.0,0.0,0.0,0.0,0.0,0.0,0.0,0.0,0.0,0.0,0.0,0.0,1.7846,0.0,1.8234,0.0,0.0,0.0,0.0,0.0,0.0,0.0,0.0,1.992,2.0456,2.1132,2.1758,2.2476,0.0,2.4079,2.484,0.0,0.0,0.0,0.0,0.0,0.0,0.0,0.0,2.8922,2.8803,2.8803,2.8498,2.7921,2.7881,2.769,2.7231,2.6727,2.5957,2.4946,2.3762,2.2619,0.0,0.0,0.0,0.0,0.0,0.0,0.0,0.0,0.0,0.0,0.0,0.0,0.0,0.0,0.0,0.0,0.0,0.0,0.0,0.0,0.0,0.0,0.0,1.6079,0.0,0.0,0.0,0.0,0.0,0.0,0.0,0.0,0.0,1.585,1.556,1.5193,1.4615,1.4419,1.4166,1.3695,0.0,0.0,0.0,0.0,0.0,0.0,0.0,1.1817,1.137,1.0809,0.9918,0.8455,0.6503,0.4683,0.3499,0.0,0.0,0.1025,0.008,-0.0866,-0.1744,-0.2561,-0.3366,-0.4307,-0.516,-0.597,0.0,0.0,0.0,0.0,0.0,0.0,0.0,0.0,1.7192,1.7434,0.0,1.7908,0.0,0.0,0.0,0.0,0.0,1.845,0.0,0.0,1.9417,1.9903,2.0546,2.1087,2.1713,2.2344,2.3071,2.38,2.4488,2.6041,0.0,0.0,0.0,0.0,0.0,0.0,2.8764,2.8752,2.8752,2.8498,2.7921,2.7893,2.765,2.719,2.658,2.581,2.4946,2.4003,2.3081,2.2138,2.0943,0.0,0.0,0.0,0.0,0.0,0.0,0.0,0.0,0.0,0.0,0.0,0.0,0.0,0.0,0.0,0.0,0.0,0.0,0.0,0.0,1.5839,0.0,0.0,0.0,0.0,0.0,0.0,0.0,0.0,0.0,0.0,1.6435,1.5809,1.5436,1.5394,0.0,0.0,0.0,0.0,1.387,1.3185,1.31,1.2924,1.2491,1.2369,1.2095,1.1354,0.0,0.0,0.735,0.5689,0.4288,0.3174,0.2066,0.1225,0.075,-0.0081,-0.0949,-0.1813,-0.2623,-0.3487,-0.4504,-0.5395,-0.6286,1.4914,0.0,0.0,0.0,0.0,1.592,1.6211,1.6433,1.6473,1.6669,1.6918,1.7207,0.0,0.0,0.0,0.0,0.0,0.0,1.7699,1.7885,1.8311,1.8719,1.9072,1.9894,2.061,2.1141,2.1872,2.257,2.3217,2.3986,2.5189,2.6682,0.0,0.0,0.0,0.0,2.7874,2.7886,2.807,2.799,2.7615,2.7615,2.7412,2.7015,2.6644,2.6041,2.5158,2.4209,2.3202,2.2148,2.0961,0.0,0.0,0.0,0.0,0.0,0.0,0.0,0.0,0.0,0.0,0.0,0.0,0.0,0.0,0.0,0.0,0.0,0.0,0.0,1.5839,1.6154,1.6476,0.0,0.0,0.0,0.0,0.0,0.0,0.0,0.0,0.0,1.6435,1.6113,1.5782,0.0,0.0,1.4831,1.4363,1.4321,1.4068,1.3398,0.0,0.0,0.0,1.2106,1.1616,1.0773,0.926,0.7602,0.6049,0.4769,0.3622,0.2426,0.1465,0.0636,-0.012,-0.0911,-0.1769,-0.2606,-0.342,-0.4302,-0.516,-0.6012,-0.6861,1.3913,1.4508,1.4819,1.501,1.5159,1.5302,1.5493,1.5778,1.5866,1.5954,1.615,1.6494,1.6683,1.6683,1.6911,0.0,0.0,0.0,1.7099,1.7192,1.7535,1.7807,1.8156,1.8742,1.933,1.9877,2.0421,2.1087,2.1889,2.2233,2.3284,2.4851,0.0,0.0,2.6693,2.6816,2.6992,2.7237,2.7493,2.7522,2.74,2.7371,2.7208,2.6891,2.6674,2.6166,2.5242,2.4231,2.3149,2.1961,2.0718,1.9592,0.0,0.0,0.0,0.0,0.0,0.0,0.0,0.0,0.0,0.0,0.0,1.5492,1.5486,0.0,0.0,0.0,1.542,1.5548,1.5914,1.6031,0.0,0.0,0.0,0.0,0.0,0.0,0.0,1.6845,1.6689,1.6525,1.6278,1.6072,1.5824,1.556,1.5374,1.5048,1.4566,0.0,1.4188,1.3525,1.3222,1.2838,1.2143,1.1617,1.09,0.9679,0.7983,0.6417,0.5364,0.4228,0.3107,0.2007,0.1059,0.0196,-0.0707,-0.1569,-0.2313,-0.2976,-0.3798,-0.4654,-0.5544,-0.6402,-0.7292,1.3249,1.3497,1.3968,1.4346,1.4592,1.4592,1.479,1.5077,1.5255,1.5343,1.5432,1.5859,1.615,1.6143,1.6393,0.0,1.6494,1.6494,1.6595,1.6831,1.6885,1.7106,1.7505,1.7552,1.7963,1.8657,1.8918,1.9513,2.0367,2.0683,2.1275,2.2173,2.3651,2.4829,2.5642,2.5726,2.6071,2.6727,2.6981,2.7103,2.7185,2.7208,2.7108,2.6891,2.6685,2.6135,2.5189,2.4059,2.2877,2.165,2.0311,1.9234,1.8442,0.0,0.0,0.0,0.0,0.0,0.0,0.0,0.0,0.0,0.0,0.0,0.0,0.0,0.0,0.0,1.5579,0.0,1.5658,1.565,0.0,0.0,0.0,1.6386,1.6566,1.6607,1.6525,1.6353,0.0,0.0,1.6046,0.0,1.5609,1.5609,1.5499,1.5215,1.4783,1.449,1.4105,1.3425,1.2947,1.2343,1.1494,1.0851,0.9927,0.8349,0.6994,0.5888,0.5036,0.3895,0.2746,0.1764,0.0863,-0.0039,-0.11,-0.1923,-0.2627,-0.3093,-0.3876,-0.4771,-0.5741,-0.6598,-0.7484,1.291,1.2958,1.3098,1.3389,1.3781,1.3781,1.4064,1.449,1.4538,1.4825,1.5172,1.5315,1.5363,1.5363,1.541,1.5458,1.5458,1.5458,1.5512,1.5553,1.573,1.5866,1.5954,1.6372,1.6756,1.7138,1.7552,1.8056,1.8688,1.8926,1.9422,2.0204,2.0773,2.2057,2.4006,2.4392,2.4776,2.5306,2.5893,2.6445,2.6962,2.7108,2.7108,2.6891,2.6498,2.5779,2.4712,2.3704,2.2482,2.0943,1.9866,1.8858,1.7924,1.7387,0.0,0.0,0.0,0.0,0.0,0.0,0.0,0.0,0.0,1.6689,1.6664,0.0,1.6075,0.0,1.536,1.5215,1.5257,1.536,0.0,0.0,1.5643,1.5643,1.5684,1.5733,1.5684,1.5643,1.5484,1.5382,1.534,1.5117,1.4943,1.4943,1.5075,1.5041,1.4734,1.42,1.3645,1.2978,1.2464,1.1851,1.0928,0.9792,0.8591,0.758,0.636,0.5246,0.4457,0.342,0.2353,0.1531,0.0667,-0.0236,-0.114,-0.1962,-0.2746,-0.3487,-0.4304,-0.5118,-0.597,-0.6826,-0.7676,1.2807,1.2807,1.2807,1.2958,1.3206,1.3298,1.3539,1.3919,1.3968,1.416,1.4556,1.479,1.4981,1.5083,1.5131,1.5131,1.5131,1.5131,1.5131,1.5131,1.5213,1.5255,1.5255,1.5588,1.5825,1.6055,1.6339,1.6709,1.7257,1.7505,1.7849,1.8345,1.871,1.9594,2.1023,2.2457,2.3477,2.4059,2.5041,2.5904,2.6539,2.6715,2.6715,2.6592,2.6124,2.539,2.437,2.3226,2.1952,2.0546,1.9317,1.8311,1.7412,1.6817,1.6353,0.0,0.0,0.0,0.0,0.0,0.0,0.0,0.0,0.0,0.0,0.0,1.5871,0.0,1.4972,1.4783,1.4783,1.4824,1.4866,1.4936,1.4929,1.4985,1.5068,1.511,1.5103,1.5068,1.4992,1.4915,1.4908,1.4776,1.4643,1.4559,1.4586,1.4538,1.4255,1.373,1.3111,1.2503,1.1902,1.1118,1.0058,0.8818,0.7704,0.6877,0.5869,0.489,0.4109,0.3175,0.2237,0.1414,0.0589,-0.0275,-0.114,-0.1962,-0.2784,-0.3643,-0.4421,-0.5234,-0.6047,-0.6903,-0.7748,1.2856,1.2807,1.2824,1.2807,1.2813,1.3001,1.3201,1.3443,1.3443,1.3588,1.3883,1.4358,1.4694,1.4892,1.4892,1.4885,1.4885,1.4939,1.4939,1.4939,1.4987,1.4987,1.4987,1.4981,1.5118,1.5289,1.5296,1.5581,1.6055,1.6298,1.6474,1.6682,1.713,1.7444,1.77,2.021,2.2007,2.293,2.4277,2.5294,2.5977,2.6019,2.606,2.5977,2.5569,2.4861,2.3849,2.2528,2.1257,2.0025,1.8656,1.7561,1.6897,1.6103,1.552,0.0,1.5061,0.0,0.0,0.0,0.0,0.0,0.0,0.0,0.0,1.5701,1.5233,1.4614,1.4398,1.4272,1.4272,1.4117,1.4075,1.423,1.4265,1.4356,1.4524,1.4566,1.4566,1.4608,1.4608,1.4608,1.4615,1.4615,1.4504,1.424,1.3967,1.3757,1.3494,1.3087,1.262,1.1997,1.1244,1.0264,0.908,0.8091,0.7261,0.6363,0.555,0.4732,0.396,0.3098,0.2237,0.1453,0.0589,-0.0275,-0.114,-0.1962,-0.2784,-0.3647,-0.446,-0.5234,-0.6047,-0.6899,-0.7748,1.3044,1.3023,1.2889,1.2807,1.2813,1.2861,1.2953,1.3195,1.3195,1.3298,1.3588,1.3684,1.3732,1.3781,1.3781,1.3786,1.3829,1.4027,1.4124,1.4124,1.4352,1.4448,1.4448,1.4442,1.4592,1.4831,1.4825,1.4975,1.5315,1.5363,1.5402,1.5444,1.589,1.6147,1.6212,0.0,0.0,0.0,2.3056,2.3989,2.4776,2.5189,2.5232,2.4829,2.4584,0.0,2.2074,2.1243,2.0016,1.842,1.7379,0.0,0.0,0.0,0.0,0.0,0.0,0.0,0.0,0.0,0.0,0.0,1.4072,1.4449,1.5152,1.4763,1.4326,1.3939,1.3688,1.3603,1.3603,1.3561,1.3568,1.3561,1.3603,1.3646,1.3864,1.3899,1.3942,1.4166,1.4208,1.4208,1.425,1.4208,1.4094,1.379,1.336,1.2962,1.2538,1.2421,1.2112,1.1465,1.0434,0.9414,0.8616,0.7932,0.7207,0.6356,0.5544,0.4735,0.3958,0.3096,0.2237,0.1453,0.0589,-0.0275,-0.114,-0.1923,-0.2785,-0.3604,-0.4462,-0.5237,-0.6047,-0.6899,-0.7748,1.3217,0.0,1.298,1.2916,0.0,1.2807,1.2861,1.2953,1.2958,1.305,1.3292,1.3443,1.3497,1.3497,1.3497,1.3497,1.3497,1.3642,1.3786,1.3883,1.4022,1.416,1.4298,1.4298,1.4394,1.449,1.449,1.4544,1.4694,1.4831,1.4772,1.4506,1.4995,1.5129,1.4971,1.6063,1.7997,2.0744,2.1717,2.2526,2.3212,2.3733,2.3786,2.336,0.0,0.0,0.0,0.0,0.0,0.0,0.0,0.0,0.0,0.0,0.0,1.3586,1.3344,1.3187,1.3195,1.3093,1.3034,1.3007,1.2877,1.3208,1.4179,1.3897,1.3636,1.3538,1.3398,1.3264,1.327,1.3137,1.3137,1.3228,1.327,1.3355,1.3652,1.3688,1.3822,1.4046,1.4088,1.4088,1.4088,1.4088,1.3901,1.3467,1.3107,1.2654,1.2069,1.186,1.155,1.0745,0.9899,0.9061,0.8369,0.7829,0.7211,0.6356,0.5544,0.4732,0.3919,0.3059,0.2237,0.1414,0.0589,-0.0275,-0.1139,-0.1961,-0.2785,-0.3645,-0.446,-0.5234,-0.6047,-0.6899,-0.771,1.3416,1.3227,1.319,1.3039,1.2867,1.2867,1.2851,1.2807,0.0,0.0,0.0,1.3298,1.3346,1.34,1.3394,1.3394,1.3394,1.3394,1.3539,1.3738,1.3786,1.3973,1.4208,1.425,1.4256,1.4298,1.4298,1.4298,1.4298,1.4544,1.4399,1.3994,1.4308,1.4348,1.4171,1.4992,1.6575,1.8752,2.0029,2.0854,2.1356,2.191,2.2015,2.1641,2.1228,2.0522,1.9415,1.8435,1.74,1.6491,1.5529,1.4667,1.3902,1.3513,1.3132,1.2632,1.2354,1.2286,1.2423,1.2287,1.2159,1.2142,1.1989,1.2253,1.3156,1.301,1.2966,1.3222,1.31,1.2966,1.3009,1.2839,1.279,1.3009,1.3052,1.3179,1.3525,1.3646,1.3737,1.3997,1.4088,1.4088,1.4088,1.4088,1.3895,1.334,1.3021,1.2524,1.1746,1.1353,1.0948,1.0127,0.9592,0.9018,0.8298,0.7795,0.7173,0.6356,0.5544,0.4732,0.3917,0.3098,0.2237,0.1454,0.0589,-0.0275,-0.1139,-0.1961,-0.2785,-0.3643,-0.4462,-0.5237,-0.6051,-0.6903,-0.771,1.3744,1.3701,1.3507,1.3287,1.3055,1.3055,1.2942,1.2813,1.2807,1.2813,1.2861,1.291,1.291,1.2905,1.291,1.2905,1.291,1.3098,1.3195,0.0,1.3443,1.3684,1.3925,1.3979,1.4064,1.4298,1.4298,1.4298,1.4298,1.4346,1.4189,1.395,1.3954,1.4008,1.4135,1.4405,1.4943,1.5757,1.7543,1.8718,1.9316,1.9634,1.9634,1.9367,1.9325,1.8675,1.7445,1.6869,1.6107,1.5115,1.4163,1.366,1.3586,1.282,1.219,1.1858,1.1434,1.1127,1.1014,1.095,1.1032,1.1191,1.1327,1.1624,1.2132,1.2189,1.2246,1.2491,1.2528,1.2577,1.2705,1.2747,1.2705,1.2747,1.2747,1.2881,1.3185,1.3349,1.3525,1.3737,1.3948,1.4082,1.4046,1.4088,1.3878,1.3341,1.2874,1.2238,1.1286,1.0738,1.0438,0.9992,0.9544,0.898,0.8255,0.7753,0.7173,0.636,0.5506,0.473,0.3958,0.3059,0.2237,0.1453,0.0589,-0.0275,-0.114,-0.1962,-0.2784,-0.3606,-0.4462,-0.5234,-0.6047,-0.6899,-0.7787,1.3943,1.3814,1.3706,1.3523,1.3297,1.3163,1.2974,1.2818,1.2807,1.2807,1.2807,1.2807,1.2807,1.2807,1.2807,1.2807,1.2807,1.2905,1.3001,1.3098,1.3201,1.3443,1.369,1.3835,1.3979,1.407,1.4208,1.4298,1.4298,1.4298,1.4159,1.3894,1.3773,1.3623,1.36,1.3857,1.411,1.437,1.6132,1.7225,1.7488,1.7946,1.7997,1.7648,1.7547,1.6997,1.6,1.5522,1.4852,1.387,1.3311,1.2859,1.2601,1.1976,1.1568,1.1301,1.0891,1.0665,1.0694,1.0781,1.0916,1.1008,1.1181,1.1397,1.1613,1.1742,1.1995,1.2363,1.24,1.2491,1.2662,1.2705,1.2705,1.2705,1.2705,1.279,1.3058,1.3185,1.3313,1.3525,1.3652,1.3695,1.3701,1.3695,1.3591,1.3175,1.2595,1.1852,1.1097,1.0718,1.0331,0.9803,0.9468,0.898,0.8255,0.7753,0.7173,0.636,0.5544,0.4732,0.3919,0.3096,0.2237,0.1453,0.0589,-0.0275,-0.114,-0.1923,-0.2784,-0.3606,-0.446,-0.5234,-0.6047,-0.7207,-0.836,1.4083,1.3906,1.3906,1.3771,1.354,1.3297,1.306,1.2845,1.284,1.2862,1.2813,1.2807,1.2807,1.2807,1.2807,1.2807,1.2807,1.2807,1.2905,1.3001,1.305,1.3152,1.3389,1.3636,1.3738,1.3835,1.4016,1.4154,1.4208,1.4202,1.4118,1.3882,1.3654,1.3373,1.3194,1.3423,1.3603,1.3708,1.4958,1.5675,1.581,1.626,1.6354,1.6052,1.5895,1.5474,1.4824,1.4398,1.3808,1.3003,1.2662,1.2289,1.1742,1.1381,1.1073,1.0916,1.0477,1.0337,1.0511,1.0781,1.0916,1.0916,1.1132,1.1311,1.1311,1.1483,1.178,1.2198,1.2277,1.2406,1.2662,1.2705,1.2705,1.2705,1.2705,1.2796,1.2966,1.3052,1.3137,1.3313,1.3355,1.3398,1.3398,1.3398,1.3283,1.2943,1.2277,1.1697,1.1196,1.0762,1.0269,0.9706,0.9392,0.898,0.8255,0.7753,0.7173,0.6356,0.5544,0.4732,0.3919,0.3098,0.2237,0.1453,0.0589,-0.0275,-0.1139,-0.1962,-0.2785,-0.3645,-0.4423,-0.5315,-0.6395,-0.7629,-0.8894,1.418,1.4164,1.4148,1.4013,1.376,1.3534,1.3303,1.3087,1.3077,1.2953,1.2835,1.2813,1.2818,1.2807,1.2807,1.2807,1.2807,1.2807,1.2813,1.2856,1.2813,1.2958,1.3147,1.3147,1.3298,1.3539,1.3588,1.3732,1.3931,1.3925,1.3886,1.3859,1.3616,1.3473,1.3423,1.3268,1.3228,1.3398,1.3587,1.389,1.4264,1.4326,1.434,1.434,1.434,1.4151,1.3857,1.3603,1.3264,1.2747,1.2289,1.1957,1.1656,1.1079,1.0776,1.0733,1.0299,1.0038,1.0081,1.0472,1.0733,1.0684,1.1041,1.1311,1.1311,1.1311,1.1521,1.1909,1.2037,1.2246,1.2662,1.2705,1.2705,1.2705,1.2705,1.2705,1.279,1.2966,1.31,1.31,1.3264,1.3398,1.3355,1.3355,1.3206,1.2771,1.2287,1.1699,1.114,1.0774,1.0285,0.9621,0.9289,0.8951,0.8255,0.7753,0.7134,0.6318,0.5506,0.4732,0.3917,0.3098,0.2237,0.1413,0.0589,-0.0275,-0.11,-0.1962,-0.2784,-0.3645,-0.454,-0.5509,-0.698,-0.8055,-0.8932,1.4196,1.4196,1.4196,1.4051,1.3814,1.3717,1.3545,1.3335,1.3324,1.319,1.2985,1.2964,1.2937,1.2813,1.2807,1.2807,1.2807,1.2807,1.2807,1.2807,1.2807,1.2861,1.2953,1.305,1.3152,1.3298,1.3443,1.3539,1.3636,1.3636,1.3605,1.345,1.3316,1.3122,1.2868,1.2875,1.2874,1.2802,1.2918,1.3088,1.3252,1.3555,1.3688,1.3695,1.3701,1.3476,1.313,1.3009,1.2711,1.216,1.1909,1.1699,1.1483,1.0997,1.0733,1.0684,1.0255,0.9994,0.9994,1.0424,1.0684,1.0641,1.1041,1.1311,1.1311,1.1311,1.144,1.1742,1.1914,1.216,1.2454,1.2619,1.2705,1.2705,1.2705,1.2705,1.2705,1.279,1.2881,1.2875,1.2918,1.3009,1.296,1.296,1.2832,1.2536,1.2224,1.1758,1.1242,1.0825,1.0316,0.9691,0.9325,0.8841,0.8209,0.7638,0.7019,0.6318,0.5544,0.473,0.3917,0.3096,0.2237,0.1452,0.0589,-0.0275,-0.114,-0.1962,-0.2784,-0.3722,-0.4965,-0.6086,-0.7284,-0.8131,-0.8894,1.4196,1.4196,1.4196,1.4089,1.3927,1.3922,1.3787,1.3583,1.3572,1.3437,1.3217,1.3206,1.3082,1.2921,1.2845,1.2807,1.2807,1.2807,1.2807,1.2807,1.2807,1.2807,1.2813,1.2958,1.3001,1.3055,1.3201,1.3298,1.3394,1.3491,1.3394,1.3218,1.3133,1.2922,1.2637,1.2634,1.2537,1.24,1.2453,1.2497,1.254,1.2839,1.3058,1.3137,1.3052,1.2845,1.254,1.2497,1.224,1.1742,1.1699,1.157,1.1305,1.0954,1.0733,1.0554,1.0207,1.0038,1.0081,1.0472,1.0733,1.0824,1.1127,1.1311,1.1311,1.1311,1.1397,1.157,1.1785,1.2037,1.2363,1.2534,1.2613,1.2705,1.2705,1.2705,1.2705,1.2705,1.2705,1.2705,1.2747,1.2662,1.2619,1.2619,1.2522,1.2334,1.2078,1.1796,1.1363,1.0903,1.04,0.9866,0.9349,0.8755,0.8202,0.7603,0.6942,0.6282,0.5544,0.4732,0.3917,0.3057,0.2237,0.1414,0.0589,-0.0275,-0.1139,-0.1962,-0.294,-0.3992,-0.5196,-0.6398,-0.7326,-0.8131,-0.8856,1.4196,1.4196,1.4196,1.418,1.4175,1.4169,1.4035,1.3809,1.3803,1.3674,1.348,1.3464,1.3324,1.3082,1.2899,1.2818,1.2807,1.2807,1.2807,1.2807,1.2807,1.2807,1.2807,1.2807,1.2807,1.2807,1.2861,1.2958,1.3147,1.3346,1.3485,1.3457,1.3182,1.3093,1.2927,1.2615,1.2414,1.2357,1.2212,1.2049,1.2037,1.2086,1.2203,1.2406,1.2203,1.2123,1.2043,1.2043,1.1909,1.1699,1.1656,1.157,1.1311,1.1094,1.0781,1.0386,1.0168,1.0081,1.0294,1.0554,1.0781,1.0959,1.1181,1.1311,1.1311,1.1311,1.1311,1.1311,1.157,1.1866,1.224,1.2363,1.2448,1.2619,1.2662,1.2662,1.2662,1.2625,1.2705,1.2662,1.2619,1.2577,1.2406,1.24,1.2283,1.208,1.1849,1.1599,1.1321,1.0899,1.045,0.9963,0.9416,0.8779,0.8168,0.7533,0.6933,0.6264,0.55,0.4735,0.3917,0.3057,0.2237,0.1414,0.055,-0.0275,-0.1139,-0.2118,-0.3251,-0.4341,-0.5389,-0.6475,-0.7326,-0.8131,-0.8818,1.4196,1.4196,1.4196,1.4196,1.4196,1.4196,1.4143,1.4067,1.4062,1.3922,1.3723,1.3696,1.3561,1.334,1.326,1.3105,1.2829,1.2807,1.2807,1.2807,1.2807,1.2807,1.2807,1.2807,1.2807,1.2807,1.2807,1.2861,1.2905,1.3007,1.305,1.3044,1.2962,1.2846,1.2681,1.2666,1.2472,1.2165,1.218,1.216,1.2017,1.1871,1.1871,1.1952,1.1995,1.1957,1.1828,1.1828,1.1699,1.144,1.144,1.1397,1.1305,1.1094,1.0786,1.0386,1.0381,1.0424,1.0337,1.0651,1.0916,1.1008,1.1181,1.1311,1.1311,1.1311,1.1311,1.1311,1.1354,1.1607,1.1866,1.2075,1.216,1.2246,1.2246,1.2289,1.2246,1.2252,1.2246,1.2246,1.2252,1.2209,1.216,1.216,1.2032,1.1823,1.1742,1.152,1.1166,1.0829,1.0434,0.9843,0.9313,0.8765,0.8116,0.7406,0.6713,0.6166,0.548,0.4648,0.3849,0.3028,0.2206,0.1341,0.0512,-0.0432,-0.1335,-0.2549,-0.3641,-0.4574,-0.5622,-0.6475,-0.7326,-0.8131,-0.878,1.4196,1.4196,1.4196,1.4196,1.4196,1.4196,1.4196,1.4196,1.4191,1.4099,1.3959,1.3938,1.3809,1.3615,1.3588,1.3378,1.3056,1.2915,1.2883,1.2818,1.2807,1.2807,1.2807,1.2807,1.2807,1.2807,1.2807,1.2807,1.2807,1.2807,1.2807,1.2807,1.2807,1.2737,1.2591,1.2641,1.2469,1.224,1.226,1.2193,1.1936,1.1772,1.1646,1.1581,1.1699,1.1699,1.157,1.157,1.1483,1.1354,1.1311,1.1311,1.1267,1.1094,1.0873,1.0608,1.0646,1.0646,1.0559,1.0829,1.1008,1.1094,1.1224,1.1311,1.1311,1.1311,1.1311,1.1311,1.1311,1.1397,1.1527,1.1699,1.1828,1.1957,1.2,1.2,1.2,1.2,1.2,1.2037,1.2043,1.2,1.1914,1.1914,1.1785,1.1527,1.1483,1.1311,1.0959,1.0641,1.0346,0.9776,0.9231,0.8709,0.806,0.7356,0.6641,0.6062,0.5327,0.4536,0.3742,0.2943,0.2104,0.1269,0.0356,-0.059,-0.1687,-0.2901,-0.3915,-0.4807,-0.5661,-0.6472,-0.7322,-0.8131,-0.8742,1.4196,1.4196,1.4196,1.4196,1.4191,1.4137,1.4191,1.4137,1.4191,1.4126,1.4089,1.4175,1.4029,1.3863,1.383,1.3685,1.3443,1.3238,1.3017,1.2862,1.2845,1.2829,1.2807,1.2807,1.2807,1.2807,1.2807,1.2807,1.2807,1.2807,1.2807,1.2807,1.2807,1.2797,1.2802,1.2597,1.2425,1.237,1.2243,1.2031,1.1731,1.1743,1.1602,1.1402,1.1375,1.137,1.1311,1.1305,1.1354,1.1311,1.1311,1.1311,1.1267,1.1138,1.1013,1.0921,1.0824,1.0824,1.0921,1.1008,1.1094,1.1224,1.1311,1.1311,1.1311,1.1311,1.1311,1.1311,1.1311,1.1311,1.1311,1.1354,1.1521,1.1914,1.1909,1.1914,1.1952,1.1957,1.1957,1.1914,1.1909,1.1866,1.1742,1.1607,1.144,1.1138,1.1051,1.0965,1.0694,1.0342,1.0081,0.9763,0.92,0.8541,0.7954,0.7357,0.6655,0.5993,0.5186,0.4389,0.3537,0.2706,0.1872,0.0974,-0.016,-0.1113,-0.2139,-0.3281,-0.3997,-0.4888,-0.5661,-0.6472,-0.7284,-0.8093,-0.867,1.4196,1.4196,1.4196,1.4196,1.4142,1.3975,1.3867,1.3862,1.3867,1.3862,1.3916,1.4083,1.4143,1.4094,1.4078,1.3943,1.3717,1.3615,1.3389,1.3055,1.3001,1.2915,1.2845,1.2813,1.2807,1.2807,1.2807,1.2807,1.2807,1.2807,1.2807,1.2807,1.2807,1.2807,1.2807,1.2732,1.2587,1.242,1.2344,1.2183,1.2008,1.1986,1.1873,1.1623,1.1591,1.1477,1.1321,1.1311,1.1311,1.1311,1.1311,1.1311,1.1267,1.1219,1.1132,1.1056,1.1089,1.1046,1.1008,1.1138,1.1219,1.1267,1.1311,1.1311,1.1311,1.1311,1.1311,1.1311,1.1311,1.1311,1.1311,1.1311,1.1348,1.1483,1.1521,1.1527,1.1521,1.1521,1.1527,1.1483,1.1397,1.1311,1.1224,1.1132,1.0997,1.0819,1.0781,1.0646,1.0299,1.0081,0.9733,0.9301,0.8771,0.8328,0.772,0.7085,0.6449,0.5746,0.4969,0.4217,0.3387,0.2477,0.1627,0.0495,-0.065,-0.1648,-0.2683,-0.3461,-0.4184,-0.4893,-0.5661,-0.6475,-0.7326,-0.8021,-0.8632,1.4196,1.4196,1.4083,1.4029,1.3975,1.3699,1.3532,1.3537,1.3586,1.3532,1.3586,1.3753,1.3867,1.3867,1.3975,1.3944,1.3752,1.3906,1.3744,1.3394,1.3265,1.3157,1.3067,1.2926,1.2883,1.2824,1.2807,1.2807,1.2807,1.2807,1.2807,1.2807,1.2807,1.2807,1.2807,1.2807,1.2726,1.256,1.2544,1.2472,1.2283,1.2229,1.207,1.1865,1.1828,1.1709,1.1461,1.1439,1.1396,1.1327,1.1311,1.1311,1.1311,1.1311,1.1267,1.1181,1.1224,1.1224,1.1138,1.1219,1.1311,1.1311,1.1311,1.1311,1.1311,1.1311,1.1311,1.1311,1.1224,1.1181,1.1181,1.1084,1.1084,1.1084,1.1219,1.1267,1.1219,1.1127,1.1084,1.1041,1.0954,1.0916,1.0868,1.0824,1.0641,1.0598,1.0467,1.0342,0.9946,0.9689,0.9253,0.8863,0.8512,0.8025,0.7448,0.6827,0.621,0.5484,0.4773,0.4011,0.3213,0.2273,0.1361,-0.0084,-0.1322,-0.2122,-0.3086,-0.3656,-0.4302,-0.5017,-0.5715,-0.6475,-0.7288,-0.7978,-0.8594,1.4137,1.4083,1.3807,1.3699,1.3645,1.3369,1.3261,1.3261,1.3261,1.3261,1.3315,1.3374,1.3374,1.3374,1.3586,1.3678,1.3689,1.3889,1.388,1.3704,1.3585,1.3456,1.3434,1.3206,1.3023,1.2834,1.2807,1.2786,1.2813,1.2807,1.2807,1.2807,1.2807,1.2807,1.2807,1.2807,1.2802,1.278,1.2786,1.2678,1.2441,1.2431,1.2312,1.2132,1.211,1.2002,1.1758,1.1715,1.1557,1.1354,1.1311,1.1311,1.1311,1.1311,1.1311,1.1267,1.1311,1.1311,1.1267,1.1262,1.1267,1.1262,1.1219,1.1267,1.1219,1.1176,1.1176,1.1181,1.1046,1.0965,1.0959,1.0868,1.0771,1.0733,1.0997,1.1132,1.1008,1.0824,1.0776,1.0727,1.0684,1.0689,1.0646,1.0598,1.0424,1.0294,1.0077,0.982,0.9559,0.9253,0.8859,0.8508,0.816,0.7676,0.7143,0.6517,0.5899,0.522,0.4475,0.3717,0.2874,0.1881,0.0825,-0.06,-0.177,-0.2582,-0.334,-0.3891,-0.4518,-0.517,-0.5875,-0.6574,-0.7249,-0.7902,-0.8556,1.3699,1.3537,1.3428,1.3428,1.3369,1.3152,1.2989,1.2989,1.2985,1.2989,1.3044,1.3207,1.3266,1.332,1.3369,1.3423,1.3428,1.3537,1.3521,1.3444,1.3607,1.3572,1.3534,1.3416,1.3254,1.305,1.3017,1.2926,1.2824,1.2829,1.2824,1.2807,1.2818,1.2807,1.2807,1.2807,1.2807,1.2807,1.2807,1.2791,1.2684,1.2657,1.2554,1.2344,1.2318,1.2194,1.2029,1.2002,1.1758,1.1348,1.1311,1.1311,1.1311,1.1311,1.1311,1.1311,1.1311,1.1311,1.1267,1.1132,1.1094,1.1051,1.0954,1.0862,1.0862,1.0868,1.0862,1.0868,1.0824,1.0776,1.0776,1.0733,1.0684,1.0733,1.0776,1.0824,1.0781,1.0733,1.0733,1.0684,1.0511,1.0424,1.0294,1.012,0.9903,0.9777,0.965,0.9432,0.917,0.8903,0.8552,0.8153,0.7804,0.7323,0.6833,0.621,0.5589,0.4924,0.4156,0.3395,0.241,0.1334,0.0177,-0.1149,-0.1995,-0.2821,-0.3525,-0.4179,-0.4792,-0.5368,-0.5958,-0.6606,-0.7211,-0.791,-0.8479,1.3423,1.332,1.3152,1.3152,1.3098,1.2822,1.2713,1.2663,1.2713,1.2718,1.2718,1.2881,1.293,1.293,1.3044,1.3152,1.3152,1.3261,1.332,1.3315,1.3462,1.3534,1.3591,1.362,1.3497,1.3287,1.3265,1.3195,1.3071,1.2964,1.291,1.2888,1.2862,1.2813,1.2807,1.2807,1.2807,1.2807,1.2807,1.2807,1.2807,1.2807,1.2753,1.2576,1.2554,1.2447,1.2231,1.2148,1.191,1.158,1.1494,1.1413,1.1316,1.1311,1.1311,1.1311,1.1224,1.1176,1.1138,1.0959,1.0873,1.0873,1.0733,1.0733,1.0733,1.0733,1.0733,1.0733,1.0598,1.0554,1.0511,1.0467,1.0429,1.0386,1.0386,1.0429,1.0511,1.0424,1.0342,1.0255,1.0125,0.9946,0.9903,0.965,0.9519,0.9432,0.9305,0.9082,0.8819,0.8552,0.8241,0.7801,0.7404,0.6966,0.639,0.5766,0.5053,0.4387,0.3449,0.2736,0.1883,0.0807,-0.0224,-0.1294,-0.2167,-0.3025,-0.3732,-0.4381,-0.4987,-0.5556,-0.6059,-0.6657,-0.7324,-0.7872,-0.8444,1.3261,1.3202,1.293,1.2881,1.2827,1.255,1.2436,1.2387,1.2436,1.2441,1.2436,1.2382,1.2495,1.2441,1.2718,1.2822,1.2881,1.3044,1.3152,1.3207,1.33,1.335,1.3625,1.3704,1.3624,1.3488,1.3513,1.3475,1.3378,1.3222,1.3125,1.305,1.2894,1.284,1.2818,1.2807,1.2807,1.2807,1.2807,1.2807,1.2807,1.2807,1.2791,1.2732,1.2716,1.2641,1.2452,1.2316,1.2089,1.179,1.1752,1.1645,1.1429,1.1396,1.1364,1.1341,1.1193,1.1095,1.1014,1.0914,1.0747,1.0723,1.0713,1.0712,1.068,1.07,1.0656,1.0666,1.0455,1.0402,1.0309,1.0154,1.0038,1.0038,0.9951,1.0038,1.0125,1.0038,0.9864,0.9602,0.9563,0.9476,0.9345,0.9257,0.9257,0.9078,0.8907,0.8688,0.842,0.8113,0.7757,0.736,0.6962,0.6561,0.5941,0.5277,0.4563,0.3805,0.2644,0.1794,0.1256,0.0359,-0.0493,-0.1386,-0.2268,-0.3137,-0.3946,-0.4597,-0.5197,-0.5771,-0.6315,-0.6916,-0.7537,-0.7921,-0.8444,1.2822,1.2604,1.255,1.2495,1.2495,1.2441,1.2382,1.2382,1.2382,1.2382,1.2382,1.2382,1.2382,1.2382,1.2495,1.2495,1.255,1.2604,1.2713,1.2994,1.2989,1.3132,1.3396,1.3547,1.3587,1.3477,1.364,1.3658,1.3518,1.3443,1.3297,1.313,1.3087,1.2942,1.2845,1.284,1.2813,1.2807,1.2807,1.2807,1.2807,1.2807,1.2807,1.2807,1.2807,1.2791,1.2705,1.2689,1.2543,1.2285,1.2091,1.1957,1.182,1.1674,1.1573,1.1483,1.1318,1.1192,1.1156,1.099,1.0833,1.0799,1.0698,1.062,1.062,1.0637,1.0601,1.062,1.0575,1.0474,1.0305,1.0089,0.9901,0.9761,0.9703,0.965,0.9559,0.9646,0.9607,0.9432,0.9345,0.9345,0.9262,0.9038,0.8951,0.8771,0.8552,0.8292,0.7981,0.7672,0.7319,0.6962,0.6517,0.6118,0.5542,0.4786,0.3894,0.3179,0.2107,0.1121,0.0583,0.0,-0.0762,-0.1569,-0.233,-0.3203,-0.4064,-0.4821,-0.5406,-0.6021,-0.6577,-0.7159,-0.7706,-0.8081,-0.8557,1.255,1.2382,1.2382,1.2382,1.2382,1.2382,1.2382,1.2382,1.2382,1.2382,1.2382,1.2382,1.2382,1.2382,1.2382,1.2382,1.2382,1.2382,1.2495,1.2659,1.2659,1.2772,1.2876,1.3202,1.3293,1.3347,1.3619,1.3641,1.3604,1.3633,1.3577,1.3437,1.3335,1.3157,1.2953,1.297,1.2916,1.2824,1.2807,1.2807,1.2807,1.2807,1.2807,1.2807,1.2807,1.2807,1.2802,1.2802,1.2737,1.2576,1.2347,1.2118,1.1943,1.1773,1.1635,1.1492,1.1262,1.1124,1.1073,1.0893,1.0745,1.0764,1.0672,1.0616,1.057,1.057,1.057,1.057,1.0556,1.0518,1.0282,1.0095,0.9855,0.9597,0.9486,0.9354,0.9218,0.9305,0.9345,0.917,0.913,0.8951,0.8819,0.8688,0.8512,0.8288,0.8245,0.7984,0.7584,0.7272,0.6962,0.6564,0.6074,0.5586,0.5097,0.4295,0.3224,0.251,0.1749,0.0807,0.0135,-0.0404,-0.0987,-0.1749,-0.2466,-0.3315,-0.4146,-0.4872,-0.5625,-0.6174,-0.6744,-0.7356,-0.7891,-0.8278,-0.8877,1.2382,1.2382,1.2382,1.2382,1.2382,1.2382,1.2382,1.2382,1.2382,1.2382,1.2382,1.2382,1.2382,1.2382,1.2382,1.2382,1.2382,1.2382,1.2436,1.2436,1.2441,1.2495,1.255,1.2767,1.293,1.3207,1.3457,1.3599,1.36,1.3715,1.3667,1.3677,1.3631,1.3405,1.3211,1.3152,1.306,1.2883,1.2856,1.2851,1.2818,1.2807,1.2807,1.2807,1.2807,1.2807,1.2764,1.2716,1.271,1.2716,1.2467,1.2108,1.1817,1.1641,1.1595,1.1383,1.1138,1.1017,1.1027,1.0852,1.0754,1.0669,1.0683,1.0688,1.0697,1.0721,1.0731,1.0697,1.0688,1.051,1.0287,1.0026,0.9795,0.952,0.938,0.9143,0.8989,0.9024,0.8951,0.8819,0.8732,0.86,0.8424,0.8248,0.8028,0.7896,0.7808,0.7632,0.7275,0.6874,0.6564,0.621,0.5719,0.4964,0.4387,0.3807,0.2735,0.2017,0.1346,0.0583,-0.0224,-0.0852,-0.1391,-0.1839,-0.2601,-0.3405,-0.4208,-0.4964,-0.5669,-0.6275,-0.6991,-0.7649,-0.811,-0.851,-0.9151,1.2382,1.2382,1.2382,1.2382,1.2382,1.2382,1.2382,1.2382,1.2382,1.2382,1.2382,1.2382,1.2382,1.2382,1.2382,1.2382,1.2382,1.2382,1.2382,1.2382,1.2382,1.2382,1.2436,1.2495,1.255,1.2713,1.3044,1.3315,1.3418,1.3593,1.3629,1.3535,1.3635,1.359,1.3475,1.34,1.3292,1.3087,1.305,1.298,1.2921,1.2807,1.2775,1.277,1.271,1.2716,1.271,1.2565,1.2467,1.2419,1.2224,1.193,1.1694,1.1621,1.1573,1.1472,1.1269,1.1106,1.1115,1.1105,1.108,1.1094,1.1057,1.1061,1.1061,1.1066,1.1014,1.0952,1.0724,1.0512,1.0455,1.0043,0.9714,0.9468,0.9266,0.9095,0.8841,0.8625,0.8452,0.8368,0.8312,0.8245,0.8072,0.7852,0.7676,0.7496,0.7319,0.7146,0.6789,0.6435,0.6124,0.5766,0.5366,0.4476,0.3585,0.3048,0.2333,0.1659,0.0987,0.0359,-0.0404,-0.1166,-0.1749,-0.2154,-0.2735,-0.3494,-0.4253,-0.5055,-0.5675,-0.6287,-0.7112,-0.7935,-0.8288,-0.8623,-0.9255,1.2382,1.2382,1.2382,1.2382,1.2382,1.2382,1.2382,1.2382,1.2382,1.2382,1.2382,1.2382,1.2382,1.2382,1.2382,1.2382,1.2382,1.2382,1.2382,1.2382,1.2382,1.2382,1.2382,1.2382,1.2382,1.2495,1.2718,1.2989,1.3098,1.3369,1.3411,1.3457,1.3635,1.3678,1.355,1.3595,1.3467,1.3351,1.3287,1.3243,1.3114,1.2918,1.2703,1.2597,1.2473,1.237,1.237,1.2273,1.2175,1.2122,1.1927,1.1731,1.1585,1.1487,1.1389,1.1389,1.1292,1.1194,1.1194,1.1194,1.1179,1.1184,1.1194,1.1194,1.1194,1.1179,1.1149,1.0979,1.0854,1.0519,1.0272,0.9953,0.9716,0.9434,0.9161,0.8928,0.8734,0.8385,0.8181,0.7997,0.7993,0.7923,0.772,0.7544,0.7367,0.7146,0.6877,0.6612,0.6346,0.6035,0.5722,0.5277,0.4877,0.4072,0.3181,0.2556,0.1974,0.1301,0.0673,0.0045,-0.0583,-0.1346,-0.1885,-0.2334,-0.296,-0.3585,-0.4389,-0.5191,-0.5766,-0.634,-0.7173,-0.7914,-0.8345,-0.8787,-0.937,1.2382,1.2382,1.2382,1.2382,1.2382,1.2382,1.2382,1.2382,1.2382,1.2382,1.2382,1.2382,1.2382,1.2382,1.2382,1.2382,1.2382,1.2382,1.2382,1.2382,1.2382,1.2382,1.2382,1.2382,1.2382,1.2382,1.2441,1.255,1.2822,1.3098,1.3207,1.3285,1.3467,1.3562,1.3444,1.3524,1.354,1.3465,1.339,1.338,1.3227,1.2927,1.2568,1.242,1.2144,1.209,1.2088,1.1932,1.1932,1.1829,1.1683,1.1541,1.1487,1.1292,1.1194,1.1194,1.1194,1.1194,1.1194,1.1194,1.1194,1.1194,1.1194,1.1194,1.1194,1.1149,1.1002,1.0855,1.06,1.044,1.007,0.9883,0.9618,0.9372,0.9021,0.8707,0.8582,0.8347,0.7987,0.7873,0.7785,0.7597,0.7351,0.7234,0.7058,0.6745,0.6523,0.6251,0.5944,0.5675,0.5319,0.4786,0.4251,0.3582,0.2823,0.2196,0.1615,0.0987,0.0359,-0.0269,-0.0852,-0.148,-0.1974,-0.2558,-0.3094,-0.3764,-0.4523,-0.5235,-0.5766,-0.6432,-0.7275,-0.7893,-0.8277,-0.8798,-0.9417,1.2382,1.2382,1.2382,1.2382,1.2382,1.2387,1.2382,1.2382,1.2382,1.2382,1.2387,1.2382,1.2382,1.2382,1.2382,1.2382,1.2382,1.2382,1.2382,1.2382,1.2382,1.2382,1.2382,1.2382,1.2382,1.2382,1.2382,1.2387,1.255,1.2822,1.293,1.2985,1.3207,1.3349,1.3293,1.3385,1.3265,1.3135,1.3094,1.3002,1.2791,1.2674,1.2542,1.2344,1.2224,1.2148,1.1953,1.1776,1.1663,1.1639,1.1389,1.1243,1.1243,1.1243,1.1194,1.1194,1.1194,1.1194,1.1194,1.1194,1.1194,1.1194,1.1194,1.1194,1.1145,1.1002,1.0855,1.0806,1.0413,1.0117,0.9969,0.9747,0.9489,0.9286,0.8989,0.8768,0.8582,0.8135,0.778,0.7579,0.7458,0.7175,0.6888,0.6815,0.6748,0.639,0.6121,0.5852,0.5542,0.523,0.4786,0.4206,0.376,0.3135,0.2465,0.1838,0.1256,0.0628,0.0045,-0.0538,-0.1076,-0.166,-0.2332,-0.2871,-0.3361,-0.3853,-0.4612,-0.5233,-0.5808,-0.6476,-0.7275,-0.7764,-0.8157,-0.8771,-0.9432,1.1946,1.1951,1.1951,1.1951,1.1946,1.1946,1.1951,1.2001,1.2114,1.2169,1.2223,1.2332,1.2382,1.2382,1.2382,1.2382,1.2382,1.2382,1.2382,1.2382,1.2382,1.2382,1.2382,1.2382,1.2382,1.2382,1.2382,1.2382,1.2436,1.2495,1.2604,1.2659,1.293,1.3093,1.3098,1.3207,1.3259,1.3189,1.3148,1.3047,1.2838,1.2663,1.2474,1.2266,1.2098,1.1926,1.1784,1.1627,1.1451,1.1388,1.1243,1.1194,1.1194,1.1194,1.1194,1.1194,1.1194,1.1194,1.1194,1.1194,1.1194,1.1194,1.1194,1.1145,1.0998,1.085,1.0609,1.0364,1.0167,0.9969,0.9772,0.9525,0.9381,0.9152,0.8898,0.8686,0.838,0.789,0.7495,0.7302,0.7108,0.6825,0.6593,0.6448,0.6326,0.6035,0.5725,0.5413,0.5057,0.4612,0.4074,0.3494,0.3135,0.2732,0.2062,0.1436,0.0942,0.0359,-0.0179,-0.0762,-0.1256,-0.1839,-0.2466,-0.2959,-0.3361,-0.3987,-0.4699,-0.5277,-0.5808,-0.652,-0.7231,-0.7672,-0.8116,-0.8775,-0.9476,1.1404,1.1404,1.1514,1.1568,1.1568,1.1568,1.1623,1.1623,1.1841,1.1896,1.1951,1.2169,1.2278,1.2332,1.2327,1.2382,1.2382,1.2382,1.2382,1.2382,1.2382,1.2382,1.2382,1.2382,1.2382,1.2382,1.2382,1.2382,1.2382,1.2382,1.2436,1.2382,1.2659,1.2767,1.2822,1.2935,1.297,1.2965,1.296,1.293,1.2763,1.2636,1.2408,1.2173,1.1978,1.1803,1.1633,1.159,1.1491,1.1335,1.1298,1.1283,1.1212,1.1194,1.1194,1.1194,1.1194,1.1194,1.1194,1.1194,1.1194,1.1194,1.1096,1.1002,1.0855,1.0703,1.0507,1.0068,0.992,0.9772,0.9529,0.9282,0.9133,0.8935,0.8669,0.8478,0.8216,0.7766,0.7476,0.7334,0.7039,0.6598,0.6322,0.6099,0.5866,0.5646,0.5369,0.5018,0.4569,0.4034,0.3585,0.3047,0.2509,0.2195,0.1749,0.1122,0.0628,0.009,-0.0448,-0.1031,-0.157,-0.1974,-0.2467,-0.296,-0.3451,-0.4032,-0.4746,-0.5277,-0.5852,-0.652,-0.7098,-0.7632,-0.8164,-0.8823,-0.9476,1.0747,1.0802,1.135,1.1568,1.1568,1.1568,1.1568,1.1518,1.1618,1.1623,1.1678,1.1896,1.2005,1.206,1.2219,1.2327,1.2382,1.2382,1.2382,1.2382,1.2382,1.2382,1.2382,1.2382,1.2382,1.2382,1.2382,1.2382,1.2382,1.2382,1.2382,1.2382,1.2495,1.2441,1.2495,1.2604,1.2604,1.2604,1.2604,1.2545,1.2502,1.2424,1.2348,1.2162,1.2101,1.1963,1.1817,1.1798,1.1704,1.151,1.1496,1.1435,1.1335,1.1302,1.1302,1.1302,1.1255,1.1255,1.125,1.1212,1.1194,1.1145,1.0949,1.0806,1.0659,1.0265,1.0068,0.992,0.9772,0.9529,0.9331,0.9187,0.8886,0.8684,0.8432,0.8237,0.8035,0.773,0.7442,0.7307,0.6918,0.6431,0.5974,0.5714,0.5398,0.5171,0.479,0.4435,0.3987,0.3496,0.3136,0.2644,0.1972,0.1569,0.139,0.0852,0.0224,-0.0224,-0.0718,-0.1346,-0.193,-0.2333,-0.2558,-0.3094,-0.363,-0.421,-0.4746,-0.5277,-0.5811,-0.6432,-0.7054,-0.772,-0.8296,-0.8867,-0.9519,1.0692,1.0747,1.0966,1.1021,1.1021,1.1076,1.1076,1.1076,1.124,1.1404,1.1568,1.1732,1.1787,1.1787,1.1841,1.2005,1.2114,1.2164,1.2223,1.2332,1.2382,1.2382,1.2382,1.2382,1.2382,1.2382,1.2382,1.2382,1.2382,1.2382,1.2382,1.2382,1.2382,1.2382,1.2382,1.2382,1.2382,1.2382,1.2382,1.2382,1.2382,1.2382,1.2349,1.2283,1.2269,1.2161,1.2001,1.1968,1.1836,1.1761,1.1709,1.1633,1.1562,1.1543,1.1539,1.152,1.1449,1.1397,1.135,1.1234,1.1149,1.09,1.0703,1.0511,1.0364,1.0068,0.992,0.9723,0.9525,0.9331,0.9236,0.8886,0.8581,0.8382,0.8233,0.8038,0.7789,0.754,0.7229,0.7039,0.6626,0.6115,0.5709,0.5313,0.4991,0.4694,0.4271,0.3855,0.3451,0.3002,0.2644,0.2241,0.1614,0.1121,0.0897,0.0404,-0.0135,-0.0538,-0.0987,-0.1525,-0.2109,-0.2334,-0.2648,-0.3229,-0.3721,-0.4166,-0.4656,-0.5191,-0.5769,-0.6343,-0.7183,-0.8028,-0.8556,-0.8999,-0.9519,1.0417,1.0417,1.0417,1.0531,1.0692,1.0692,1.0692,1.0747,1.0911,1.1126,1.135,1.1404,1.1459,1.1459,1.1568,1.1678,1.1841,1.1896,1.206,1.2169,1.2273,1.2327,1.2382,1.2382,1.2382,1.2382,1.2382,1.2382,1.2382,1.2382,1.2382,1.2382,1.2382,1.2382,1.2382,1.2382,1.2382,1.2382,1.2382,1.2382,1.2382,1.2382,1.2382,1.2368,1.2363,1.2316,1.2208,1.2161,1.2067,1.1987,1.1907,1.1879,1.1836,1.1817,1.1817,1.177,1.1709,1.1563,1.1442,1.121,1.0962,1.0708,1.0408,1.0216,1.0019,0.992,0.9723,0.948,0.9286,0.9137,0.9034,0.8634,0.8382,0.8237,0.7988,0.7793,0.7593,0.7341,0.7039,0.6711,0.6309,0.5914,0.5287,0.4886,0.4459,0.4114,0.3738,0.3411,0.3136,0.2689,0.2196,0.1793,0.13,0.0852,0.0404,-0.0045,-0.0448,-0.0807,-0.1211,-0.166,-0.2109,-0.2379,-0.2782,-0.3363,-0.381,-0.4168,-0.4656,-0.5235,-0.5766,-0.6299,-0.7183,-0.8116,-0.8775,-0.9218,-0.9519,0.9816,0.9816,0.9816,1.0143,1.0637,1.0692,1.0633,1.0637,1.0692,1.0747,1.0857,1.1017,1.1126,1.1181,1.135,1.1514,1.1573,1.1623,1.1732,1.1951,1.206,1.2164,1.2327,1.2382,1.2382,1.2382,1.2382,1.2382,1.2382,1.2382,1.2382,1.2382,1.2382,1.2382,1.2382,1.2382,1.2382,1.2382,1.2382,1.2382,1.2382,1.2382,1.2382,1.2382,1.2382,1.2349,1.233,1.2316,1.2227,1.2109,1.2076,1.2015,1.1945,1.1917,1.185,1.1831,1.1794,1.1653,1.1418,1.1016,1.0744,1.0452,1.0209,0.9969,0.992,0.9772,0.9529,0.9331,0.9133,0.8882,0.8634,0.8382,0.8237,0.8041,0.7743,0.7547,0.7344,0.7092,0.6739,0.6389,0.6129,0.5745,0.5056,0.4442,0.3987,0.3579,0.3181,0.2925,0.2694,0.2331,0.1793,0.139,0.0987,0.0538,0.009,-0.0359,-0.0762,-0.1076,-0.148,-0.1885,-0.2243,-0.2601,-0.3048,-0.354,-0.3855,-0.4123,-0.4656,-0.5235,-0.5858,-0.6476,-0.7275,-0.8116,-0.8819,-0.9349,-0.9607,0.9816,0.9816,0.9816,0.9926,1.0088,1.0088,1.0091,1.0143,1.0312,1.0527,1.0688,1.0802,1.0857,1.0857,1.0966,1.1131,1.124,1.1295,1.1459,1.1732,1.1896,1.2005,1.2164,1.2273,1.2382,1.2382,1.2382,1.2382,1.2382,1.2382,1.2382,1.2382,1.2382,1.2382,1.2382,1.2382,1.2382,1.2382,1.2382,1.2382,1.2382,1.2382,1.2382,1.2382,1.2382,1.2382,1.2382,1.2382,1.233,1.2269,1.226,1.2212,1.2147,1.2137,1.2098,1.1959,1.181,1.1431,1.1032,1.0677,1.059,1.0285,1.0004,0.9801,0.9727,0.948,0.9331,0.9133,0.8882,0.863,0.8432,0.8187,0.8038,0.7793,0.7543,0.7344,0.7092,0.6789,0.6439,0.6089,0.5784,0.5131,0.4428,0.398,0.3528,0.3144,0.2756,0.2458,0.2213,0.1843,0.1436,0.1031,0.0628,0.0269,-0.0135,-0.0538,-0.0942,-0.1301,-0.1705,-0.2109,-0.2467,-0.2778,-0.3138,-0.3585,-0.381,-0.4123,-0.479,-0.5411,-0.608,-0.6745,-0.7411,-0.8072,-0.8732,-0.917,-0.9432,0.9485,0.9485,0.9485,0.9489,0.9541,0.9706,0.9816,0.9816,1.0036,1.0257,1.0363,1.0472,1.0582,1.0582,1.0692,1.0747,1.0966,1.0966,1.1131,1.1404,1.1564,1.1728,1.1896,1.211,1.2219,1.2273,1.2327,1.2382,1.2382,1.2382,1.2382,1.2382,1.2382,1.2382,1.2382,1.2382,1.2382,1.2382,1.2382,1.2382,1.2382,1.2382,1.2382,1.2382,1.2382,1.2382,1.2382,1.2382,1.2382,1.2382,1.2382,1.2332,1.2332,1.2223,1.2114,1.1901,1.1567,1.1264,1.092,1.0586,1.0502,1.0319,0.9914,0.9684,0.9548,0.9375,0.9095,0.8882,0.8581,0.8382,0.8237,0.8038,0.7793,0.7596,0.7294,0.7095,0.6792,0.6439,0.6089,0.5741,0.5288,0.4585,0.3929,0.3497,0.3108,0.2726,0.2353,0.2012,0.1732,0.1446,0.1124,0.0762,0.0404,0.0,-0.0314,-0.0673,-0.1076,-0.148,-0.1885,-0.2244,-0.2602,-0.2914,-0.3272,-0.3585,-0.3942,-0.4344,-0.4966,-0.5586,-0.6254,-0.6833,-0.7411,-0.8072,-0.8688,-0.9038,-0.9301,0.8937,0.8937,0.8937,0.8937,0.9047,0.9485,0.9706,0.9761,0.9816,0.9812,0.9871,1.0202,1.0257,1.0308,1.0527,1.0637,1.0692,1.0692,1.0911,1.1072,1.1236,1.135,1.1623,1.1841,1.1946,1.2055,1.2164,1.2278,1.2382,1.2382,1.2382,1.2382,1.2382,1.2382,1.2382,1.2382,1.2382,1.2382,1.2382,1.2382,1.2382,1.2382,1.2382,1.2382,1.2382,1.2382,1.2387,1.2387,1.2332,1.2332,1.2332,1.2223,1.2114,1.2001,1.1841,1.1564,1.1278,1.1084,1.0937,1.0592,1.0448,1.0302,1.0003,0.976,0.9532,0.9295,0.8942,0.8649,0.8382,0.8187,0.8038,0.7793,0.7596,0.7344,0.7042,0.6742,0.6439,0.6089,0.5689,0.529,0.4836,0.4234,0.3531,0.3061,0.2694,0.2325,0.2001,0.1682,0.1405,0.1139,0.086,0.0583,0.0179,-0.0179,-0.0538,-0.0807,-0.1301,-0.1705,-0.193,-0.2289,-0.2647,-0.3005,-0.3363,-0.3719,-0.4076,-0.452,-0.5008,-0.563,-0.6343,-0.6922,-0.7367,-0.794,-0.8512,-0.8951,-0.9257,0.8937,0.8937,0.8937,0.8937,0.8937,0.9103,0.9268,0.9485,0.9485,0.9596,0.9816,0.9926,0.9926,0.9981,1.0257,1.0363,1.0472,1.0582,1.0692,1.0857,1.0962,1.1126,1.1345,1.1564,1.1673,1.1782,1.1946,1.2114,1.2169,1.2278,1.2382,1.2382,1.2382,1.2382,1.2382,1.2382,1.2382,1.2382,1.2382,1.2382,1.2382,1.2382,1.2382,1.2387,1.2327,1.2327,1.2327,1.2169,1.2114,1.2114,1.1951,1.1791,1.1732,1.1732,1.1568,1.124,1.1017,1.0789,1.0735,1.0483,1.0284,1.0186,0.9896,0.9659,0.941,0.9135,0.8754,0.85,0.8194,0.7988,0.7793,0.7593,0.7347,0.6995,0.6742,0.6439,0.6089,0.5689,0.529,0.4788,0.4336,0.3783,0.313,0.2623,0.2258,0.1949,0.1635,0.1319,0.1055,0.084,0.0548,0.0272,0.0,-0.0406,-0.0628,-0.0942,-0.1436,-0.1885,-0.2109,-0.2334,-0.2782,-0.3141,-0.3452,-0.3853,-0.43,-0.4654,-0.4966,-0.5675,-0.6428,-0.6741,-0.7187,-0.776,-0.8292,-0.8775,-0.913,0.8937,0.8937,0.8937,0.8937,0.8937,0.8937,0.8995,0.9213,0.9213,0.9323,0.943,0.9599,0.9651,0.9706,0.9981,1.0091,1.0147,1.0363,1.0527,1.0582,1.0802,1.0911,1.1017,1.1236,1.135,1.1514,1.1673,1.1837,1.1896,1.2114,1.2278,1.2382,1.2382,1.2382,1.2382,1.2382,1.2332,1.2332,1.2332,1.2382,1.2327,1.2273,1.2278,1.2223,1.2164,1.211,1.211,1.1891,1.1841,1.1841,1.1627,1.1514,1.1404,1.1295,1.124,1.0911,1.0692,1.0582,1.0468,1.0253,1.0143,1.0014,0.9716,0.9491,0.9272,0.8966,0.8656,0.8365,0.8042,0.7743,0.7593,0.7394,0.7045,0.6692,0.6389,0.6089,0.5689,0.529,0.4839,0.4336,0.3833,0.3279,0.2777,0.2273,0.1869,0.156,0.13,0.0991,0.0779,0.0619,0.0279,0.0,-0.0319,-0.0591,-0.0813,-0.1078,-0.1525,-0.193,-0.211,-0.2424,-0.2829,-0.3275,-0.3676,-0.4123,-0.4567,-0.4879,-0.5099,-0.5808,-0.6473,-0.6741,-0.7098,-0.772,-0.8204,-0.8604,-0.8955,0.8937,0.8937,0.8937,0.8937,0.8937,0.8937,0.8937,0.8937,0.8937,0.8937,0.8992,0.9213,0.9323,0.9379,0.9651,0.9761,0.9871,1.0088,1.0253,1.0253,1.0531,1.0637,1.0747,1.0911,1.1076,1.1185,1.135,1.1564,1.1678,1.1841,1.206,1.2327,1.2278,1.2223,1.2223,1.2223,1.2114,1.2005,1.211,1.2164,1.2164,1.211,1.1946,1.1891,1.1787,1.1623,1.1623,1.1623,1.1568,1.1568,1.1459,1.1295,1.1131,1.0857,1.0747,1.0582,1.0417,1.0253,1.0147,0.9981,0.9816,0.971,0.9533,0.9323,0.9098,0.8867,0.8598,0.8235,0.7901,0.7578,0.7413,0.7048,0.6692,0.6342,0.6042,0.5689,0.5288,0.4836,0.4288,0.3784,0.338,0.2876,0.2474,0.197,0.1617,0.1313,0.0957,0.065,0.0544,0.0388,0.0095,-0.0233,-0.0461,-0.0733,-0.0954,-0.1219,-0.1617,-0.193,-0.211,-0.2513,-0.2962,-0.3409,-0.3857,-0.4302,-0.4746,-0.5013,-0.5369,-0.5988,-0.6387,-0.6564,-0.701,-0.7632,-0.812,-0.8472,-0.878,0.8937,0.8937,0.8937,0.8937,0.8937,0.8937,0.8937,0.8937,0.8937,0.8937,0.8937,0.8992,0.9047,0.9103,0.9379,0.9489,0.9541,0.9761,0.9871,1.0036,1.0257,1.0366,1.0417,1.0637,1.0802,1.0911,1.1076,1.135,1.1514,1.1673,1.1728,1.1787,1.1841,1.1896,1.1896,1.1896,1.1787,1.1678,1.1732,1.1782,1.1732,1.1732,1.1678,1.1678,1.1568,1.1518,1.1459,1.135,1.124,1.1185,1.1021,1.0857,1.0802,1.0527,1.0417,1.0312,1.0088,0.9981,0.9871,0.9655,0.9489,0.9379,0.9265,0.9082,0.8941,0.8793,0.8523,0.8143,0.7757,0.7434,0.7121,0.6751,0.6339,0.6039,0.5691,0.5288,0.4885,0.4336,0.3736,0.3331,0.2876,0.2523,0.2121,0.1768,0.1414,0.1061,0.0707,0.0453,0.0352,0.0248,-0.0049,-0.0335,-0.0513,-0.0785,-0.1054,-0.1364,-0.1675,-0.1936,-0.2159,-0.2561,-0.3051,-0.3499,-0.3946,-0.4435,-0.4882,-0.5104,-0.5458,-0.5991,-0.6343,-0.652,-0.6966,-0.7588,-0.794,-0.8248,-0.8556,0.8937,0.8937,0.8937,0.8937,0.8937,0.8937,0.8937,0.8937,0.8937,0.8937,0.8937,0.8937,0.8937,0.8937,0.9103,0.9213,0.9268,0.9489,0.9599,0.971,0.9926,1.0033,1.0198,1.0363,1.0476,1.0586,1.0802,1.1076,1.1345,1.1404,1.1404,1.1514,1.1568,1.1573,1.1568,1.1568,1.1514,1.1404,1.1404,1.135,1.1295,1.1295,1.135,1.14,1.1295,1.1244,1.1131,1.1017,1.0966,1.0857,1.0692,1.0417,1.0308,1.0143,1.0088,0.9981,0.9816,0.9596,0.9544,0.9379,0.9213,0.9103,0.8933,0.8751,0.864,0.8502,0.8327,0.7951,0.7519,0.713,0.6779,0.6389,0.5989,0.5641,0.5238,0.4834,0.4284,0.3734,0.323,0.2826,0.2473,0.2171,0.1819,0.1566,0.1212,0.0808,0.0455,0.0303,0.0202,0.0101,-0.0149,-0.0442,-0.0623,-0.0895,-0.1265,-0.1482,-0.1691,-0.1954,-0.2217,-0.2698,-0.3186,-0.3588,-0.408,-0.4569,-0.4968,-0.5149,-0.5547,-0.608,-0.6299,-0.6428,-0.6966,-0.7591,-0.7808,-0.8072,-0.838,0.8937,0.8937,0.8937,0.8937,0.8937,0.8937,0.8937,0.8937,0.8937,0.8937,0.8937,0.8937,0.8937,0.8937,0.8937,0.8937,0.8992,0.9213,0.9323,0.9434,0.9651,0.9761,0.9868,1.0088,1.0202,1.0366,1.0582,1.0802,1.1076,1.1076,1.1185,1.14,1.1459,1.1463,1.1459,1.1459,1.1295,1.1131,1.1021,1.0911,1.0852,1.0907,1.1017,1.0966,1.0802,1.0641,1.0637,1.0582,1.0582,1.0472,1.0366,1.0147,0.9981,0.9816,0.9761,0.9706,0.9489,0.9379,0.9268,0.9106,0.8937,0.8823,0.8595,0.8484,0.8371,0.8207,0.8036,0.7689,0.7209,0.6819,0.6473,0.6044,0.5644,0.5188,0.4736,0.4332,0.3732,0.318,0.2775,0.2371,0.212,0.1869,0.1566,0.1313,0.096,0.0556,0.0303,0.0202,0.005,0.0,-0.0201,-0.0449,-0.069,-0.1021,-0.1392,-0.1557,-0.1672,-0.1987,-0.23,-0.2813,-0.3321,-0.3767,-0.4257,-0.4743,-0.5099,-0.5235,-0.5636,-0.6121,-0.6299,-0.6473,-0.6874,-0.7411,-0.7812,-0.8032,-0.8296,0.8937,0.8937,0.8937,0.8937,0.8937,0.8937,0.8937,0.8937,0.8937,0.8937,0.8881,0.8881,0.8937,0.8881,0.8937,0.8937,0.8937,0.9047,0.8992,0.9047,0.932,0.943,0.9541,0.9761,1.0036,1.0202,1.0363,1.0527,1.0637,1.0688,1.0802,1.0857,1.0857,1.0857,1.0852,1.0852,1.0857,1.0747,1.0692,1.0637,1.0527,1.0582,1.0747,1.0692,1.0527,1.0417,1.0308,1.0088,1.0033,0.9923,0.9923,0.9871,0.9706,0.9544,0.9489,0.9375,0.9158,0.9047,0.8937,0.8826,0.8712,0.8543,0.8374,0.8266,0.81,0.7823,0.7555,0.7248,0.6892,0.6555,0.62,0.5689,0.5207,0.4642,0.4183,0.3731,0.318,0.2777,0.2423,0.212,0.1818,0.1566,0.1263,0.096,0.0657,0.0303,0.0202,0.0,0.0,0.0,0.0,-0.0504,-0.0753,-0.1095,-0.147,-0.1586,-0.1705,-0.2026,-0.2427,-0.2943,-0.3448,-0.3948,-0.4389,-0.4879,-0.5144,-0.5324,-0.5722,-0.621,-0.6435,-0.6609,-0.6874,-0.7275,-0.7676,-0.7988,-0.8164]},{"header":{"parameterUnit":"m.s-1","parameterCategory":1,"la1":31.0,"la2":29.5877,"lo1":-88.7671,"lo2":-86.6584,"dy":0.0162,"dx":0.0185,"nx":115,"ny":88,"refTime":"2023-04-02T06:00:00:Z","depth":0,"parameterNumber":3,"parameterNumberName":"V-component_of_WINDS"},"data":[0.0,0.0,0.0,0.0,0.0,0.0,0.0,0.0,0.0,0.0,0.0,0.0,0.0,0.0,0.0,0.0,0.0,0.0,0.0,0.0,0.0,0.0,0.0,0.0,0.0,0.0,0.0,0.0,0.0,0.0,0.0,0.0,0.0,0.0,0.0,0.0,0.0,0.0,0.0,0.0,0.0,0.0,0.0,0.0,0.0,0.0,0.0,0.0,0.0,0.0,0.0,0.0,0.0,0.0,0.0,0.0,0.0,0.0,0.0,0.0,0.0,0.0,0.0,0.0,0.0,0.0,0.0,0.0,0.0,0.0,0.0,0.0,0.0,0.0,0.0,0.0,0.0,0.0,0.0,0.0,0.0,0.0,0.0,0.0,0.0,0.0,0.0,0.0,0.0,0.0,0.0,0.0,0.0,0.0,0.0,0.0,0.0,0.0,0.0,0.0,0.0,0.0,0.0,0.0,0.0,0.0,0.0,0.0,0.0,0.0,0.0,0.0,0.0,0.0,0.0,0.0,0.0,0.0,0.0,0.0,0.0,0.0,0.0,0.0,0.0,0.0,0.0,0.0,0.0,0.0,0.0,0.0,0.0,0.0,0.0,0.0,0.0,0.0,0.0,0.0,0.0,0.0,0.0,0.0,0.0,0.0,0.0,0.0,0.0,0.0,0.0,0.0,0.0,0.0,0.0,0.0,0.0,0.0,0.0,0.0,0.0,0.0,0.0,0.0,0.0,0.0,0.0,0.0,0.0,0.0,0.0,0.0,0.0,0.0,0.0,0.0,0.0,0.0,0.0,0.0,0.0,0.0,0.0,0.0,0.0,0.0,0.0,0.0,0.0,0.0,0.0,0.0,0.0,0.0,0.0,0.0,0.0,0.0,0.0,0.0,0.0,0.0,0.0,0.0,0.0,0.0,0.0,0.0,0.0,0.0,0.0,0.0,0.0,0.0,0.0,0.0,0.0,0.0,0.0,0.0,0.0,0.0,0.0,0.0,0.0,0.0,0.0,0.0,0.0,0.0,0.0,0.0,0.0,0.0,0.0,0.0,0.0,0.0,0.0,0.0,0.0,0.0,0.0,0.0,0.0,0.0,0.0,0.0,0.0,0.0,0.0,0.0,0.0,0.0,0.0,0.0,0.0,0.0,0.0,0.0,0.0,0.0,0.0,0.0,0.0,0.0,0.0,0.0,0.0,0.0,0.0,0.0,0.0,0.0,0.0,0.0,0.0,0.0,0.0,0.0,0.0,0.0,0.0,0.0,0.0,0.0,0.0,0.0,0.0,0.0,0.0,0.0,0.0,0.0,0.0,0.0,0.0,0.0,0.0,0.0,0.0,0.0,0.0,0.0,0.0,0.0,0.0,0.0,0.0,0.0,0.0,0.0,0.0,0.0,0.0,0.0,0.0,0.0,0.0,0.0,0.0,0.0,0.0,0.0,0.0,0.0,0.0,0.0,0.0,0.0,0.0,0.0,0.0,0.0,0.0,0.0,0.0,0.0,0.0,0.0,0.0,0.0,0.0,0.0,0.0,0.0,0.0,0.0,0.0,0.0,0.0,0.0,0.0,0.0,0.0,0.0,0.0,0.0,0.0,0.0,0.0,0.0,0.0,0.0,0.0,0.0,0.0,0.0,0.0,0.0,0.0,0.0,0.0,0.0,0.0,0.0,0.0,0.0,0.0,0.0,0.0,0.0,0.0,0.0,0.0,0.0,0.0,0.0,0.0,0.0,0.0,0.0,0.0,0.0,0.0,0.0,0.0,0.0,0.0,0.0,0.0,0.0,0.0,0.0,0.0,0.0,0.0,0.0,0.0,0.0,0.0,0.0,0.0,0.0,0.0,0.0,0.0,0.0,0.0,0.0,0.0,0.0,0.0,0.0,0.0,0.0,0.0,0.0,0.0,0.0,0.0,0.0,0.0,0.0,0.0,0.0,0.0,0.0,0.0,0.0,0.0,0.0,0.0,0.0,0.0,0.0,0.0,0.0,0.0,0.0,0.0,0.0,0.0,0.0,0.0,0.0,0.0,0.0,0.0,0.0,0.0,0.0,0.0,0.0,0.0,0.0,0.0,0.0,0.0,0.0,0.0,0.0,0.0,0.0,0.0,0.0,0.0,0.0,0.0,0.0,0.0,0.0,0.0,0.0,0.0,0.0,0.0,0.0,0.0,0.0,0.0,0.0,0.0,0.0,0.0,0.0,0.0,0.0,0.0,0.0,0.0,0.0,0.0,0.0,0.0,0.0,0.0,0.0,0.0,0.0,0.0,0.0,0.0,0.0,0.0,0.0,0.0,0.0,0.0,0.0,0.0,0.0,0.0,0.0,0.0,0.0,0.0,0.0,0.0,0.0,0.0,0.0,0.0,0.0,0.0,0.0,0.0,0.0,0.0,0.0,0.0,0.0,0.0,0.0,0.0,0.0,0.0,0.0,0.0,0.0,0.0,0.0,0.0,0.0,0.0,0.0,0.0,0.0,0.0,0.0,0.0,0.0,0.0,0.0,0.0,0.0,0.0,0.0,0.0,0.0,0.0,0.0,0.0,0.0,0.0,0.0,0.0,0.0,0.0,0.0,0.0,0.0,0.0,0.0,0.0,0.0,0.0,0.0,0.0,0.0,0.0,0.0,0.0,0.0,0.0,0.0,0.0,0.0,0.0,0.0,0.0,0.0,0.0,0.0,0.0,0.0,0.0,0.0,0.0,0.0,0.0,0.0,0.0,0.0,0.0,0.0,0.0,0.0,0.0,0.0,0.0,0.0,0.0,0.0,0.0,0.0,0.0,0.0,0.0,0.0,0.0,0.0,0.0,0.0,0.0,0.0,0.0,0.0,0.0,0.0,0.0,0.0,0.0,0.0,0.0,0.0,0.0,0.0,0.0,0.0,0.0,0.0,0.0,0.0,0.0,0.0,0.0,0.0,0.0,0.0,0.0,0.0,0.0,0.0,0.0,0.0,0.0,0.0,0.0,0.0,0.0,0.0,0.0,0.0,0.0,0.0,0.0,0.0,0.0,0.0,0.0,0.0,0.0,0.0,0.0,0.0,0.0,0.0,0.0,0.0,0.0,0.0,0.0,0.0,0.0,0.0,0.0,0.0,0.0,0.0,0.0,0.0,0.0,0.0,0.0,0.0,0.0,0.0,0.0,0.0,0.0,0.0,0.0,0.0,0.0,0.0,0.0,0.0,0.0,0.0,0.0,0.0,0.0,0.0,0.0,0.0,0.0,0.0,0.0,0.0,0.0,0.0,0.0,0.0,0.0,0.0,0.0,0.0,0.0,0.0,0.0,0.0,0.0,0.0,0.0,0.0,0.0,0.0,0.0,0.0,0.0,0.0,0.0,0.0,0.0,0.0,0.0,0.0,0.0,0.0,0.0,0.0,0.0,0.0,0.0,0.0,0.0,0.0,0.0,0.0,0.0,0.0,0.0,0.0,0.0,0.0,0.0,0.0,0.0,0.0,0.0,0.0,0.0,0.0,0.0,0.0,0.0,0.0,0.0,0.0,0.0,0.0,0.0,0.0,0.0,0.0,0.0,0.0,0.0,0.0,0.0,0.0,0.0,0.0,0.0,0.0,0.0,0.0,0.0,0.0,0.0,0.0,0.0,0.0,0.0,0.0,0.0,0.0,0.0,0.0,0.0,0.0,0.0,0.0,0.0,0.0,0.0,0.0,0.0,0.0,0.0,0.0,0.0,0.0,0.0,0.0,0.0,0.0,0.0,0.0,0.0,0.0,0.0,0.0,0.0,0.0,0.0,0.0,0.0,0.0,0.0,0.0,0.0,0.0,0.0,0.0,0.0,0.0,0.0,0.0,0.0,0.0,0.0,0.0,0.0,0.0,0.0,0.0,0.0,0.0,0.0,0.0,0.0,0.0,0.0,0.0,0.0,0.0,0.0,0.0,0.0,0.0,0.0,0.0,0.0,0.0,0.0,0.0,0.0,0.0,0.0,0.0,0.0,0.0,0.0,0.0,0.0,0.0,0.0,0.0,0.0,0.0,0.0,0.0,0.0,0.0,0.0,0.0,0.0,0.0,0.0,0.0,0.0,0.0,0.0,0.0,0.0,0.0,0.0,0.0,0.0,0.0,0.0,0.0,0.0,0.0,0.0,0.0,0.0,0.0,0.0,0.0,0.0,0.0,0.0,0.0,0.0,0.0,0.0,0.0,0.0,0.0,0.0,0.0,0.0,0.0,0.0,0.0,0.0,0.0,0.0,0.0,0.0,0.0,0.0,0.0,0.0,0.0,0.0,0.0,0.0,0.0,0.0,0.0,0.0,0.0,2.4837,0.0,0.0,0.0,0.0,0.0,0.0,0.0,0.0,0.0,0.0,0.0,0.0,0.0,0.0,0.0,0.0,0.0,0.0,0.0,0.0,0.0,0.0,0.0,0.0,0.0,0.0,0.0,0.0,0.0,0.0,0.0,0.0,0.0,0.0,0.0,0.0,0.0,0.0,0.0,0.0,0.0,0.0,0.0,0.0,0.0,0.0,0.0,0.0,0.0,0.0,0.0,0.0,0.0,0.0,0.0,0.0,0.0,0.0,0.0,0.0,0.0,0.0,0.0,0.0,0.0,0.0,0.0,0.0,0.0,0.0,0.0,0.0,0.0,0.0,0.0,0.0,0.0,0.0,0.0,0.0,0.0,0.0,0.0,0.0,0.0,0.0,0.0,0.0,0.0,0.0,0.0,0.0,0.0,0.0,0.0,0.0,0.0,0.0,0.0,0.0,0.0,0.0,0.0,0.0,0.0,0.0,0.0,0.0,0.0,0.0,2.7237,2.6891,2.6594,2.6192,2.5724,0.0,0.0,0.0,0.0,0.0,0.0,0.0,0.0,0.0,0.0,0.0,0.0,0.0,0.0,0.0,0.0,0.0,0.0,0.0,0.0,0.0,0.0,0.0,0.0,0.0,0.0,0.0,0.0,0.0,0.0,0.0,0.0,0.0,0.0,0.0,0.0,0.0,0.0,0.0,0.0,0.0,0.0,0.0,0.0,0.0,0.0,0.0,0.0,0.0,0.0,0.0,0.0,0.0,0.0,0.0,0.0,0.0,0.0,0.0,0.0,0.0,0.0,0.0,0.0,0.0,0.0,0.0,0.0,0.0,0.0,0.0,0.0,0.0,0.0,0.0,0.0,0.0,0.0,0.0,0.0,0.0,0.0,0.0,0.0,0.0,0.0,0.0,0.0,0.0,0.0,0.0,0.0,0.0,0.0,0.0,0.0,0.0,0.0,0.0,0.0,0.0,0.0,0.0,0.0,0.0,0.0,0.0,0.0,0.0,0.0,0.0,0.0,2.7149,2.6852,2.629,0.0,0.0,0.0,0.0,0.0,0.0,0.0,0.0,0.0,0.0,0.0,0.0,0.0,0.0,0.0,0.0,0.0,0.0,0.0,0.0,0.0,0.0,0.0,0.0,0.0,0.0,0.0,0.0,0.0,0.0,0.0,0.0,0.0,0.0,0.0,0.0,0.0,0.0,0.0,0.0,0.0,0.0,0.0,0.0,0.0,0.0,0.0,0.0,0.0,0.0,0.0,0.0,0.0,0.0,0.0,0.0,0.0,0.0,0.0,0.0,0.0,0.0,0.0,0.0,0.0,0.0,0.0,0.0,0.0,0.0,0.0,0.0,0.0,0.0,0.0,0.0,0.0,0.0,0.0,0.0,0.0,0.0,0.0,0.0,0.0,0.0,0.0,0.0,0.0,0.0,0.0,0.0,0.0,0.0,0.0,0.0,0.0,0.0,0.0,0.0,0.0,0.0,0.0,0.0,0.0,0.0,0.0,0.0,0.0,0.0,2.8018,2.7841,2.7812,0.0,2.6626,0.0,0.0,0.0,0.0,0.0,0.0,0.0,0.0,0.0,0.0,0.0,0.0,0.0,0.0,0.0,0.0,0.0,0.0,0.0,0.0,0.0,0.0,0.0,0.0,0.0,0.0,0.0,0.0,0.0,0.0,0.0,0.0,0.0,0.0,0.0,0.0,0.0,0.0,0.0,0.0,0.0,0.0,0.0,0.0,0.0,0.0,0.0,0.0,0.0,0.0,0.0,0.0,0.0,0.0,0.0,0.0,0.0,0.0,0.0,0.0,0.0,0.0,0.0,0.0,0.0,0.0,0.0,0.0,0.0,0.0,0.0,0.0,0.0,0.0,0.0,0.0,0.0,0.0,0.0,0.0,0.0,0.0,0.0,0.0,0.0,0.0,0.0,0.0,0.0,0.0,0.0,0.0,0.0,0.0,0.0,0.0,0.0,0.0,0.0,0.0,0.0,0.0,0.0,0.0,0.0,0.0,0.0,0.0,0.0,0.0,2.8111,2.7881,2.8111,2.7782,0.0,0.0,0.0,0.0,0.0,0.0,0.0,0.0,0.0,0.0,0.0,0.0,0.0,0.0,0.0,0.0,0.0,0.0,0.0,0.0,0.0,0.0,0.0,0.0,0.0,0.0,0.0,0.0,0.0,0.0,0.0,0.0,0.0,0.0,0.0,0.0,0.0,0.0,0.0,0.0,0.0,0.0,0.0,0.0,0.0,0.0,0.0,0.0,0.0,0.0,0.0,0.0,0.0,0.0,0.0,0.0,0.0,0.0,0.0,0.0,0.0,0.0,0.0,0.0,0.0,0.0,0.0,0.0,0.0,0.0,0.0,0.0,0.0,0.0,0.0,0.0,0.0,0.0,0.0,0.0,0.0,0.0,0.0,0.0,0.0,0.0,0.0,0.0,0.0,0.0,0.0,0.0,0.0,0.0,0.0,0.0,0.0,0.0,0.0,0.0,0.0,0.0,0.0,0.0,0.0,0.0,0.0,0.0,0.0,0.0,2.8538,2.8391,2.8243,2.851,2.8213,2.7271,0.0,0.0,0.0,0.0,0.0,0.0,0.0,0.0,0.0,0.0,0.0,0.0,0.0,0.0,0.0,0.0,0.0,0.0,0.0,0.0,0.0,0.0,0.0,0.0,0.0,0.0,0.0,0.0,0.0,0.0,0.0,0.0,0.0,0.0,0.0,0.0,0.0,0.0,0.0,0.0,0.0,0.0,0.0,0.0,0.0,0.0,0.0,0.0,0.0,0.0,0.0,0.0,0.0,0.0,0.0,0.0,0.0,0.0,0.0,0.0,0.0,0.0,0.0,0.0,0.0,0.0,0.0,0.0,0.0,0.0,0.0,0.0,0.0,0.0,0.0,0.0,0.0,0.0,0.0,0.0,0.0,0.0,0.0,0.0,0.0,0.0,0.0,0.0,0.0,0.0,0.0,0.0,0.0,0.0,0.0,0.0,0.0,0.0,0.0,0.0,0.0,0.0,0.0,0.0,0.0,0.0,0.0,0.0,2.9091,2.9052,2.9064,2.9052,2.9052,2.873,0.0,0.0,0.0,0.0,0.0,0.0,0.0,0.0,0.0,0.0,0.0,0.0,0.0,0.0,0.0,0.0,0.0,0.0,0.0,0.0,0.0,0.0,0.0,0.0,0.0,0.0,0.0,0.0,0.0,0.0,0.0,0.0,0.0,0.0,0.0,0.0,0.0,0.0,0.0,0.0,0.0,0.0,0.0,0.0,0.0,0.0,0.0,0.0,0.0,0.0,0.0,0.0,0.0,0.0,0.0,0.0,0.0,0.0,0.0,0.0,0.0,0.0,0.0,0.0,0.0,0.0,0.0,0.0,0.0,0.0,0.0,0.0,0.0,0.0,0.0,0.0,0.0,0.0,0.0,0.0,0.0,0.0,0.0,0.0,0.0,0.0,0.0,0.0,0.0,0.0,0.0,0.0,0.0,0.0,0.0,0.0,0.0,0.0,0.0,0.0,0.0,0.0,0.0,0.0,0.0,0.0,0.0,0.0,0.0,2.9585,2.9392,2.9275,2.9302,2.956,2.9341,0.0,0.0,0.0,0.0,0.0,0.0,0.0,0.0,0.0,0.0,0.0,0.0,0.0,0.0,0.0,0.0,0.0,0.0,0.0,0.0,0.0,0.0,0.0,0.0,0.0,0.0,0.0,0.0,0.0,0.0,0.0,0.0,0.0,0.0,0.0,0.0,0.0,0.0,0.0,0.0,0.0,0.0,0.0,0.0,0.0,0.0,0.0,0.0,0.0,0.0,0.0,0.0,0.0,0.0,0.0,0.0,0.0,0.0,0.0,0.0,0.0,0.0,0.0,0.0,0.0,0.0,0.0,0.0,0.0,0.0,0.0,0.0,0.0,0.0,0.0,0.0,0.0,0.0,0.0,0.0,0.0,0.0,0.0,0.0,0.0,0.0,0.0,0.0,0.0,0.0,0.0,0.0,0.0,0.0,0.0,0.0,0.0,0.0,0.0,0.0,0.0,0.0,0.0,0.0,0.0,0.0,0.0,0.0,0.0,3.0011,0.0,2.9651,2.9729,3.0101,2.9805,0.0,0.0,0.0,0.0,0.0,0.0,0.0,0.0,0.0,0.0,0.0,0.0,0.0,0.0,0.0,0.0,0.0,0.0,0.0,0.0,0.0,0.0,0.0,0.0,0.0,0.0,0.0,0.0,0.0,0.0,0.0,0.0,0.0,0.0,0.0,0.0,0.0,0.0,0.0,0.0,0.0,0.0,0.0,0.0,0.0,0.0,0.0,0.0,0.0,0.0,0.0,0.0,0.0,0.0,0.0,0.0,0.0,0.0,0.0,0.0,0.0,0.0,0.0,0.0,0.0,0.0,0.0,0.0,0.0,0.0,0.0,0.0,0.0,0.0,0.0,0.0,0.0,0.0,0.0,0.0,0.0,0.0,0.0,0.0,0.0,0.0,0.0,0.0,0.0,0.0,0.0,0.0,0.0,0.0,0.0,0.0,0.0,0.0,0.0,0.0,0.0,0.0,0.0,0.0,0.0,0.0,0.0,0.0,3.0823,3.0406,3.0228,3.0228,3.0406,3.0609,3.0266,0.0,0.0,0.0,0.0,0.0,0.0,0.0,0.0,0.0,0.0,0.0,0.0,0.0,0.0,0.0,0.0,0.0,0.0,0.0,0.0,0.0,0.0,0.0,0.0,0.0,0.0,0.0,0.0,0.0,0.0,0.0,0.0,0.0,0.0,0.0,0.0,0.0,0.0,0.0,0.0,0.0,0.0,0.0,0.0,0.0,0.0,0.0,0.0,0.0,0.0,0.0,0.0,0.0,0.0,0.0,0.0,0.0,0.0,0.0,0.0,0.0,0.0,0.0,0.0,0.0,0.0,0.0,0.0,0.0,0.0,0.0,0.0,0.0,0.0,0.0,0.0,0.0,0.0,0.0,0.0,0.0,0.0,0.0,0.0,0.0,0.0,0.0,0.0,0.0,0.0,0.0,0.0,0.0,0.0,0.0,0.0,0.0,0.0,0.0,0.0,0.0,0.0,0.0,0.0,0.0,0.0,0.0,0.0,0.0,3.0823,3.0861,3.096,3.1011,3.136,3.1036,0.0,0.0,0.0,0.0,0.0,0.0,0.0,0.0,0.0,0.0,0.0,0.0,0.0,0.0,0.0,0.0,0.0,0.0,0.0,0.0,0.0,0.0,0.0,0.0,0.0,0.0,0.0,0.0,0.0,0.0,0.0,0.0,0.0,0.0,0.0,0.0,0.0,0.0,0.0,0.0,0.0,0.0,0.0,0.0,0.0,0.0,0.0,0.0,0.0,0.0,0.0,0.0,0.0,0.0,0.0,0.0,0.0,0.0,0.0,0.0,0.0,0.0,0.0,0.0,0.0,0.0,0.0,0.0,0.0,0.0,0.0,0.0,0.0,0.0,0.0,0.0,0.0,0.0,0.0,0.0,0.0,0.0,0.0,0.0,0.0,0.0,0.0,0.0,0.0,0.0,0.0,0.0,0.0,0.0,0.0,0.0,0.0,0.0,0.0,0.0,0.0,0.0,0.0,0.0,0.0,0.0,0.0,0.0,0.0,3.1519,3.1532,3.1545,3.1532,3.1973,3.1656,3.059,0.0,0.0,0.0,0.0,0.0,0.0,0.0,0.0,0.0,0.0,0.0,0.0,0.0,0.0,0.0,0.0,0.0,0.0,0.0,0.0,0.0,0.0,0.0,0.0,0.0,0.0,0.0,0.0,0.0,0.0,0.0,0.0,0.0,0.0,0.0,0.0,0.0,0.0,0.0,0.0,0.0,0.0,0.0,0.0,0.0,0.0,0.0,0.0,0.0,0.0,0.0,0.0,0.0,0.0,0.0,0.0,0.0,0.0,0.0,0.0,0.0,0.0,0.0,0.0,0.0,0.0,0.0,0.0,0.0,0.0,0.0,0.0,0.0,0.0,0.0,0.0,0.0,0.0,0.0,0.0,0.0,0.0,0.0,0.0,0.0,0.0,0.0,0.0,0.0,0.0,0.0,0.0,0.0,0.0,0.0,0.0,0.0,0.0,0.0,0.0,0.0,0.0,0.0,0.0,0.0,0.0,0.0,0.0,3.2417,3.2119,3.1963,3.195,3.2503,3.2207,0.0,0.0,0.0,0.0,0.0,0.0,0.0,0.0,0.0,0.0,0.0,0.0,0.0,0.0,0.0,0.0,0.0,0.0,0.0,0.0,0.0,0.0,0.0,0.0,0.0,0.0,0.0,0.0,0.0,0.0,0.0,0.0,0.0,0.0,0.0,0.0,0.0,0.0,0.0,0.0,0.0,0.0,0.0,0.0,0.0,0.0,0.0,0.0,0.0,0.0,0.0,0.0,0.0,0.0,0.0,0.0,0.0,0.0,0.0,0.0,0.0,0.0,0.0,0.0,0.0,0.0,0.0,0.0,0.0,0.0,0.0,0.0,0.0,0.0,0.0,0.0,0.0,0.0,0.0,0.0,0.0,0.0,0.0,0.0,0.0,0.0,0.0,0.0,0.0,0.0,0.0,0.0,0.0,0.0,0.0,0.0,0.0,0.0,0.0,0.0,0.0,0.0,0.0,0.0,0.0,0.0,0.0,0.0,0.0,3.281,3.2909,3.2888,3.2717,3.3248,3.2919,0.0,0.0,0.0,0.0,0.0,0.0,0.0,0.0,0.0,0.0,0.0,0.0,0.0,0.0,0.0,0.0,0.0,0.0,0.0,0.0,0.0,0.0,0.0,0.0,0.0,0.0,0.0,0.0,0.0,0.0,0.0,0.0,0.0,0.0,0.0,0.0,0.0,0.0,0.0,0.0,0.0,0.0,0.0,0.0,0.0,0.0,0.0,0.0,0.0,0.0,0.0,0.0,0.0,0.0,0.0,0.0,0.0,0.0,0.0,0.0,0.0,0.0,0.0,0.0,0.0,0.0,0.0,0.0,0.0,0.0,0.0,0.0,0.0,0.0,0.0,0.0,0.0,0.0,0.0,0.0,0.0,0.0,0.0,0.0,0.0,0.0,0.0,0.0,0.0,0.0,0.0,0.0,0.0,0.0,0.0,0.0,0.0,0.0,0.0,0.0,0.0,0.0,0.0,0.0,0.0,0.0,0.0,0.0,3.3002,3.3108,3.3556,3.375,3.3736,3.3908,3.3509,0.0,0.0,0.0,0.0,0.0,0.0,0.0,0.0,0.0,0.0,0.0,0.0,0.0,0.0,0.0,0.0,0.0,0.0,0.0,0.0,0.0,0.0,0.0,0.0,0.0,0.0,0.0,0.0,0.0,0.0,0.0,0.0,0.0,0.0,0.0,0.0,0.0,0.0,0.0,0.0,0.0,0.0,0.0,0.0,0.0,0.0,0.0,0.0,0.0,0.0,0.0,0.0,0.0,0.0,0.0,0.0,0.0,0.0,0.0,0.0,0.0,0.0,0.0,0.0,0.0,0.0,0.0,0.0,0.0,0.0,0.0,0.0,0.0,0.0,0.0,0.0,0.0,0.0,0.0,0.0,0.0,0.0,0.0,0.0,0.0,0.0,0.0,0.0,0.0,0.0,0.0,0.0,0.0,0.0,0.0,0.0,0.0,0.0,0.0,0.0,0.0,0.0,0.0,0.0,0.0,0.0,0.0,0.0,3.3396,3.3431,3.4074,3.4549,3.4765,3.4524,3.3948,0.0,0.0,0.0,0.0,0.0,0.0,0.0,0.0,0.0,0.0,0.0,0.0,0.0,0.0,0.0,0.0,0.0,0.0,0.0,0.0,0.0,0.0,0.0,0.0,0.0,0.0,0.0,0.0,0.0,0.0,0.0,0.0,0.0,0.0,0.0,0.0,0.0,0.0,0.0,0.0,0.0,0.0,0.0,0.0,0.0,0.0,0.0,0.0,0.0,0.0,0.0,0.0,0.0,0.0,0.0,0.0,0.0,0.0,0.0,0.0,0.0,0.0,0.0,0.0,0.0,0.0,0.0,0.0,0.0,0.0,0.0,0.0,0.0,0.0,0.0,0.0,0.0,0.0,0.0,0.0,0.0,0.0,0.0,0.0,0.0,0.0,0.0,0.0,0.0,0.0,0.0,0.0,0.0,0.0,0.0,0.0,0.0,0.0,0.0,0.0,0.0,0.0,0.0,0.0,0.0,0.0,0.0,0.0,3.3931,3.4176,3.4448,3.4865,3.5294,3.4741,3.4198,0.0,0.0,0.0,0.0,0.0,0.0,0.0,0.0,0.0,0.0,0.0,0.0,0.0,0.0,0.0,0.0,0.0,0.0,0.0,0.0,0.0,0.0,0.0,0.0,0.0,0.0,0.0,0.0,0.0,0.0,0.0,0.0,0.0,0.0,0.0,0.0,0.0,0.0,0.0,0.0,0.0,0.0,0.0,0.0,0.0,0.0,0.0,0.0,4.0036,0.0,0.0,0.0,0.0,0.0,0.0,0.0,0.0,0.0,0.0,0.0,0.0,0.0,0.0,0.0,0.0,0.0,0.0,0.0,0.0,0.0,0.0,0.0,0.0,0.0,0.0,0.0,0.0,0.0,0.0,0.0,0.0,0.0,0.0,0.0,0.0,0.0,0.0,0.0,0.0,0.0,0.0,0.0,0.0,0.0,0.0,0.0,0.0,0.0,0.0,0.0,0.0,0.0,0.0,0.0,0.0,0.0,0.0,0.0,3.4225,3.4414,3.4817,3.5294,3.5671,3.4862,3.4349,0.0,0.0,0.0,0.0,0.0,0.0,0.0,0.0,0.0,0.0,0.0,0.0,0.0,0.0,0.0,0.0,0.0,0.0,0.0,0.0,0.0,0.0,0.0,0.0,0.0,0.0,0.0,0.0,0.0,0.0,0.0,0.0,0.0,0.0,0.0,0.0,0.0,0.0,0.0,0.0,0.0,0.0,0.0,0.0,0.0,0.0,0.0,0.0,0.0,0.0,0.0,0.0,0.0,0.0,0.0,0.0,0.0,0.0,0.0,0.0,0.0,0.0,0.0,0.0,0.0,0.0,0.0,0.0,0.0,0.0,0.0,0.0,0.0,0.0,0.0,0.0,0.0,0.0,0.0,0.0,0.0,0.0,0.0,0.0,0.0,0.0,0.0,0.0,0.0,0.0,0.0,0.0,0.0,0.0,0.0,0.0,0.0,0.0,0.0,0.0,0.0,0.0,0.0,0.0,0.0,0.0,0.0,3.4327,3.4481,3.4582,3.5228,3.5655,3.5886,3.5016,3.4572,3.4607,0.0,0.0,0.0,0.0,0.0,0.0,0.0,0.0,0.0,0.0,0.0,0.0,0.0,0.0,0.0,0.0,0.0,0.0,0.0,0.0,0.0,0.0,0.0,0.0,0.0,0.0,0.0,0.0,0.0,0.0,0.0,0.0,0.0,0.0,0.0,0.0,0.0,0.0,3.9583,3.9811,0.0,0.0,0.0,0.0,0.0,0.0,0.0,0.0,3.99,0.0,0.0,0.0,0.0,0.0,0.0,0.0,0.0,0.0,0.0,0.0,0.0,0.0,0.0,0.0,0.0,0.0,0.0,0.0,0.0,0.0,0.0,0.0,0.0,0.0,0.0,0.0,0.0,0.0,0.0,0.0,0.0,0.0,0.0,0.0,0.0,0.0,0.0,0.0,0.0,0.0,0.0,0.0,0.0,0.0,0.0,0.0,0.0,0.0,0.0,0.0,0.0,0.0,0.0,0.0,0.0,3.4735,3.4683,3.4865,3.5309,3.5701,3.5794,3.5508,3.5299,3.5007,3.47,0.0,0.0,0.0,0.0,0.0,0.0,0.0,0.0,0.0,0.0,0.0,0.0,0.0,0.0,0.0,0.0,0.0,0.0,0.0,0.0,0.0,0.0,0.0,0.0,0.0,0.0,0.0,0.0,0.0,0.0,0.0,0.0,0.0,0.0,0.0,0.0,0.0,0.0,0.0,3.9754,3.9815,0.0,0.0,0.0,0.0,0.0,0.0,0.0,0.0,3.9922,0.0,0.0,0.0,0.0,0.0,0.0,0.0,0.0,0.0,0.0,0.0,0.0,0.0,0.0,0.0,0.0,0.0,0.0,0.0,0.0,0.0,0.0,0.0,0.0,0.0,0.0,0.0,0.0,0.0,0.0,0.0,0.0,0.0,0.0,0.0,0.0,0.0,0.0,0.0,0.0,0.0,0.0,0.0,0.0,0.0,0.0,0.0,0.0,0.0,0.0,0.0,0.0,0.0,0.0,0.0,3.4887,3.485,3.503,3.5504,3.5878,3.5921,3.5566,3.5381,3.5153,0.0,0.0,0.0,0.0,0.0,0.0,0.0,0.0,0.0,0.0,0.0,0.0,0.0,0.0,0.0,0.0,0.0,0.0,0.0,0.0,0.0,0.0,0.0,0.0,0.0,0.0,0.0,0.0,0.0,0.0,0.0,0.0,0.0,0.0,0.0,0.0,0.0,0.0,0.0,0.0,3.963,3.9701,3.9792,0.0,0.0,0.0,0.0,0.0,0.0,3.99,3.9922,0.0,0.0,0.0,0.0,0.0,0.0,0.0,0.0,0.0,0.0,0.0,0.0,0.0,0.0,0.0,0.0,0.0,0.0,0.0,0.0,0.0,0.0,0.0,0.0,0.0,0.0,0.0,0.0,0.0,0.0,0.0,0.0,0.0,0.0,0.0,0.0,0.0,0.0,0.0,0.0,0.0,0.0,0.0,0.0,0.0,0.0,0.0,0.0,0.0,0.0,0.0,0.0,0.0,0.0,0.0,3.5016,3.5049,3.5213,3.5602,3.6068,3.6138,3.5746,3.554,3.5263,0.0,0.0,0.0,0.0,0.0,0.0,0.0,0.0,0.0,0.0,0.0,0.0,0.0,0.0,0.0,0.0,0.0,0.0,0.0,0.0,0.0,0.0,0.0,0.0,0.0,0.0,0.0,0.0,0.0,0.0,0.0,0.0,0.0,0.0,0.0,0.0,0.0,0.0,0.0,0.0,0.0,3.9563,3.9724,3.977,0.0,0.0,0.0,0.0,3.99,3.99,0.0,0.0,0.0,0.0,0.0,0.0,0.0,0.0,0.0,0.0,0.0,0.0,0.0,0.0,0.0,0.0,0.0,0.0,0.0,0.0,0.0,0.0,0.0,0.0,0.0,0.0,0.0,0.0,0.0,0.0,0.0,0.0,0.0,0.0,0.0,0.0,0.0,0.0,0.0,0.0,0.0,0.0,0.0,0.0,0.0,0.0,0.0,0.0,0.0,0.0,0.0,0.0,0.0,0.0,0.0,0.0,3.5439,3.5424,3.5572,3.5957,3.6399,3.6383,3.5879,3.5811,3.554,0.0,0.0,0.0,0.0,0.0,0.0,0.0,0.0,0.0,0.0,0.0,0.0,0.0,0.0,0.0,0.0,0.0,0.0,0.0,0.0,0.0,0.0,0.0,0.0,0.0,0.0,0.0,0.0,0.0,0.0,0.0,0.0,0.0,0.0,0.0,0.0,0.0,0.0,0.0,0.0,0.0,3.9514,3.9539,3.9642,3.9735,0.0,0.0,3.9826,3.9889,3.99,0.0,0.0,0.0,0.0,0.0,0.0,0.0,0.0,0.0,0.0,0.0,0.0,0.0,0.0,0.0,0.0,0.0,0.0,0.0,0.0,0.0,0.0,0.0,0.0,0.0,0.0,0.0,0.0,0.0,0.0,0.0,0.0,0.0,0.0,0.0,0.0,0.0,0.0,0.0,0.0,0.0,0.0,0.0,0.0,0.0,0.0,0.0,0.0,0.0,0.0,0.0,0.0,0.0,0.0,0.0,3.5279,3.5504,3.5489,3.5636,3.6005,3.6476,3.6459,3.5909,3.5839,3.5578,0.0,0.0,0.0,0.0,0.0,0.0,0.0,0.0,0.0,0.0,0.0,0.0,0.0,0.0,0.0,0.0,0.0,0.0,0.0,0.0,0.0,0.0,0.0,0.0,0.0,0.0,0.0,0.0,0.0,0.0,0.0,0.0,0.0,0.0,0.0,0.0,0.0,0.0,0.0,0.0,0.0,0.0,3.9502,3.9594,0.0,0.0,0.0,3.9766,3.977,0.0,0.0,0.0,0.0,0.0,0.0,0.0,0.0,0.0,0.0,0.0,0.0,0.0,0.0,0.0,0.0,0.0,0.0,0.0,0.0,0.0,0.0,0.0,0.0,0.0,0.0,0.0,0.0,0.0,0.0,0.0,0.0,0.0,0.0,0.0,0.0,0.0,0.0,0.0,0.0,0.0,0.0,0.0,0.0,0.0,0.0,0.0,0.0,0.0,0.0,0.0,0.0,0.0,0.0,0.0,0.0,0.0,3.5504,3.5587,3.5733,3.6005,3.6507,3.6567,3.6204,3.5934,0.0,0.0,0.0,0.0,0.0,0.0,0.0,0.0,0.0,0.0,0.0,0.0,0.0,0.0,0.0,0.0,0.0,0.0,0.0,0.0,0.0,0.0,0.0,0.0,0.0,0.0,0.0,3.8643,0.0,0.0,0.0,0.0,0.0,0.0,0.0,0.0,0.0,0.0,0.0,0.0,0.0,0.0,3.9367,3.9414,3.9558,3.965,0.0,0.0,3.9708,3.9708,3.9708,3.9743,0.0,0.0,0.0,0.0,0.0,0.0,0.0,0.0,0.0,0.0,0.0,0.0,0.0,0.0,0.0,0.0,0.0,0.0,0.0,0.0,0.0,0.0,0.0,0.0,0.0,0.0,0.0,0.0,0.0,0.0,0.0,0.0,0.0,0.0,0.0,0.0,0.0,0.0,0.0,0.0,0.0,0.0,0.0,0.0,0.0,0.0,0.0,0.0,0.0,0.0,0.0,0.0,0.0,0.0,0.0,3.5504,3.5797,3.5973,3.6037,3.6616,3.6953,3.6906,3.6188,3.5899,0.0,0.0,0.0,0.0,0.0,0.0,0.0,0.0,0.0,0.0,0.0,0.0,0.0,0.0,0.0,0.0,0.0,0.0,0.0,0.0,0.0,0.0,0.0,0.0,0.0,0.0,0.0,0.0,0.0,0.0,0.0,0.0,0.0,0.0,0.0,0.0,0.0,0.0,0.0,0.0,0.0,3.921,3.9224,3.938,3.9514,0.0,0.0,3.9698,3.9708,3.9708,3.9743,3.9792,0.0,0.0,0.0,0.0,0.0,0.0,0.0,0.0,0.0,0.0,0.0,0.0,0.0,0.0,0.0,0.0,0.0,0.0,0.0,0.0,0.0,0.0,0.0,0.0,0.0,0.0,0.0,0.0,0.0,0.0,0.0,0.0,0.0,0.0,0.0,0.0,0.0,0.0,0.0,0.0,0.0,0.0,0.0,0.0,0.0,0.0,0.0,0.0,0.0,0.0,0.0,0.0,0.0,3.5554,3.5621,3.5878,3.61,3.6336,3.6754,3.703,3.7119,3.6689,3.6617,0.0,0.0,0.0,0.0,0.0,0.0,0.0,0.0,0.0,0.0,0.0,0.0,0.0,0.0,0.0,0.0,0.0,0.0,0.0,0.0,0.0,0.0,0.0,0.0,0.0,0.0,0.0,0.0,3.8252,3.817,3.8072,0.0,0.0,0.0,0.0,0.0,0.0,0.0,0.0,0.0,0.0,3.9156,3.9197,3.9328,0.0,0.0,3.9514,3.9564,3.9577,3.9607,3.9674,3.9715,3.9789,0.0,0.0,0.0,0.0,0.0,0.0,0.0,0.0,0.0,0.0,0.0,0.0,0.0,0.0,0.0,0.0,0.0,0.0,0.0,0.0,0.0,0.0,0.0,0.0,0.0,0.0,0.0,0.0,0.0,0.0,0.0,0.0,0.0,0.0,0.0,0.0,0.0,0.0,0.0,0.0,0.0,0.0,0.0,0.0,0.0,0.0,0.0,0.0,0.0,0.0,0.0,0.0,3.5572,3.572,3.5894,3.6163,3.6492,3.6816,3.706,3.7178,3.7017,3.7018,0.0,0.0,0.0,0.0,0.0,0.0,0.0,0.0,0.0,0.0,0.0,0.0,0.0,0.0,0.0,0.0,0.0,0.0,0.0,0.0,0.0,0.0,0.0,0.0,0.0,0.0,0.0,0.0,3.8087,3.7949,3.7864,0.0,0.0,0.0,0.0,0.0,0.0,0.0,0.0,0.0,0.0,3.9078,3.9147,3.9248,3.9315,3.9346,3.9431,3.9469,3.9469,3.9508,3.9552,3.9619,0.0,0.0,0.0,0.0,0.0,0.0,0.0,0.0,0.0,0.0,0.0,0.0,0.0,0.0,0.0,0.0,0.0,0.0,0.0,0.0,0.0,0.0,0.0,0.0,0.0,0.0,0.0,0.0,0.0,0.0,4.21,0.0,0.0,0.0,0.0,0.0,0.0,0.0,0.0,0.0,0.0,0.0,0.0,0.0,0.0,0.0,0.0,0.0,0.0,0.0,0.0,0.0,0.0,3.5587,3.572,3.591,3.6163,3.6476,3.6847,3.709,3.7208,3.7001,3.7034,3.7339,0.0,0.0,0.0,0.0,0.0,0.0,0.0,0.0,0.0,0.0,0.0,0.0,0.0,0.0,0.0,0.0,0.0,0.0,0.0,0.0,0.0,0.0,0.0,0.0,0.0,0.0,3.8018,3.7827,3.7721,0.0,0.0,0.0,0.0,0.0,0.0,0.0,0.0,0.0,0.0,3.8807,3.8939,3.8997,3.9045,3.9129,3.9197,3.9333,3.9405,3.9405,3.9399,3.9419,0.0,0.0,0.0,0.0,0.0,0.0,0.0,0.0,0.0,0.0,0.0,0.0,0.0,0.0,0.0,0.0,0.0,0.0,0.0,0.0,0.0,0.0,0.0,0.0,0.0,0.0,0.0,4.2548,4.249,0.0,0.0,0.0,0.0,0.0,0.0,0.0,0.0,0.0,0.0,0.0,4.0901,4.0517,0.0,0.0,0.0,0.0,0.0,0.0,0.0,0.0,0.0,0.0,0.0,0.0,3.5893,3.6053,3.6116,3.6352,3.6816,3.6938,3.7121,3.7389,3.7491,3.785,3.8417,0.0,0.0,0.0,0.0,0.0,0.0,0.0,0.0,0.0,0.0,0.0,0.0,0.0,0.0,0.0,0.0,0.0,0.0,0.0,0.0,0.0,0.0,0.0,0.0,0.0,3.8002,0.0,0.0,0.0,0.0,0.0,0.0,0.0,0.0,0.0,0.0,0.0,3.8401,3.8658,3.8735,3.8792,3.8925,3.895,3.8993,0.0,0.0,0.0,0.0,0.0,0.0,0.0,0.0,0.0,0.0,0.0,0.0,0.0,0.0,3.7693,3.8001,3.6951,3.6087,3.6315,0.0,0.0,0.0,0.0,0.0,0.0,0.0,0.0,0.0,0.0,0.0,0.0,0.0,0.0,4.2689,0.0,4.2568,0.0,0.0,0.0,0.0,0.0,0.0,0.0,0.0,4.1762,4.148,4.114,4.0813,4.0444,0.0,3.9487,3.899,0.0,0.0,0.0,0.0,0.0,0.0,0.0,0.0,3.6116,3.6211,3.6211,3.6476,3.6969,3.6999,3.7166,3.748,3.7817,3.8303,3.8969,3.9063,3.9376,0.0,0.0,0.0,0.0,0.0,0.0,0.0,0.0,0.0,0.0,0.0,0.0,0.0,0.0,0.0,0.0,0.0,0.0,0.0,0.0,0.0,0.0,0.0,3.7881,0.0,0.0,0.0,0.0,0.0,0.0,0.0,0.0,0.0,3.7914,3.8034,3.8203,3.8449,3.8564,3.8658,3.8807,0.0,0.0,0.0,0.0,0.0,0.0,0.0,3.9419,3.9489,3.9647,3.9778,3.9775,3.9389,3.884,3.8082,0.0,0.0,3.7584,3.6758,3.6064,3.6306,3.6061,3.5779,3.5718,3.5585,3.5438,0.0,0.0,0.0,0.0,0.0,0.0,0.0,0.0,4.2957,4.288,0.0,4.2706,0.0,0.0,0.0,0.0,0.0,4.2432,0.0,0.0,4.1998,4.1727,4.1436,4.1163,4.0836,4.0517,4.0062,3.961,3.9189,3.8246,0.0,0.0,0.0,0.0,0.0,0.0,3.6242,3.6227,3.6227,3.6476,3.6969,3.7015,3.7197,3.751,3.7873,3.8355,3.8969,3.9556,4.0079,4.0563,4.1214,0.0,0.0,0.0,0.0,0.0,0.0,0.0,0.0,0.0,0.0,0.0,0.0,0.0,0.0,0.0,0.0,0.0,0.0,0.0,0.0,3.8003,0.0,0.0,0.0,0.0,0.0,0.0,0.0,0.0,0.0,0.0,3.7685,3.7931,3.8085,3.8101,0.0,0.0,0.0,0.0,3.8765,3.8983,3.9011,3.905,3.917,3.9229,3.9253,3.9433,0.0,0.0,3.918,3.8646,3.8001,3.7209,3.7091,3.7421,3.8196,3.7051,3.6257,3.6909,3.637,3.5807,3.5713,3.557,3.5423,4.3779,0.0,0.0,0.0,0.0,4.3444,4.3358,4.3232,4.3196,4.3142,4.3087,4.2993,0.0,0.0,0.0,0.0,0.0,0.0,4.2729,4.2652,4.2492,4.2292,4.2092,4.1709,4.1338,4.1047,4.0707,4.0302,3.991,3.943,3.8695,3.7754,0.0,0.0,0.0,0.0,3.6906,3.6922,3.6831,3.6892,3.715,3.715,3.73,3.7612,3.7876,3.8246,3.8832,3.9408,3.9986,4.058,4.1249,0.0,0.0,0.0,0.0,0.0,0.0,0.0,0.0,0.0,0.0,0.0,0.0,0.0,0.0,0.0,0.0,0.0,0.0,0.0,3.8003,3.7828,3.7667,0.0,0.0,0.0,0.0,0.0,0.0,0.0,0.0,0.0,3.7685,3.7845,3.7984,0.0,0.0,3.8387,3.8544,3.8559,3.8652,3.891,0.0,0.0,0.0,3.929,3.9214,3.8846,3.8572,3.8216,3.7662,3.7491,3.7187,3.6404,3.6279,3.642,3.6601,3.6317,3.6011,3.6137,3.5931,3.5679,3.5585,3.5451,3.5296,4.4128,4.3998,4.3812,4.3747,4.3716,4.3666,4.3599,4.3496,4.3443,4.339,4.3339,4.3251,4.3178,4.3178,4.3068,0.0,0.0,0.0,4.2994,4.2957,4.286,4.2727,4.2516,4.2218,4.1931,4.1674,4.141,4.1053,4.0631,4.0422,3.9826,3.8914,0.0,0.0,3.777,3.7682,3.7581,3.7403,3.724,3.7194,3.7284,3.7329,3.7449,3.77,3.7831,3.816,3.8777,3.9348,3.9995,4.0659,4.1328,4.1895,0.0,0.0,0.0,0.0,0.0,0.0,0.0,0.0,0.0,0.0,0.0,4.0623,4.0081,0.0,0.0,0.0,3.8407,3.8123,3.7951,3.788,0.0,0.0,0.0,0.0,0.0,0.0,0.0,3.7504,3.7595,3.7667,3.7775,3.7863,3.7967,3.8034,3.8172,3.8323,3.8446,0.0,3.8588,3.8866,3.895,3.8934,3.8809,3.8908,3.8811,3.8288,3.7759,3.7343,3.6996,3.675,3.643,3.6038,3.5961,3.6015,3.6009,3.5942,3.5883,3.5814,3.5756,3.5654,3.5507,3.5402,3.525,4.4373,4.4318,4.4131,4.3989,4.3929,4.3929,4.3883,4.3786,4.3682,4.3631,4.3579,4.3425,4.3339,4.332,4.3268,0.0,4.3251,4.3251,4.3233,4.3142,4.3141,4.3012,4.2788,4.2769,4.2577,4.2277,4.2118,4.1846,4.1415,4.1258,4.0978,4.0521,3.9655,3.8974,3.8467,3.8411,3.8201,3.7817,3.7565,3.7476,3.7417,3.7449,3.7569,3.77,3.7847,3.8205,3.8788,3.9454,4.0128,4.0825,4.1529,4.2082,4.2414,0.0,0.0,0.0,0.0,0.0,0.0,0.0,0.0,0.0,0.0,0.0,0.0,0.0,0.0,0.0,3.868,0.0,3.8036,3.8018,0.0,0.0,0.0,3.7685,3.7649,3.7631,3.7667,3.7721,0.0,0.0,3.7916,0.0,3.8035,3.8035,3.8122,3.8257,3.8385,3.8371,3.8493,3.8715,3.8836,3.8704,3.8191,3.8155,3.8042,3.766,3.7061,3.6659,3.6707,3.6295,3.5891,3.5914,3.5966,3.6016,3.6018,3.5945,3.588,3.5804,3.5747,3.5639,3.5496,3.5386,3.5209,4.4473,4.4458,4.4397,4.431,4.4211,4.4211,4.4101,4.3942,4.3926,4.383,4.3753,4.3703,4.3686,4.3686,4.3669,4.3652,4.3652,4.3652,4.3654,4.3618,4.3513,4.3443,4.339,4.3213,4.3087,4.2957,4.2769,4.2537,4.2221,4.2136,4.1888,4.1539,4.1213,4.0518,3.9463,3.9226,3.8984,3.8689,3.8298,3.7943,3.7626,3.7569,3.7569,3.77,3.7931,3.8399,3.9071,3.9645,4.0351,4.1214,4.1766,4.2231,4.2614,4.2899,0.0,0.0,0.0,0.0,0.0,0.0,0.0,0.0,0.0,4.2232,4.1506,0.0,4.0038,0.0,3.8746,3.8257,3.8241,3.8136,0.0,0.0,3.8,3.8,3.7983,3.7984,3.7983,3.8,3.8086,3.8191,3.8207,3.8254,3.8302,3.8302,3.8271,3.8305,3.8382,3.7979,3.7746,3.796,3.7659,3.7303,3.734,3.7028,3.6844,3.6845,3.6302,3.5908,3.5975,3.5931,3.5899,3.5963,3.599,3.6015,3.6017,3.5942,3.5891,3.5807,3.5698,3.5571,3.5438,3.5323,3.5168,4.4482,4.4482,4.4482,4.4458,4.4406,4.4358,4.4285,4.4147,4.4131,4.407,4.3982,4.3883,4.3818,4.3804,4.3788,4.3788,4.3788,4.3788,4.3788,4.3788,4.3718,4.3682,4.3682,4.3565,4.3479,4.3374,4.3268,4.3105,4.2847,4.2788,4.2434,4.1817,4.1655,4.0965,3.9853,3.9895,3.9757,3.9454,3.8838,3.8315,3.7902,3.7801,3.7801,3.7889,3.8189,3.8634,3.9286,3.9927,4.0642,4.1436,4.2023,4.2492,4.2826,4.3105,4.3304,0.0,0.0,0.0,0.0,0.0,0.0,0.0,0.0,0.0,0.0,0.0,4.0161,0.0,3.8625,3.8385,3.8385,3.8368,3.8352,3.8283,3.8265,3.8285,3.8252,3.8236,3.8218,3.8252,3.8303,3.8354,3.8336,3.8366,3.8271,3.7927,3.7874,3.7872,3.7875,3.7341,3.7024,3.7234,3.7041,3.6794,3.6734,3.6207,3.5861,3.6009,3.5791,3.5643,3.5721,3.5836,3.5926,3.5988,3.6011,3.6014,3.6017,3.5942,3.5869,3.5792,3.5684,3.5554,3.5425,3.5308,3.5132,4.4651,4.4665,4.4538,4.4482,4.4501,4.4426,4.4387,4.4314,4.4314,4.427,4.4199,4.4026,4.3915,4.3869,4.3869,4.3851,4.3851,4.3853,4.3853,4.3853,4.3837,4.3837,4.3837,4.3818,4.3751,4.3629,4.3647,4.3546,4.3374,4.3304,4.2777,4.1814,4.1612,4.0972,3.9988,4.0315,4.0323,3.9918,3.9136,3.858,3.8242,3.8214,3.8185,3.8242,3.8539,3.893,3.9399,4.0124,4.0834,4.1516,4.2149,4.2659,4.3032,4.3356,4.3526,0.0,4.3584,0.0,0.0,0.0,0.0,0.0,0.0,0.0,0.0,4.117,4.0074,3.8574,3.851,3.8556,3.8556,3.8655,3.867,3.8572,3.8538,3.8525,3.8462,3.8446,3.8446,3.843,3.843,3.843,3.8449,3.8449,3.8157,3.7463,3.7232,3.7164,3.7074,3.6577,3.6265,3.6517,3.6634,3.6393,3.6082,3.5576,3.5296,3.5409,3.5546,3.5644,3.5797,3.5862,3.5926,3.5986,3.6011,3.6014,3.6017,3.5942,3.5869,3.583,3.5679,3.5554,3.5425,3.5289,3.5132,4.5491,4.5416,4.4763,4.4482,4.4501,4.4487,4.444,4.4368,4.4368,4.4358,4.427,4.424,4.4226,4.4211,4.4211,4.4229,4.4195,4.4153,4.4123,4.4123,4.4008,4.3976,4.3976,4.3958,4.3929,4.3849,4.383,4.38,4.3703,4.3686,4.3195,4.2288,4.208,4.1522,4.0635,0.0,0.0,0.0,3.8849,3.8671,3.8984,3.8788,3.8761,3.8974,3.9152,0.0,3.9416,3.9847,4.0478,4.125,4.1699,0.0,0.0,0.0,0.0,0.0,0.0,0.0,0.0,0.0,0.0,0.0,4.1755,4.1667,4.1209,4.0561,3.9764,3.8823,3.8788,3.8818,3.8818,3.8833,3.8851,3.8833,3.8818,3.8803,3.8747,3.8713,3.8698,3.8658,3.8643,3.8643,3.8627,3.8643,3.8331,3.7506,3.6956,3.6352,3.5777,3.5569,3.5552,3.5684,3.551,3.5289,3.5211,3.5231,3.5227,3.5371,3.5507,3.5664,3.5778,3.5843,3.5926,3.5986,3.6011,3.6014,3.6017,3.5945,3.5888,3.5795,3.5699,3.5574,3.5425,3.5289,3.5132,4.6092,0.0,4.5266,4.4857,0.0,4.4482,4.4487,4.444,4.4458,4.4411,4.434,4.4314,4.4318,4.4318,4.4318,4.4318,4.4318,4.4274,4.4229,4.4199,4.4135,4.407,4.4005,4.4005,4.3974,4.3942,4.3942,4.3945,4.3915,4.3849,4.3208,4.1978,4.1765,4.1009,3.9776,3.9263,3.9039,3.9117,3.9078,3.9114,3.9211,3.94,3.9391,3.9168,0.0,0.0,0.0,0.0,0.0,0.0,0.0,0.0,0.0,0.0,0.0,4.2285,4.2321,4.2145,4.1692,4.1683,4.1497,4.1096,4.0687,4.0498,4.0603,3.9936,3.9324,3.8903,3.891,3.8935,3.8954,3.8979,3.8979,3.8968,3.8954,3.8925,3.8822,3.8788,3.8762,3.8723,3.8707,3.8707,3.8707,3.8707,3.8193,3.7125,3.6632,3.5984,3.4927,3.4689,3.4772,3.5009,3.4953,3.4877,3.503,3.5134,3.5246,3.5371,3.5507,3.5644,3.5782,3.5866,3.5926,3.5988,3.6011,3.6014,3.5998,3.5923,3.5888,3.5811,3.5679,3.5554,3.5425,3.5289,3.5141,4.6786,4.6129,4.5998,4.5472,4.4688,4.4688,4.4632,4.4482,0.0,0.0,0.0,4.4358,4.4344,4.4348,4.4329,4.4329,4.4329,4.4329,4.4285,4.4244,4.4229,4.415,4.4055,4.402,4.4039,4.4005,4.4005,4.4005,4.4005,4.3945,4.319,4.1822,4.1406,4.0378,3.8802,3.8303,3.8348,3.8878,3.9203,3.9324,3.9232,3.973,3.9717,3.9142,3.9301,3.9212,3.8835,3.931,3.9779,4.0185,4.0588,4.099,4.14,4.159,4.1651,4.1642,4.1705,4.1643,4.144,4.148,4.1212,4.0504,3.9836,3.9613,4.0043,3.9453,3.9036,3.895,3.9011,3.9036,3.9021,3.9078,3.9073,3.9021,3.9007,3.8964,3.8866,3.8803,3.8792,3.8719,3.8707,3.8707,3.8707,3.8707,3.8175,3.6901,3.6517,3.5864,3.448,3.4179,3.4332,3.4603,3.4735,3.4868,3.5067,3.5162,3.5254,3.5371,3.5507,3.5644,3.5763,3.5862,3.5926,3.6006,3.6011,3.6014,3.5998,3.5923,3.5888,3.5792,3.5699,3.5574,3.5444,3.5308,3.5141,4.7932,4.7781,4.7105,4.6336,4.5528,4.5528,4.5134,4.4501,4.4482,4.4501,4.4487,4.4473,4.4473,4.4454,4.4473,4.4454,4.4473,4.4397,4.4368,0.0,4.4314,4.424,4.4165,4.4169,4.4101,4.4005,4.4005,4.4005,4.4005,4.3989,4.3506,4.2619,4.1856,4.0539,3.8836,3.8528,3.8427,3.8396,3.8496,3.8807,3.9277,3.9272,3.9272,3.9273,3.9294,3.9153,3.884,3.903,3.9372,3.9763,4.0133,4.0678,4.1505,4.1768,4.1651,4.1016,4.1055,4.0815,4.0056,3.9993,3.995,3.9845,3.9664,3.9558,3.9528,3.9408,3.9288,3.917,3.9137,3.9142,3.9101,3.9087,3.9101,3.9087,3.9087,3.9064,3.8983,3.8906,3.8866,3.8792,3.8716,3.8689,3.8723,3.8707,3.8389,3.7544,3.6735,3.5922,3.4736,3.4316,3.4409,3.4561,3.4708,3.4878,3.5057,3.5151,3.5254,3.539,3.5513,3.5625,3.5778,3.5866,3.5926,3.5986,3.6011,3.6014,3.6017,3.5942,3.5869,3.5815,3.5699,3.5554,3.5425,3.5289,3.5124,4.8626,4.8176,4.78,4.7162,4.6373,4.5904,4.5247,4.4519,4.4482,4.4482,4.4482,4.4482,4.4482,4.4482,4.4482,4.4482,4.4482,4.4454,4.4426,4.4397,4.4387,4.4314,4.4259,4.4214,4.4169,4.4119,4.4055,4.4005,4.4005,4.4005,4.3578,4.276,4.1464,4.0133,3.8944,3.8728,3.8637,3.8562,3.8706,3.8917,3.9163,3.9493,3.9491,3.9177,3.918,3.8974,3.8508,3.866,3.8944,3.9304,3.9497,3.9872,4.0425,4.0594,4.0509,4.024,4.0292,4.0151,3.9738,3.9715,3.9698,3.9693,3.9645,3.9583,3.952,3.9482,3.9386,3.921,3.9178,3.917,3.9115,3.9101,3.9101,3.9101,3.9101,3.9073,3.9026,3.8983,3.8939,3.8866,3.8822,3.8807,3.8825,3.8807,3.8512,3.7727,3.6708,3.5681,3.5063,3.465,3.4461,3.4615,3.4728,3.4878,3.5057,3.5151,3.5254,3.539,3.5507,3.5644,3.5782,3.5843,3.5926,3.5986,3.6011,3.6014,3.6017,3.5945,3.5869,3.5815,3.5679,3.5554,3.5425,3.5227,3.4992,4.9114,4.8495,4.8495,4.8025,4.7218,4.6373,4.5547,4.4796,4.4777,4.467,4.4501,4.4482,4.4482,4.4482,4.4482,4.4482,4.4482,4.4482,4.4454,4.4426,4.4411,4.4401,4.431,4.4255,4.4244,4.4214,4.4116,4.4051,4.4055,4.4036,4.3612,4.2723,4.1256,4.0115,3.9289,3.8984,3.8818,3.8844,3.8966,3.9041,3.9008,3.9499,3.9481,3.8993,3.8973,3.8785,3.8368,3.851,3.8725,3.9003,3.9115,3.9275,3.9482,3.9527,3.9594,3.9698,3.9796,3.9792,3.9747,3.9715,3.9698,3.9698,3.9638,3.9608,3.9608,3.9558,3.9451,3.9283,3.9237,3.9197,3.9115,3.9101,3.9101,3.9101,3.9101,3.9092,3.9036,3.9007,3.8979,3.8939,3.8925,3.891,3.891,3.891,3.8578,3.7724,3.6692,3.5999,3.5646,3.5065,3.4806,3.4703,3.4749,3.4878,3.5057,3.5151,3.5254,3.5371,3.5507,3.5644,3.5782,3.5862,3.5926,3.5986,3.6011,3.6014,3.5998,3.5942,3.5888,3.5811,3.5704,3.5562,3.5364,3.5138,3.486,4.9452,4.9396,4.934,4.887,4.7988,4.7199,4.6392,4.5641,4.5604,4.5172,4.4576,4.4501,4.4519,4.4482,4.4482,4.4482,4.4482,4.4482,4.4501,4.4468,4.4501,4.4458,4.4383,4.4383,4.4358,4.4285,4.427,4.4226,4.4184,4.4165,4.3707,4.2813,4.1906,4.1007,4.0118,3.9367,3.8968,3.891,3.8907,3.882,3.8664,3.8703,3.874,3.874,3.874,3.8747,3.8728,3.8818,3.8935,3.9087,3.9275,3.9418,3.9508,3.9613,3.9696,3.9708,3.9823,3.9889,3.9878,3.9777,3.9708,3.9701,3.9644,3.9608,3.9608,3.9608,3.9527,3.9412,3.9373,3.9288,3.9115,3.9101,3.9101,3.9101,3.9101,3.9101,3.9073,3.9036,3.9011,3.9011,3.8935,3.891,3.8925,3.8925,3.8625,3.803,3.7676,3.7105,3.6155,3.5797,3.5432,3.499,3.4817,3.4926,3.5057,3.5151,3.5262,3.5378,3.5513,3.5644,3.5763,3.5862,3.5926,3.5968,3.6011,3.6014,3.5999,3.5942,3.5869,3.5811,3.5689,3.5532,3.5293,3.5063,3.485,4.9509,4.9509,4.9509,4.9002,4.8176,4.7838,4.7237,4.6505,4.6467,4.5998,4.5284,4.5209,4.4932,4.4501,4.4482,4.4482,4.4482,4.4482,4.4482,4.4482,4.4482,4.4487,4.444,4.4411,4.4401,4.4358,4.4314,4.4285,4.4255,4.4255,4.3815,4.2984,4.2555,4.1777,4.0505,4.0072,3.9621,3.911,3.9031,3.8974,3.8898,3.8815,3.8788,3.8807,3.8825,3.8862,3.896,3.9021,3.912,3.9315,3.9412,3.9495,3.9558,3.9656,3.9708,3.9701,3.9834,3.99,3.99,3.977,3.9701,3.9712,3.9644,3.9608,3.9608,3.9608,3.9571,3.9482,3.9431,3.9315,3.9202,3.9129,3.9101,3.9101,3.9101,3.9101,3.9101,3.9073,3.9064,3.9045,3.9031,3.9021,3.9017,3.9017,3.8915,3.8581,3.8332,3.7722,3.7206,3.6841,3.6276,3.57,3.5575,3.5457,3.5208,3.5176,3.5285,3.5378,3.5507,3.5625,3.5763,3.5843,3.5926,3.5967,3.5991,3.6014,3.6017,3.5942,3.5869,3.5783,3.5612,3.5418,3.5211,3.5046,3.486,4.9509,4.9509,4.9509,4.9133,4.857,4.8551,4.8082,4.7368,4.7331,4.6861,4.6092,4.6054,4.5622,4.4876,4.4613,4.4482,4.4482,4.4482,4.4482,4.4482,4.4482,4.4482,4.4501,4.4458,4.4426,4.443,4.4387,4.4358,4.4329,4.43,4.3982,4.3403,4.3123,4.2431,4.1334,4.0845,4.022,3.9629,3.9346,3.9188,3.9175,3.9078,3.9026,3.8979,3.9007,3.9096,3.9175,3.9188,3.9269,3.9482,3.9495,3.9533,3.9589,3.9668,3.9708,3.9735,3.9826,3.9889,3.9878,3.9777,3.9708,3.9703,3.9619,3.9608,3.9608,3.9608,3.9583,3.9533,3.9469,3.9373,3.921,3.9156,3.911,3.9101,3.9101,3.9101,3.9101,3.9101,3.9101,3.9101,3.9087,3.9115,3.9129,3.9129,3.9119,3.9117,3.8747,3.8282,3.8209,3.7713,3.7186,3.6503,3.6477,3.6122,3.535,3.5204,3.53,3.5404,3.5507,3.5644,3.5763,3.5846,3.5926,3.5988,3.6011,3.6014,3.5998,3.5942,3.5856,3.5735,3.556,3.5383,3.5223,3.5046,3.487,4.9509,4.9509,4.9509,4.9452,4.9434,4.9415,4.8945,4.8157,4.8138,4.7687,4.7012,4.6955,4.6467,4.5622,4.4984,4.4519,4.4482,4.4482,4.4482,4.4482,4.4482,4.4482,4.4482,4.4482,4.4482,4.4482,4.4487,4.4458,4.4383,4.4344,4.4281,4.4188,4.3455,4.2992,4.2614,4.1422,4.0606,4.0419,3.9789,3.941,3.9373,3.9378,3.9301,3.9197,3.9301,3.9346,3.9391,3.9391,3.9412,3.9495,3.9508,3.9533,3.9608,3.9669,3.9715,3.98,3.9856,3.9878,3.9804,3.9735,3.9715,3.9686,3.9645,3.9608,3.9608,3.9608,3.9608,3.9608,3.9533,3.9425,3.9269,3.921,3.9183,3.9129,3.9115,3.9115,3.9115,3.9147,3.9101,3.9115,3.9129,3.9142,3.9197,3.9178,3.9256,3.936,3.9369,3.9158,3.8527,3.8324,3.8003,3.7508,3.7246,3.692,3.5558,3.5439,3.5461,3.5526,3.5732,3.5664,3.5763,3.5846,3.5926,3.5988,3.6011,3.5995,3.5978,3.5914,3.581,3.5674,3.5531,3.5369,3.5223,3.5046,3.4879,4.9509,4.9509,4.9509,4.9509,4.9509,4.9509,4.9321,4.9058,4.9039,4.8551,4.7856,4.7763,4.7293,4.6523,4.6242,4.5514,4.4557,4.4482,4.4482,4.4482,4.4482,4.4482,4.4482,4.4482,4.4482,4.4482,4.4482,4.4487,4.4454,4.4444,4.4411,4.4393,4.4112,4.3718,4.3156,4.259,4.1771,4.0742,4.0309,3.9928,3.9461,3.9444,3.9444,3.9399,3.9386,3.9418,3.9457,3.9457,3.9495,3.9571,3.9571,3.9583,3.9589,3.9669,3.9734,3.98,3.9781,3.977,3.9792,3.975,3.9698,3.9693,3.9645,3.9608,3.9608,3.9608,3.9608,3.9608,3.9596,3.9502,3.9425,3.9341,3.9315,3.9288,3.9288,3.9275,3.9288,3.9307,3.9288,3.9288,3.9307,3.932,3.9315,3.9315,3.9354,3.9438,3.9482,3.9364,3.9263,3.9216,3.8939,3.8407,3.8238,3.7966,3.6991,3.6403,3.6219,3.6118,3.613,3.5911,3.5868,3.5966,3.6065,3.6147,3.611,3.5993,3.5971,3.5886,3.5772,3.5645,3.5495,3.5369,3.5223,3.5046,3.4889,4.9509,4.9509,4.9509,4.9509,4.9509,4.9509,4.9509,4.9509,4.949,4.9171,4.8683,4.8607,4.8157,4.7481,4.7387,4.6655,4.5345,4.504,4.4745,4.4519,4.4482,4.4482,4.4482,4.4482,4.4482,4.4482,4.4482,4.4482,4.4482,4.4482,4.4482,4.4482,4.4482,4.4238,4.3731,4.3371,4.2607,4.1657,4.1223,4.0673,3.9975,3.9901,3.9796,3.9571,3.9495,3.9495,3.9533,3.9533,3.9558,3.9596,3.9608,3.9608,3.962,3.9669,3.971,3.9762,3.9731,3.9731,3.9754,3.9722,3.9693,3.9669,3.9633,3.9608,3.9608,3.9608,3.9608,3.9608,3.9608,3.9583,3.9546,3.9495,3.9457,3.9418,3.9405,3.9405,3.9405,3.9405,3.9405,3.9373,3.9391,3.9405,3.9431,3.9431,3.9469,3.9546,3.9558,3.9608,3.9686,3.9712,3.9649,3.921,3.9201,3.908,3.8541,3.8065,3.7423,3.7224,3.7021,3.6615,3.637,3.6385,3.6345,3.6345,3.6229,3.6069,3.5937,3.5859,3.5743,3.5614,3.5489,3.535,3.5203,3.5046,3.4898,4.9509,4.9509,4.9509,4.9509,4.949,4.9505,4.949,4.9505,4.949,4.9468,4.9336,4.9434,4.8927,4.8345,4.8232,4.7725,4.688,4.6167,4.5397,4.467,4.4613,4.4557,4.4482,4.4482,4.4482,4.4482,4.4482,4.4482,4.4482,4.4482,4.4482,4.4482,4.4482,4.4444,4.4463,4.375,4.3332,4.2962,4.2348,4.1616,4.091,4.0784,4.0459,3.9765,3.9671,3.9652,3.9608,3.9589,3.9596,3.9608,3.9608,3.9608,3.962,3.9657,3.9712,3.9717,3.9703,3.9703,3.9717,3.9693,3.9669,3.9633,3.9608,3.9608,3.9608,3.9608,3.9608,3.9608,3.9608,3.9608,3.9608,3.9596,3.9527,3.9431,3.9412,3.9431,3.9399,3.9418,3.9418,3.9431,3.9412,3.9425,3.9482,3.9502,3.9571,3.9657,3.9681,3.9705,3.9738,3.9811,3.9878,3.9897,3.985,3.9757,3.9759,3.9695,3.8987,3.8382,3.8106,3.7793,3.7588,3.752,3.7277,3.7194,3.6621,3.6428,3.6265,3.614,3.5773,3.5623,3.5489,3.535,3.5211,3.5054,3.4936,4.9509,4.9509,4.9509,4.9509,4.9524,4.9551,4.9582,4.9563,4.9582,4.9563,4.9548,4.9521,4.9321,4.9152,4.9096,4.8626,4.7838,4.7481,4.6692,4.5528,4.5341,4.504,4.4613,4.4501,4.4482,4.4482,4.4482,4.4482,4.4482,4.4482,4.4482,4.4482,4.4482,4.4482,4.4482,4.4219,4.3895,4.3313,4.305,4.2487,4.1704,4.1629,4.1235,4.0534,4.0422,4.019,3.9646,3.9608,3.9608,3.9608,3.9608,3.9608,3.962,3.9614,3.9638,3.97,3.965,3.9662,3.9693,3.9657,3.9614,3.962,3.9608,3.9608,3.9608,3.9608,3.9608,3.9608,3.9608,3.9608,3.9608,3.9608,3.9577,3.9558,3.9527,3.9546,3.9527,3.9527,3.9546,3.9558,3.9583,3.9608,3.9633,3.9638,3.9656,3.9684,3.9715,3.9731,3.9823,3.9878,3.9965,4.0087,4.0187,4.0261,4.0183,4.0181,3.9872,3.9328,3.906,3.8893,3.8719,3.8436,3.8227,3.7809,3.7221,3.6819,3.664,3.6359,3.6027,3.5662,3.5489,3.5369,3.5223,3.5091,3.4946,4.9509,4.9509,4.9521,4.9536,4.9551,4.9608,4.9634,4.9653,4.9619,4.9634,4.9619,4.9593,4.9582,4.9582,4.9551,4.9235,4.8762,4.8698,4.7932,4.6711,4.6261,4.5885,4.5383,4.5078,4.4745,4.4538,4.4482,4.4482,4.4482,4.4482,4.4482,4.4482,4.4482,4.4482,4.4482,4.4482,4.42,4.3801,4.3745,4.3318,4.2661,4.2474,4.2093,4.1379,4.1248,4.0835,4.0134,4.0059,3.9908,3.9664,3.9608,3.9608,3.9608,3.9608,3.962,3.9645,3.9633,3.9633,3.9657,3.9614,3.9608,3.9608,3.9608,3.9608,3.9608,3.9608,3.9608,3.9608,3.9633,3.9645,3.9645,3.9631,3.9631,3.9631,3.9614,3.962,3.9614,3.9619,3.9631,3.9644,3.9668,3.9698,3.9691,3.9703,3.9712,3.9724,3.9758,3.9811,3.9892,3.9975,4.0078,4.0186,4.0262,4.0342,4.0433,4.0523,4.0641,4.0293,3.995,3.9838,3.9714,3.927,3.8961,3.8418,3.7848,3.7362,3.7138,3.6713,3.6348,3.598,3.5579,3.5369,3.5231,3.5081,3.4955,4.9505,4.9521,4.9578,4.9608,4.9623,4.9678,4.9707,4.9707,4.9707,4.9707,4.9692,4.9697,4.9697,4.9697,4.9619,4.9533,4.957,4.9454,4.901,4.8187,4.7571,4.712,4.6659,4.6054,4.5416,4.4759,4.4665,4.459,4.4501,4.4482,4.4482,4.4482,4.4482,4.4482,4.4482,4.4482,4.4463,4.4388,4.4407,4.4031,4.3388,4.3351,4.2938,4.2136,4.2061,4.1685,4.1004,4.0854,4.0472,3.9758,3.9608,3.9608,3.9608,3.9608,3.9608,3.962,3.9608,3.9608,3.962,3.9602,3.962,3.9602,3.9614,3.962,3.9614,3.9626,3.9626,3.9645,3.9662,3.9705,3.9686,3.9691,3.9677,3.9708,3.9656,3.9638,3.9693,3.9703,3.9696,3.9689,3.9701,3.972,3.9731,3.9724,3.977,3.9804,3.9859,3.9943,4.0007,4.0078,4.0167,4.0243,4.0335,4.043,4.0508,4.0574,4.0688,4.0682,4.0456,4.0454,4.0464,4.0073,3.9816,3.9253,3.8612,3.8116,3.7704,3.7415,3.6794,3.6215,3.583,3.547,3.5239,3.5098,3.4964,4.9608,4.9653,4.9682,4.9682,4.9678,4.9736,4.9778,4.9778,4.9759,4.9778,4.9764,4.9721,4.9726,4.9711,4.9678,4.9663,4.9682,4.9653,4.9596,4.9313,4.9066,4.8123,4.7199,4.6786,4.6223,4.551,4.5397,4.5078,4.4538,4.4557,4.4538,4.4482,4.4519,4.4482,4.4482,4.4482,4.4482,4.4482,4.4482,4.4426,4.4233,4.4139,4.3782,4.305,4.2956,4.2524,4.1779,4.1685,4.1004,3.9739,3.9608,3.9608,3.9608,3.9608,3.9608,3.9608,3.9608,3.9608,3.962,3.9638,3.9669,3.9681,3.9668,3.9672,3.9672,3.9691,3.9672,3.9691,3.9703,3.9696,3.9696,3.9708,3.9701,3.9708,3.9696,3.9703,3.9715,3.9708,3.9708,3.9701,3.9747,3.977,3.9804,3.9848,3.9903,3.9954,4.0005,4.0057,4.0118,4.0158,4.0234,4.0297,4.0386,4.0495,4.0561,4.0641,4.0732,4.0837,4.0824,4.0855,4.0866,4.074,4.0664,4.0491,3.9715,3.9117,3.8825,3.8544,3.7665,3.6739,3.6331,3.608,3.5446,3.5136,3.4983,4.9663,4.9711,4.9736,4.9736,4.975,4.9802,4.983,4.9862,4.983,4.9848,4.9848,4.9807,4.9774,4.9774,4.9764,4.9736,4.9736,4.9707,4.9711,4.9692,4.9592,4.8802,4.7792,4.75,4.7068,4.6336,4.6261,4.6017,4.5585,4.5209,4.5021,4.4946,4.467,4.4501,4.4482,4.4482,4.4482,4.4482,4.4482,4.4482,4.4482,4.4482,4.4294,4.3857,4.3782,4.3407,4.2656,4.2192,4.1366,4.0384,4.0084,3.9965,3.9627,3.9608,3.9608,3.9608,3.9633,3.9626,3.9657,3.9686,3.971,3.971,3.9708,3.9708,3.9708,3.9708,3.9708,3.9708,3.9724,3.9735,3.9747,3.9758,3.9789,3.98,3.98,3.9789,3.9747,3.977,3.9811,3.9834,3.9867,3.9892,3.9903,4.0005,4.0036,4.0057,4.0106,4.0138,4.0196,4.0234,4.0279,4.0366,4.0441,4.0539,4.0633,4.0707,4.0782,4.0878,4.0968,4.1061,4.107,4.1105,4.1054,4.0897,4.0508,4.012,3.9668,3.9209,3.8526,3.7738,3.7205,3.6587,3.6001,3.5325,3.5172,4.9707,4.9702,4.9774,4.9807,4.9821,4.9871,4.9879,4.9912,4.9879,4.9898,4.9879,4.9893,4.9885,4.9898,4.9848,4.9802,4.9807,4.9764,4.9736,4.9721,4.9636,4.9177,4.8514,4.839,4.7905,4.7233,4.7124,4.6993,4.6655,4.611,4.5772,4.551,4.4965,4.4594,4.4519,4.4482,4.4482,4.4482,4.4482,4.4482,4.4482,4.4482,4.4426,4.4402,4.4346,4.4083,4.3426,4.2774,4.1986,4.1116,4.0985,4.0609,4.0021,3.9908,3.9958,4.0046,4.0189,4.0176,4.0056,4.0205,4.0108,4.0196,4.0158,3.9976,4.0207,4.0283,4.0294,4.0332,4.0065,4.022,4.0042,3.9981,3.9889,3.9889,3.9911,3.9889,3.9867,3.9889,3.9933,3.9996,4.0026,4.0046,4.0077,4.0098,4.0098,4.0118,4.0177,4.0225,4.0262,4.0325,4.0375,4.0449,4.0519,4.0566,4.0662,4.0773,4.084,4.0917,4.1028,4.1094,4.1094,4.1112,4.111,4.0973,4.0718,4.0425,4.006,3.9578,3.9149,3.8614,3.7994,3.7314,3.6635,3.5914,3.5514,4.9802,4.9857,4.9871,4.9885,4.9885,4.9898,4.9893,4.9893,4.9893,4.9893,4.9893,4.9893,4.9893,4.9893,4.9885,4.9885,4.9871,4.9857,4.983,4.9797,4.9778,4.966,4.9347,4.9265,4.8788,4.819,4.7961,4.7631,4.7143,4.688,4.6373,4.5791,4.5641,4.5134,4.4613,4.4594,4.4501,4.4482,4.4482,4.4482,4.4482,4.4482,4.4482,4.4482,4.4482,4.4426,4.4308,4.4069,4.3562,4.2844,4.2168,4.1698,4.1392,4.1393,4.1381,4.1406,4.1512,4.1587,4.1637,4.156,4.1702,4.1569,4.1555,4.1817,4.1817,4.1692,4.1741,4.1817,4.1828,4.1431,4.095,4.0279,4.0084,4.0078,4.0032,4.0005,4.0007,3.9986,4.0015,4.0057,4.0077,4.0077,4.0117,4.0147,4.0167,4.0187,4.0234,4.0308,4.0351,4.0411,4.0476,4.0519,4.0574,4.0636,4.0718,4.0814,4.0909,4.097,4.1059,4.1098,4.1109,4.1113,4.1106,4.1083,4.1028,4.0694,4.0362,4.0357,4.0047,3.9406,3.8782,3.8162,3.7458,3.6639,3.5989,4.9871,4.9893,4.9893,4.9893,4.9893,4.9893,4.9893,4.9893,4.9893,4.9893,4.9893,4.9893,4.9893,4.9893,4.9893,4.9893,4.9893,4.9893,4.9885,4.9843,4.9843,4.9835,4.9788,4.9702,4.9395,4.8955,4.8901,4.857,4.8235,4.774,4.735,4.6861,4.6505,4.5885,4.5172,4.5045,4.4857,4.4538,4.4482,4.4482,4.4482,4.4482,4.4482,4.4482,4.4482,4.4482,4.4463,4.4463,4.4238,4.3857,4.3415,4.279,4.217,4.2096,4.2134,4.2153,4.2215,4.2252,4.2245,4.2312,4.2309,4.2385,4.2408,4.2382,4.2393,4.2393,4.2393,4.2393,4.2337,4.2185,4.1821,4.1062,4.0659,4.056,4.0285,4.0115,4.0127,4.0106,4.0077,4.0118,4.0147,4.0167,4.0196,4.0225,4.0262,4.0289,4.0298,4.037,4.0427,4.0465,4.0519,4.0586,4.0642,4.0712,4.0776,4.0869,4.0967,4.1037,4.1076,4.1105,4.1113,4.1111,4.1101,4.1076,4.1059,4.0979,4.0727,4.0784,4.0667,4.0113,3.9507,3.898,3.8357,3.7535,3.6977,4.9893,4.9893,4.9893,4.9893,4.9893,4.9893,4.9893,4.9893,4.9893,4.9893,4.9893,4.9893,4.9893,4.9893,4.9893,4.9893,4.9893,4.9893,4.9879,4.9879,4.9898,4.9885,4.9871,4.9816,4.9774,4.9721,4.9573,4.9453,4.925,4.8833,4.8258,4.8093,4.7537,4.6749,4.6073,4.5866,4.5547,4.4928,4.4834,4.4632,4.4519,4.4482,4.4482,4.4482,4.4482,4.4482,4.4515,4.4528,4.451,4.4528,4.4578,4.3847,4.2975,4.2517,4.253,4.2668,4.2874,4.2986,4.3023,4.2927,4.2931,4.2791,4.2848,4.2867,4.2905,4.3,4.3038,4.2905,4.2867,4.275,4.2644,4.1963,4.1597,4.144,4.0831,4.0404,4.0339,4.0291,4.0167,4.0196,4.0215,4.0244,4.0281,4.0317,4.0362,4.0388,4.0405,4.0438,4.0484,4.0534,4.0586,4.0641,4.0694,4.0793,4.0878,4.0937,4.1042,4.1064,4.1111,4.1109,4.1113,4.1104,4.1109,4.1092,4.105,4.0972,4.0897,4.0793,4.0661,4.0473,4.0158,3.958,3.899,3.8384,3.7935,4.9893,4.9893,4.9893,4.9893,4.9893,4.9893,4.9893,4.9893,4.9893,4.9893,4.9893,4.9893,4.9893,4.9893,4.9893,4.9893,4.9893,4.9893,4.9893,4.9893,4.9893,4.9893,4.9879,4.9885,4.9871,4.983,4.9764,4.9692,4.9644,4.9435,4.8938,4.8397,4.8145,4.759,4.6993,4.673,4.6354,4.5641,4.551,4.5266,4.4876,4.4665,4.4552,4.4533,4.451,4.4528,4.451,4.4551,4.4578,4.4592,4.4646,4.4523,4.4222,4.414,4.4153,4.4159,4.4171,4.4132,4.417,4.4333,4.444,4.4497,4.4345,4.4364,4.4364,4.4383,4.4175,4.413,4.3824,4.3574,4.3548,4.2862,4.2498,4.2273,4.1798,4.1235,4.1151,4.0797,4.0415,4.0452,4.0404,4.0298,4.0353,4.0396,4.043,4.0444,4.0476,4.0527,4.0569,4.0626,4.0674,4.0707,4.0761,4.0869,4.0976,4.102,4.1086,4.108,4.1101,4.1112,4.1111,4.1116,4.1095,4.1096,4.1042,4.0964,4.0893,4.0801,4.07,4.0551,4.0335,4.0121,3.9631,3.9099,3.8734,4.9893,4.9893,4.9893,4.9893,4.9893,4.9893,4.9893,4.9893,4.9893,4.9893,4.9893,4.9893,4.9893,4.9893,4.9893,4.9893,4.9893,4.9893,4.9893,4.9893,4.9893,4.9893,4.9893,4.9893,4.9893,4.9885,4.9848,4.9778,4.975,4.9678,4.9403,4.9148,4.8957,4.8499,4.7845,4.7608,4.7158,4.6561,4.6336,4.6186,4.5735,4.5425,4.504,4.4664,4.4597,4.4605,4.4605,4.4632,4.4659,4.4653,4.4706,4.4757,4.4796,4.4821,4.4846,4.4846,4.487,4.4895,4.4895,4.4895,4.4838,4.4857,4.4895,4.4895,4.4895,4.4838,4.4926,4.4868,4.4778,4.4456,4.4494,4.3765,4.3378,4.3221,4.264,4.223,4.1992,4.1445,4.1128,4.0905,4.0647,4.0522,4.0422,4.0455,4.0487,4.0527,4.0554,4.0598,4.064,4.0688,4.0713,4.0773,4.0823,4.0891,4.099,4.1053,4.1105,4.1112,4.1108,4.1113,4.1109,4.1111,4.1109,4.1106,4.1046,4.0976,4.0898,4.0804,4.0707,4.0602,4.0423,4.0245,4.0118,3.9843,3.9409,4.9893,4.9893,4.9893,4.9893,4.9893,4.9893,4.9893,4.9893,4.9893,4.9893,4.9893,4.9893,4.9893,4.9893,4.9893,4.9893,4.9893,4.9893,4.9893,4.9893,4.9893,4.9893,4.9893,4.9893,4.9893,4.9893,4.9898,4.9871,4.9802,4.975,4.9721,4.9579,4.9611,4.9322,4.8685,4.8562,4.801,4.7544,4.7281,4.7243,4.6901,4.6417,4.5706,4.4977,4.4931,4.4925,4.4723,4.4725,4.4725,4.4732,4.477,4.4827,4.4821,4.487,4.4895,4.4895,4.4895,4.4895,4.4895,4.4895,4.4895,4.4895,4.4895,4.4895,4.4895,4.4926,4.4962,4.4998,4.5019,4.4996,4.496,4.4582,4.43,4.4093,4.3608,4.3034,4.29,4.2449,4.1822,4.1466,4.1006,4.0743,4.0649,4.0511,4.0543,4.0576,4.0612,4.0615,4.0681,4.07,4.0748,4.0814,4.0873,4.0937,4.1016,4.1054,4.1101,4.1101,4.1112,4.1112,4.1104,4.1106,4.1105,4.1092,4.1036,4.096,4.0883,4.0798,4.0707,4.0607,4.0484,4.0368,4.0232,4.0101,3.9799,4.9893,4.9893,4.9893,4.9893,4.9893,4.9912,4.9893,4.9893,4.9893,4.9893,4.9912,4.9893,4.9893,4.9893,4.9893,4.9893,4.9893,4.9893,4.9893,4.9893,4.9893,4.9893,4.9893,4.9893,4.9893,4.9893,4.9893,4.9912,4.9871,4.9802,4.9774,4.9759,4.9721,4.9602,4.9395,4.9309,4.9079,4.8386,4.8235,4.7895,4.7325,4.7094,4.6603,4.607,4.5819,4.5536,4.5002,4.4928,4.4896,4.4802,4.4846,4.4883,4.4883,4.4883,4.4895,4.4895,4.4895,4.4895,4.4895,4.4895,4.4895,4.4895,4.4895,4.4895,4.4907,4.4962,4.4998,4.501,4.5103,4.517,4.5203,4.5131,4.5126,4.4889,4.4432,4.4078,4.3895,4.3365,4.2755,4.2176,4.1761,4.1216,4.0889,4.0723,4.0595,4.0633,4.0655,4.0675,4.0718,4.0759,4.0814,4.0878,4.0921,4.0974,4.1039,4.1072,4.1094,4.1108,4.1113,4.111,4.1099,4.1099,4.1067,4.1052,4.0995,4.0952,4.0873,4.0779,4.0681,4.06,4.0484,4.0413,4.0316,4.0187,4.0057,4.9999,5.0018,5.0018,5.0018,4.9999,4.9999,5.0018,4.9986,4.9978,4.9965,4.9952,4.9925,4.9893,4.9893,4.9893,4.9893,4.9893,4.9893,4.9893,4.9893,4.9893,4.9893,4.9893,4.9893,4.9893,4.9893,4.9893,4.9893,4.9879,4.9885,4.9857,4.9843,4.9774,4.9731,4.975,4.9721,4.9485,4.9221,4.907,4.8692,4.8122,4.7885,4.7591,4.6798,4.6781,4.6321,4.5773,4.5571,4.5294,4.5048,4.4883,4.4895,4.4895,4.4895,4.4895,4.4895,4.4895,4.4895,4.4895,4.4895,4.4895,4.4895,4.4895,4.4907,4.4943,4.4979,4.5057,4.5114,4.5159,4.5203,4.5246,4.5298,4.5348,4.5236,4.4988,4.495,4.467,4.4184,4.3618,4.3057,4.2476,4.1909,4.1333,4.1,4.0802,4.0688,4.0732,4.0775,4.0821,4.0873,4.0911,4.0964,4.0974,4.1003,4.1061,4.1108,4.1102,4.1112,4.1113,4.1106,4.1114,4.1092,4.1059,4.1026,4.0995,4.0939,4.0844,4.0773,4.0681,4.0593,4.0492,4.0411,4.0344,4.0206,4.0046,5.0145,5.0145,5.012,5.0108,5.0108,5.0108,5.0095,5.0095,5.0044,5.0031,5.0018,4.9965,4.9939,4.9925,4.9906,4.9893,4.9893,4.9893,4.9893,4.9893,4.9893,4.9893,4.9893,4.9893,4.9893,4.9893,4.9893,4.9893,4.9893,4.9893,4.9879,4.9893,4.9843,4.9816,4.9802,4.9792,4.9703,4.9684,4.9665,4.933,4.8909,4.8861,4.8416,4.7931,4.7598,4.734,4.6657,4.6487,4.6089,4.5464,4.5312,4.5255,4.4971,4.4895,4.4895,4.4895,4.4895,4.4895,4.4895,4.4895,4.4895,4.4895,4.4919,4.4962,4.4998,4.5014,4.5061,4.5181,4.5213,4.5246,4.5317,4.5369,4.5399,4.5438,4.539,4.5466,4.5435,4.49,4.4375,4.3824,4.322,4.2558,4.1988,4.1428,4.1087,4.0822,4.0781,4.0865,4.0898,4.0954,4.0976,4.1,4.1017,4.1035,4.1076,4.1117,4.1108,4.1113,4.1111,4.11,4.1103,4.1105,4.1078,4.1046,4.0988,4.0935,4.0858,4.0773,4.0675,4.0593,4.0516,4.0438,4.0354,4.0215,4.0046,5.029,5.0278,5.0158,5.0108,5.0108,5.0108,5.0108,5.0139,5.0076,5.0095,5.0082,5.0031,5.0005,4.9992,4.9933,4.9906,4.9893,4.9893,4.9893,4.9893,4.9893,4.9893,4.9893,4.9893,4.9893,4.9893,4.9893,4.9893,4.9893,4.9893,4.9893,4.9893,4.9885,4.9898,4.9885,4.9857,4.9857,4.9857,4.9857,4.9852,4.9681,4.96,4.9297,4.878,4.8534,4.8206,4.7397,4.7321,4.6942,4.6165,4.6108,4.5862,4.5464,4.5331,4.5331,4.5331,4.5141,4.5141,4.5122,4.4971,4.4895,4.4907,4.4955,4.501,4.5045,4.5136,4.5181,4.5213,4.5246,4.5317,4.5359,4.5408,4.5448,4.5467,4.5495,4.555,4.5566,4.558,4.5073,4.4561,4.399,4.3354,4.2847,4.2331,4.1348,4.1003,4.0853,4.0913,4.0939,4.0984,4.0993,4.1028,4.1046,4.1083,4.109,4.1104,4.1113,4.1113,4.1107,4.1111,4.1107,4.1086,4.1092,4.1036,4.0972,4.0917,4.0858,4.0773,4.07,4.0607,4.0523,4.0422,4.0327,4.0206,4.0036,5.0302,5.029,5.0243,5.0231,5.0231,5.0219,5.0219,5.0219,5.0182,5.0145,5.0108,5.007,5.0057,5.0057,5.0044,5.0005,4.9978,4.9946,4.9952,4.9925,4.9893,4.9893,4.9893,4.9893,4.9893,4.9893,4.9893,4.9893,4.9893,4.9893,4.9893,4.9893,4.9893,4.9893,4.9893,4.9893,4.9893,4.9893,4.9893,4.9893,4.9893,4.9893,4.976,4.9495,4.9438,4.9002,4.8357,4.8225,4.7694,4.7169,4.6961,4.6657,4.6373,4.6297,4.6278,4.6203,4.5918,4.571,4.552,4.5267,4.4926,4.4967,4.5014,4.508,4.5114,4.5181,4.5213,4.5256,4.5298,4.5359,4.5398,4.5448,4.5467,4.5504,4.5531,4.5586,4.5629,4.5671,4.5642,4.5079,4.4667,4.4208,4.373,4.3269,4.2167,4.1198,4.1067,4.0971,4.0988,4.1003,4.1028,4.1052,4.1081,4.1098,4.1103,4.1111,4.1113,4.111,4.1101,4.1104,4.1098,4.1106,4.1087,4.1025,4.0984,4.0921,4.0868,4.0804,4.0726,4.0621,4.0481,4.0362,4.0253,4.0176,4.0036,5.0359,5.0359,5.0359,5.0356,5.0302,5.0302,5.0302,5.029,5.0255,5.0188,5.0158,5.0145,5.0133,5.0133,5.0108,5.0082,5.0044,5.0031,4.9992,4.9965,4.992,4.9906,4.9893,4.9893,4.9893,4.9893,4.9893,4.9893,4.9893,4.9893,4.9893,4.9893,4.9893,4.9893,4.9893,4.9893,4.9893,4.9893,4.9893,4.9893,4.9893,4.9893,4.9893,4.9836,4.9817,4.9627,4.9191,4.9002,4.8623,4.8079,4.7757,4.7643,4.7472,4.7397,4.7397,4.7207,4.6961,4.6594,4.6322,4.5595,4.5012,4.5033,4.5084,4.5148,4.5192,4.5213,4.5256,4.5328,4.5388,4.5418,4.5419,4.5477,4.5504,4.555,4.5594,4.5648,4.5682,4.5703,4.5731,4.5583,4.5246,4.4925,4.4256,4.3732,4.2874,4.177,4.1178,4.105,4.0993,4.1025,4.1054,4.1074,4.1093,4.1104,4.1111,4.1113,4.1111,4.1105,4.1115,4.1099,4.1098,4.1103,4.1078,4.1015,4.0975,4.0941,4.0868,4.0798,4.0707,4.0628,4.0481,4.0344,4.0206,4.0127,4.0036,5.05,5.05,5.05,5.0416,5.0314,5.0302,5.0294,5.0314,5.0302,5.029,5.0267,5.0212,5.0188,5.0175,5.0158,5.012,5.0127,5.0095,5.007,5.0018,4.9992,4.9946,4.9906,4.9893,4.9893,4.9893,4.9893,4.9893,4.9893,4.9893,4.9893,4.9893,4.9893,4.9893,4.9893,4.9893,4.9893,4.9893,4.9893,4.9893,4.9893,4.9893,4.9893,4.9893,4.9893,4.976,4.9684,4.9627,4.9267,4.8793,4.8661,4.8414,4.7908,4.7795,4.7751,4.7675,4.7523,4.7397,4.7334,4.5884,4.5406,4.5274,4.5349,4.5203,4.5213,4.5246,4.5317,4.5359,4.5399,4.5429,4.5477,4.5504,4.555,4.5605,4.5657,4.5709,4.5722,4.5743,4.5776,4.5826,4.5783,4.5557,4.4813,4.4113,4.3391,4.2506,4.1578,4.1185,4.1103,4.1047,4.1074,4.109,4.1101,4.111,4.1113,4.1112,4.1106,4.1099,4.1106,4.1109,4.1091,4.105,4.102,4.098,4.0971,4.0945,4.0868,4.0798,4.0713,4.06,4.0484,4.0344,4.0196,4.0096,4.0015,5.05,5.05,5.05,5.0478,5.0427,5.0427,5.0446,5.0416,5.0401,5.0337,5.0283,5.0278,5.0267,5.0267,5.0243,5.0207,5.0182,5.017,5.0133,5.007,5.0031,5.0005,4.9946,4.992,4.9893,4.9893,4.9893,4.9893,4.9893,4.9893,4.9893,4.9893,4.9893,4.9893,4.9893,4.9893,4.9893,4.9893,4.9893,4.9893,4.9893,4.9893,4.9893,4.9893,4.9893,4.9893,4.9893,4.9893,4.9684,4.9438,4.94,4.921,4.8945,4.8907,4.8977,4.8871,4.8726,4.8074,4.7786,4.6946,4.6565,4.6153,4.5595,4.5379,4.5275,4.5328,4.5359,4.5399,4.5429,4.5457,4.5495,4.5559,4.5586,4.5648,4.569,4.5722,4.5743,4.5769,4.5819,4.5867,4.5867,4.5925,4.5468,4.4922,4.4215,4.3598,4.2763,4.1685,4.1367,4.117,4.1108,4.11,4.1108,4.1112,4.1113,4.111,4.1102,4.1112,4.1117,4.1098,4.1078,4.1019,4.1013,4.0976,4.0975,4.0945,4.0853,4.0756,4.0681,4.0576,4.0479,4.0353,4.0215,4.0118,4.0057,5.0563,5.0563,5.0563,5.0582,5.0553,5.0521,5.05,5.05,5.0457,5.0412,5.0371,5.0348,5.0325,5.0325,5.0302,5.029,5.0243,5.0243,5.0207,5.0145,5.0089,5.005,5.0031,4.9959,4.9933,4.992,4.9906,4.9893,4.9893,4.9893,4.9893,4.9893,4.9893,4.9893,4.9893,4.9893,4.9893,4.9893,4.9893,4.9893,4.9893,4.9893,4.9893,4.9893,4.9893,4.9893,4.9893,4.9893,4.9893,4.9893,4.9893,4.9925,4.9925,4.9952,4.9978,4.9809,4.9607,4.9035,4.8753,4.8247,4.7865,4.7525,4.6394,4.5804,4.5653,4.5569,4.5466,4.5429,4.5467,4.5504,4.555,4.5586,4.5648,4.5701,4.573,4.5762,4.5788,4.5819,4.5867,4.5932,4.5966,4.6042,4.6063,4.5706,4.5147,4.4565,4.398,4.2863,4.1761,4.142,4.1196,4.1106,4.1111,4.1113,4.1112,4.1108,4.1099,4.1106,4.1109,4.1111,4.107,4.1029,4.1002,4.0976,4.0943,4.0903,4.0812,4.0712,4.0635,4.0561,4.0479,4.0353,4.0225,4.0147,4.0087,5.0683,5.0683,5.0683,5.0683,5.0663,5.0563,5.0521,5.0511,5.05,5.0481,5.0489,5.0424,5.0412,5.0382,5.0337,5.0314,5.0302,5.0302,5.0255,5.02,5.0163,5.0158,5.0095,5.0044,4.9999,4.9973,4.9946,4.9939,4.9893,4.9893,4.9893,4.9893,4.9893,4.9893,4.9893,4.9893,4.9893,4.9893,4.9893,4.9893,4.9893,4.9893,4.9893,4.9893,4.9893,4.9893,4.9912,4.9912,4.9925,4.9925,4.9925,4.9952,4.9978,4.9986,5.0044,5.0089,5.0094,4.9997,4.9849,4.9305,4.9156,4.8727,4.7573,4.6925,4.6334,4.5944,4.5736,4.5553,4.5504,4.5559,4.5586,4.5648,4.5701,4.5722,4.575,4.5795,4.5819,4.5867,4.5918,4.5986,4.6016,4.6075,4.6154,4.5933,4.5682,4.5311,4.4721,4.403,4.2907,4.1742,4.1475,4.1109,4.1113,4.1113,4.111,4.1105,4.1112,4.1117,4.1107,4.1108,4.1067,4.1042,4.1015,4.0964,4.093,4.0864,4.0787,4.0706,4.0621,4.0546,4.0487,4.0379,4.0262,4.0167,4.0098,5.0683,5.0683,5.0683,5.0683,5.0683,5.0653,5.0623,5.0563,5.0563,5.0542,5.05,5.0478,5.0478,5.0468,5.0412,5.0371,5.0348,5.0325,5.0302,5.0267,5.0224,5.0188,5.0139,5.0089,5.0063,5.0038,4.9999,4.9978,4.9965,4.9939,4.9893,4.9893,4.9893,4.9893,4.9893,4.9893,4.9893,4.9893,4.9893,4.9893,4.9893,4.9893,4.9893,4.9912,4.9906,4.9906,4.9906,4.9965,4.9978,4.9978,5.0018,5.0076,5.007,5.007,5.0108,5.0182,5.0212,5.0221,5.0233,5.0126,4.9988,4.9789,4.8911,4.7744,4.7037,4.6454,4.611,4.586,4.5598,4.5594,4.5648,4.5682,4.5742,4.5777,4.5795,4.5819,4.5867,4.5918,4.5986,4.6041,4.6085,4.6134,4.6203,4.6195,4.596,4.5779,4.54,4.4785,4.3972,4.2785,4.1852,4.1483,4.1289,4.1346,4.1147,4.1102,4.1108,4.1109,4.1098,4.1106,4.1078,4.1052,4.1007,4.0952,4.0907,4.0849,4.0812,4.07,4.0588,4.0557,4.05,4.0394,4.0308,4.0206,4.0147,5.0683,5.0683,5.0683,5.0683,5.0683,5.0683,5.0692,5.0633,5.0633,5.0613,5.0573,5.0562,5.0532,5.0521,5.0468,5.0446,5.0435,5.0371,5.0337,5.0325,5.0278,5.0255,5.0212,5.0163,5.0158,5.012,5.0063,5.0025,5.0031,4.9978,4.9939,4.9893,4.9893,4.9893,4.9893,4.9893,4.9925,4.9925,4.9925,4.9893,4.9906,4.992,4.9939,4.9952,4.9946,4.9959,4.9959,5.0012,5.0044,5.0044,5.0114,5.012,5.0145,5.017,5.0182,5.0255,5.0302,5.0325,5.0329,5.0393,5.0416,5.0342,4.9982,4.9111,4.7979,4.7223,4.6704,4.6261,4.5902,4.5657,4.5682,4.5714,4.577,4.5803,4.5826,4.5867,4.5918,4.5986,4.6035,4.6085,4.613,4.6173,4.6225,4.6272,4.6271,4.6106,4.5841,4.5399,4.4622,4.3628,4.2636,4.1992,4.1776,4.1656,4.1418,4.1177,4.1104,4.1107,4.1118,4.11,4.1094,4.1041,4.0988,4.0945,4.0878,4.0842,4.0796,4.0681,4.0581,4.0557,4.0516,4.0422,4.0326,4.0263,4.0186,5.0683,5.0683,5.0683,5.0683,5.0683,5.0683,5.0683,5.0683,5.0683,5.0683,5.0673,5.0633,5.0613,5.0603,5.0532,5.0511,5.0489,5.0427,5.0393,5.0393,5.0356,5.0314,5.029,5.0255,5.0219,5.0194,5.0158,5.0089,5.0082,5.0044,4.9992,4.9906,4.9939,4.9952,4.9952,4.9952,4.9978,5.0005,4.9959,4.9946,4.9946,4.9959,4.9999,5.0012,5.0057,5.0095,5.0095,5.0095,5.0108,5.0108,5.0133,5.017,5.0207,5.0267,5.029,5.0325,5.0359,5.0393,5.0435,5.0468,5.05,5.054,5.0514,4.9997,4.9086,4.8135,4.7549,4.6701,4.6283,4.5902,4.583,4.5789,4.5803,4.5852,4.5893,4.5918,4.5966,4.6016,4.611,4.6154,4.6165,4.62,4.6242,4.6286,4.63,4.627,4.6162,4.5816,4.5368,4.4471,4.3613,4.2714,4.2224,4.1966,4.163,4.1388,4.116,4.1107,4.1118,4.1095,4.1065,4.103,4.0991,4.0927,4.0858,4.0826,4.0781,4.0675,4.0614,4.0586,4.0531,4.0438,4.0363,4.0291,4.0225,5.0683,5.0683,5.0683,5.0683,5.0683,5.0683,5.0683,5.0683,5.0683,5.0683,5.0683,5.0673,5.0663,5.0653,5.0603,5.0582,5.0553,5.0511,5.0489,5.0457,5.0412,5.039,5.0359,5.0314,5.0278,5.0255,5.0219,5.0158,5.012,5.0063,5.005,5.0057,5.0044,5.0031,5.0031,5.0031,5.0057,5.0082,5.007,5.0038,5.007,5.007,5.0082,5.0082,5.0108,5.0139,5.0133,5.0158,5.0182,5.0194,5.0231,5.0267,5.0278,5.0337,5.0359,5.0401,5.0427,5.0468,5.0489,5.0551,5.0582,5.0603,5.0604,5.0538,5.0067,4.924,4.8336,4.7391,4.6664,4.6282,4.5936,4.5853,4.5833,4.5874,4.5938,4.5966,4.5991,4.6085,4.6177,4.6189,4.62,4.622,4.626,4.6275,4.6287,4.6296,4.6284,4.615,4.6112,4.5507,4.4746,4.3827,4.2751,4.2336,4.2018,4.1677,4.149,4.1244,4.1193,4.1131,4.1059,4.1023,4.0982,4.0913,4.0862,4.0834,4.0769,4.0694,4.0621,4.0593,4.0539,4.0447,4.0379,4.0317,4.0253,5.0683,5.0683,5.0683,5.0683,5.0683,5.0683,5.0683,5.0683,5.0683,5.0683,5.0683,5.0683,5.0683,5.0683,5.0653,5.0633,5.0623,5.0582,5.0562,5.054,5.0478,5.0438,5.0404,5.0371,5.0367,5.0344,5.0278,5.0219,5.0139,5.0145,5.0145,5.012,5.0108,5.0127,5.0108,5.0108,5.012,5.0145,5.0145,5.0158,5.017,5.017,5.0158,5.0126,5.017,5.0201,5.0207,5.0212,5.0243,5.0267,5.0302,5.0359,5.0382,5.0416,5.0427,5.0468,5.05,5.0542,5.0572,5.0603,5.0633,5.0653,5.0664,5.0596,5.0615,4.9807,4.9103,4.8157,4.7138,4.6665,4.6047,4.5826,4.588,4.5944,4.5972,4.5997,4.6071,4.6158,4.6196,4.6203,4.6223,4.6258,4.6292,4.6282,4.6293,4.6301,4.6306,4.6288,4.6289,4.6289,4.5605,4.4978,4.3941,4.3194,4.295,4.2435,4.188,4.1634,4.1445,4.1162,4.1048,4.1015,4.0969,4.0898,4.0832,4.0829,4.0757,4.0681,4.0628,4.0588,4.0539,4.0466,4.0405,4.0353,4.029,5.0683,5.0683,5.0683,5.0683,5.0683,5.0683,5.0683,5.0683,5.0683,5.0683,5.0683,5.0683,5.0683,5.0683,5.0683,5.0683,5.0673,5.0633,5.0613,5.0593,5.0532,5.0511,5.047,5.0427,5.0424,5.039,5.0325,5.0278,5.0219,5.0219,5.0194,5.0126,5.0133,5.0152,5.0133,5.0133,5.017,5.0207,5.0231,5.0255,5.0248,5.0236,5.0212,5.0243,5.0278,5.0333,5.0314,5.0325,5.0325,5.0348,5.039,5.0435,5.0468,5.05,5.0511,5.0521,5.0582,5.0603,5.0623,5.0673,5.0683,5.0683,5.0682,5.0701,5.07,5.0391,4.9686,4.8891,4.7878,4.7028,4.6426,4.5912,4.5963,4.5978,4.6026,4.6047,4.6138,4.6199,4.6206,4.6209,4.624,4.629,4.6302,4.629,4.6299,4.6305,4.6288,4.6289,4.6289,4.6289,4.5996,4.5701,4.519,4.4559,4.3982,4.3234,4.2565,4.2336,4.2125,4.1526,4.1057,4.0999,4.0931,4.0839,4.0796,4.0798,4.0745,4.0655,4.0628,4.0581,4.0534,4.0479,4.0424,4.0381,4.0327,5.0683,5.0683,5.0683,5.0683,5.0683,5.0683,5.0683,5.0683,5.0683,5.0683,5.0693,5.0693,5.0683,5.0693,5.0683,5.0683,5.0683,5.0663,5.0673,5.0663,5.0594,5.0573,5.0553,5.0511,5.0457,5.0424,5.0371,5.0337,5.0314,5.0283,5.0278,5.0267,5.0267,5.0267,5.0248,5.0248,5.0267,5.029,5.0302,5.0314,5.0337,5.0325,5.029,5.0302,5.0337,5.0359,5.0382,5.0427,5.0438,5.0459,5.0459,5.0489,5.0521,5.0572,5.0582,5.0584,5.0643,5.0663,5.0683,5.0702,5.0702,5.0711,5.072,5.0757,5.0784,5.0827,5.0177,4.961,4.8655,4.7775,4.7094,4.6332,4.6152,4.6095,4.608,4.6119,4.6199,4.6225,4.6226,4.624,4.6273,4.6302,4.6291,4.6299,4.6304,4.6288,4.6289,4.6289,4.6289,4.6289,4.6289,4.6169,4.6029,4.5612,4.4898,4.4034,4.3404,4.3156,4.2744,4.2085,4.1498,4.1002,4.0898,4.0842,4.079,4.0787,4.0713,4.0641,4.0626,4.0579,4.0534,4.0484,4.043,4.0389,4.0354]}]]